Date StartTime U_cm/s V_cm/s W_cm/s Ustd_cm/s Vstd_cm/s Wstd_cm/s Uvar_(cm/s)^2 Vvar_(cm/s)^2 Wvar_(cm/s)^2 KE_(m/s)^2 TurbulentKE_(m/s)^2 HorizWindSpeed_cm/s FrictionSpeec_cm/s DragCoef SpeedOfSound_m/s SonicTemperature_C Pressure_mb 
03/18/2014  00:00:00       13.439      113.451       -9.692       31.196       36.946       21.105      973.199     1364.975      445.416        0.796        0.139      114.244       21.744        0.036      334.208        4.029      862.159
03/18/2014  00:01:00       11.453      139.629      -18.332       33.623       32.278       16.699     1130.539     1041.887      278.873        1.121        0.123      140.098       13.422        0.009      334.304        4.188      862.156
03/18/2014  00:02:00       -1.261      149.590      -20.023       29.966       32.242       17.984      897.945     1039.571      323.419        1.252        0.113      149.595       14.862        0.010      334.234        4.072      862.159
03/18/2014  00:03:00       19.910      119.595      -14.498       36.711       42.199       25.048     1347.713     1780.793      627.390        0.933        0.188      121.241       22.566        0.035      334.183        3.989      862.160
03/18/2014  00:04:00       27.783      153.904      -10.683       30.696       42.957       25.387      942.225     1845.264      644.494        1.400        0.172      156.391       25.047        0.026      334.314        4.205      862.153
03/18/2014  00:05:00       36.515       89.421       -3.455       32.352       40.569       26.581     1046.649     1645.838      706.561        0.637        0.170       96.590       26.817        0.077      334.284        4.156      862.144
03/18/2014  00:06:00       23.687       81.573       -8.589       28.608       29.168       18.368      818.395      850.775      337.372        0.465        0.100       84.942       13.697        0.026      334.278        4.144      862.144
03/18/2014  00:07:00       30.386       64.739       -2.265       26.400       42.937       22.260      696.960     1843.578      495.504        0.408        0.152       71.515       22.095        0.095      334.272        4.136      862.143
03/18/2014  00:08:00       61.574       52.798       12.221       52.017       21.890       27.909     2705.809      479.170      778.916        0.535        0.198       81.111       27.423        0.114      334.351        4.267      862.140
03/18/2014  00:09:00       20.480       38.260        2.837       21.013       30.644       15.624      441.564      939.035      244.095        0.176        0.081       43.396       16.436        0.143      334.306        4.191      862.143
03/18/2014  00:10:00       25.905       32.050       -7.584       13.563       19.884       11.654      183.958      395.371      135.818        0.124        0.036       41.210        8.890        0.047      334.301        4.183      862.151
03/18/2014  00:11:00       11.217       28.706       -8.776       17.350       13.601        6.253      301.005      185.000       39.100        0.078        0.026       30.819        4.494        0.021      334.297        4.178      862.169
03/18/2014  00:12:00        8.993       49.038       -6.655       16.076       24.301        9.439      258.427      590.541       89.095        0.173        0.047       49.856        6.677        0.018      334.307        4.194      862.194
03/18/2014  00:13:00        3.088       63.341       -5.550       20.797       22.590        8.783      432.509      510.313       77.139        0.254        0.051       63.416        7.992        0.016      334.364        4.288      862.227
03/18/2014  00:14:00       -9.070       23.840       -4.292       10.228       17.527        7.397      104.607      307.192       54.714        0.057        0.023       25.507        5.044        0.039      334.294        4.172      862.238
03/18/2014  00:15:00       -8.115       24.241       -3.861       12.891       19.473       11.243      166.167      379.208      126.413        0.067        0.034       25.563       10.660        0.174      334.290        4.166      862.236
03/18/2014  00:16:00        1.586       23.713        0.515       14.766       16.545       15.636      218.031      273.732      244.490        0.065        0.037       23.766       10.293        0.188      334.213        4.038      862.220
03/18/2014  00:17:00        8.569       50.589       -8.159       16.526       21.049       10.990      273.104      443.048      120.776        0.177        0.042       51.309       11.043        0.046      334.293        4.171      862.208
03/18/2014  00:18:00       24.798       48.874       -5.478       12.965       16.444       12.695      168.103      270.401      161.171        0.182        0.030       54.805        7.726        0.020      334.321        4.217      862.187
03/18/2014  00:19:00       24.028       96.213      -13.934       21.615       24.668       12.215      467.199      608.490      149.200        0.563        0.061       99.168       11.946        0.015      334.276        4.142      862.179
03/18/2014  00:20:00       26.249       56.771       -5.226       27.465       34.494       18.211      754.335     1189.808      331.657        0.311        0.114       62.546       17.264        0.076      334.176        3.976      862.172
03/18/2014  00:21:00       35.703       75.388       -5.722       26.991       32.930       20.501      728.508     1084.367      420.282        0.461        0.112       83.415       22.247        0.071      334.107        3.862      862.176
03/18/2014  00:22:00       39.755       78.832       -7.042       32.406       29.458       21.475     1050.180      867.797      461.190        0.511        0.119       88.289       16.373        0.034      334.083        3.821      862.196
03/18/2014  00:23:00       39.107       63.306       -6.415       25.460       32.087       23.689      648.214     1029.565      561.175        0.391        0.112       74.411       19.929        0.072      334.053        3.771      862.223
03/18/2014  00:24:00       42.147       58.773       -1.241       32.695       32.290       26.652     1068.934     1042.630      710.325        0.403        0.141       72.323       21.891        0.092      334.014        3.708      862.248
03/18/2014  00:25:00       54.570       45.123        8.827       33.825       21.616       21.709     1144.100      467.248      471.302        0.359        0.104       70.809       13.005        0.034      333.977        3.647      862.266
03/18/2014  00:26:00       60.145       41.571       10.572       29.237       14.391       16.517      854.817      207.095      272.816        0.340        0.067       73.113       13.728        0.035      333.946        3.596      862.264
03/18/2014  00:27:00       48.459       29.467       12.686       17.212        9.557       11.236      296.252       91.330      126.244        0.195        0.026       56.715        8.268        0.021      334.025        3.726      862.267
03/18/2014  00:28:00       35.705       17.983       26.092       28.571       17.125       20.190      816.286      293.281      407.655        0.190        0.076       39.977       12.942        0.105      333.919        3.551      862.273
03/18/2014  00:29:00       69.954       21.673       13.571       25.037       18.731       19.425      626.873      350.847      377.339        0.345        0.068       73.235        8.640        0.014      334.039        3.749      862.277
03/18/2014  00:30:00       32.179       25.699       25.422       20.109       15.063       15.741      404.362      226.895      247.792        0.161        0.044       41.182        9.933        0.058      333.985        3.660      862.275
03/18/2014  00:31:00       39.818       31.559       21.630       13.537       13.863       13.473      183.250      192.178      181.527        0.180        0.028       50.808        8.001        0.025      334.075        3.809      862.278
03/18/2014  00:32:00       48.226       21.907       10.189       14.643       16.162       12.502      214.430      261.223      156.297        0.177        0.032       52.969        6.790        0.016      334.070        3.799      862.266
03/18/2014  00:33:00        9.325       20.498       26.443       17.049       15.199        9.415      290.671      231.018       88.639        0.091        0.031       22.520        6.706        0.089      333.966        3.628      862.253
03/18/2014  00:34:00        3.305       12.157       17.838       14.730       22.373       14.537      216.963      500.560      211.321        0.070        0.046       12.598       12.275        0.949      334.007        3.695      862.242
03/18/2014  00:35:00       12.041       -8.831       16.735       16.075       14.550       15.563      258.411      211.698      242.217        0.061        0.036       14.932        7.477        0.251      333.995        3.677      862.238
03/18/2014  00:36:00        5.613      -16.581       10.195       13.478       24.970       13.031      181.657      623.483      169.810        0.069        0.049       17.506       11.833        0.457      334.029        3.733      862.231
03/18/2014  00:37:00        6.479      -48.039       22.809       13.028       22.849       15.167      169.726      522.064      230.042        0.190        0.046       48.474        9.967        0.042      334.046        3.760      862.228
03/18/2014  00:38:00       -0.817        1.390       26.515       13.944       20.287       13.182      194.441      411.559      173.769        0.074        0.039        1.612        9.269       33.049      333.861        3.453      862.217
03/18/2014  00:39:00        0.989      -26.872       -0.289       13.035       19.818       13.234      169.916      392.751      175.136        0.073        0.037       26.890       11.805        0.193      334.012        3.702      862.203
03/18/2014  00:40:00      -14.382      -18.620       -1.235       13.670       16.483       14.093      186.858      271.696      198.625        0.061        0.033       23.527       12.348        0.275      333.901        3.521      862.194
03/18/2014  00:41:00       15.433       17.163       43.564       30.718       40.720       26.814      943.574     1658.145      719.004        0.287        0.166       23.081       24.204        1.100      333.892        3.505      862.200
03/18/2014  00:42:00       16.713        2.409       26.384       27.554       20.902       20.225      759.221      436.896      409.049        0.129        0.080       16.886       16.264        0.928      334.013        3.708      862.208
03/18/2014  00:43:00        1.656       32.945       52.551       15.514       26.700       18.413      240.693      712.873      339.056        0.257        0.065       32.986       18.241        0.306      333.908        3.532      862.225
03/18/2014  00:44:00        7.055       38.347       47.638       16.037       28.791       24.131      257.191      828.949      582.299        0.273        0.083       38.990       20.853        0.286      333.826        3.397      862.239
03/18/2014  00:45:00        9.594       14.173       39.474       16.935       16.098        8.145      286.790      259.135       66.342        0.123        0.031       17.114        7.050        0.170      333.851        3.439      862.250
03/18/2014  00:46:00       43.646       26.237       20.791       26.316       17.122       21.448      692.542      293.163      460.004        0.224        0.072       50.925       17.084        0.113      333.932        3.572      862.236
03/18/2014  00:47:00       69.424       40.601       13.001       18.821       15.035       10.135      354.247      226.039      102.722        0.366        0.034       80.425        8.274        0.011      334.035        3.742      862.194
03/18/2014  00:48:00       53.839       46.067       18.692       16.724       14.835       16.975      279.686      220.073      288.149        0.308        0.039       70.858        7.867        0.012      333.946        3.595      862.140
03/18/2014  00:49:00       58.270       26.125        8.290       19.351       13.481       13.172      374.450      181.733      173.495        0.244        0.036       63.858       11.094        0.030      333.936        3.578      862.101
03/18/2014  00:50:00       69.229       52.085       12.304       15.189       17.185       14.215      230.695      295.319      202.059        0.419        0.036       86.634        6.149        0.005      333.971        3.636      862.068
03/18/2014  00:51:00       90.076       62.356       17.994       15.264       10.389       10.529      233.001      107.928      110.868        0.639        0.023      109.553        5.194        0.002      333.959        3.617      862.048
03/18/2014  00:52:00       99.160       70.711        9.812       33.252       16.865       16.096     1105.680      284.434      259.072        0.829        0.082      121.790       14.412        0.014      333.921        3.553      862.045
03/18/2014  00:53:00       86.610       67.666        2.834       36.785       26.953       23.191     1353.164      726.467      537.819        0.735        0.131      109.909       14.510        0.017      333.798        3.349      862.054
03/18/2014  00:54:00       76.747       64.973        5.627       38.149       28.550       26.286     1455.344      815.118      690.947        0.655        0.148      100.557       18.772        0.035      333.739        3.252      862.068
03/18/2014  00:55:00       68.167       62.616        2.350       41.515       29.074       27.291     1723.481      845.307      744.800        0.594        0.166       92.561       21.285        0.053      333.760        3.287      862.071
03/18/2014  00:56:00       46.286       39.386        1.605       30.453       30.278       26.448      927.386      916.747      699.481        0.312        0.127       60.775       24.261        0.159      333.747        3.265      862.079
03/18/2014  00:57:00       22.569       59.036       -4.707       16.605       29.799       14.550      275.733      888.003      211.693        0.270        0.069       63.203       14.667        0.054      333.805        3.361      862.097
03/18/2014  00:58:00       21.438       34.266       -1.257       17.120       28.647       15.731      293.081      820.654      247.457        0.150        0.068       40.420       16.368        0.164      333.788        3.334      862.125
03/18/2014  00:59:00       25.688       37.156        0.509       19.876       25.331       17.689      395.036      641.645      312.907        0.169        0.067       45.171       14.464        0.103      333.801        3.354      862.162
03/18/2014  01:00:00       31.321       33.667       -2.845       16.137       18.566       14.099      260.409      344.682      198.777        0.146        0.040       45.983       11.769        0.066      333.781        3.320      862.205
03/18/2014  01:01:00       11.520       16.344       -3.992       10.088       12.406        5.452      101.760      153.910       29.724        0.035        0.014       19.996        1.866        0.009      333.776        3.313      862.232
03/18/2014  01:02:00       27.454       36.332       -6.840       11.817       10.099        9.992      139.643      101.994       99.837        0.123        0.017       45.538        6.911        0.023      333.811        3.370      862.243
03/18/2014  01:03:00       19.550       63.821       -9.125       17.034       20.448        7.218      290.157      418.131       52.094        0.265        0.038       66.749        3.781        0.003      333.855        3.444      862.237
03/18/2014  01:04:00        1.611       99.886      -16.825       11.159       17.210        8.371      124.523      296.176       70.073        0.538        0.025       99.899        2.772        0.001      333.858        3.448      862.228
03/18/2014  01:05:00      -12.855      131.732      -19.023       14.523       18.281       11.033      210.921      334.181      121.729        0.927        0.033      132.358        7.297        0.003      333.937        3.578      862.219
03/18/2014  01:06:00      -23.680      148.863      -23.556       17.961       22.378       14.083      322.606      500.755      198.344        1.215        0.051      150.735        8.384        0.003      333.967        3.629      862.222
03/18/2014  01:07:00      -17.507      143.021      -26.689       21.529       27.320       15.394      463.507      746.361      236.984        1.146        0.072      144.089       15.212        0.011      333.890        3.501      862.218
03/18/2014  01:08:00      -18.648      146.450      -23.621       14.712       21.372       11.992      216.447      456.749      143.805        1.159        0.041      147.633       10.878        0.005      333.856        3.446      862.210
03/18/2014  01:09:00      -17.372      144.797      -21.268       16.212       22.617       14.005      262.829      511.536      196.143        1.135        0.049      145.836       10.350        0.005      333.947        3.597      862.209
03/18/2014  01:10:00      -20.528      130.589      -15.774       23.668       38.184       19.055      560.198     1457.999      363.092        1.005        0.119      132.192       17.218        0.017      333.955        3.610      862.213
03/18/2014  01:11:00      -20.647       58.510       -6.521       28.180       31.868       23.326      794.100     1015.574      544.114        0.312        0.118       62.046       17.334        0.078      333.962        3.622      862.224
03/18/2014  01:12:00      -16.277       38.048       -0.278       36.314       34.953       16.376     1318.725     1221.738      268.164        0.226        0.140       41.384       13.422        0.105      333.824        3.394      862.239
03/18/2014  01:13:00      -53.781      -14.959      -10.032       22.029       13.160       16.315      485.264      173.195      266.165        0.207        0.046       55.823       10.870        0.038      333.276        2.484      862.261
03/18/2014  01:14:00      -61.965      -32.804      -11.900       17.951       17.198       11.074      322.240      295.786      122.640        0.290        0.037       70.113        6.181        0.008      333.134        2.249      862.289
03/18/2014  01:15:00      -64.028      -43.812      -16.753       20.197       17.617       12.667      407.915      310.355      160.449        0.359        0.044       77.583        9.436        0.015      333.080        2.161      862.327
03/18/2014  01:16:00      -74.656      -32.178      -10.557       29.222       21.816       13.113      853.928      475.933      171.960        0.411        0.075       81.295        9.938        0.015      333.087        2.171      862.367
03/18/2014  01:17:00      -79.079      -37.293      -10.576       26.125       15.427       17.102      682.528      237.994      292.494        0.448        0.061       87.432       15.655        0.032      333.182        2.328      862.386
03/18/2014  01:18:00     -116.482      -35.717      -17.577       16.425       19.431       15.791      269.792      377.545      249.365        0.802        0.045      121.835        7.438        0.004      333.177        2.320      862.391
03/18/2014  01:19:00     -116.845      -38.396      -11.650       12.408       16.903       10.892      153.966      285.716      118.632        0.791        0.028      122.992        6.796        0.003      333.224        2.398      862.391
03/18/2014  01:20:00      -94.609      -19.383      -11.943       25.921       15.517       11.799      671.897      240.780      139.221        0.526        0.053       96.574       10.148        0.011      333.186        2.336      862.389
03/18/2014  01:21:00      -89.264       -2.458      -13.184       11.118       10.599       10.598      123.601      112.343      112.315        0.425        0.017       89.298        5.491        0.004      333.182        2.328      862.382
03/18/2014  01:22:00      -96.697       -5.870      -18.726       12.996       12.064        9.626      168.887      145.536       92.655        0.507        0.020       96.875        6.028        0.004      333.131        2.243      862.384
03/18/2014  01:23:00      -67.243      -13.472      -11.347       18.653       23.685       12.666      347.944      560.982      160.421        0.295        0.053       68.580       10.606        0.024      333.142        2.263      862.386
03/18/2014  01:24:00      -80.744      -19.844      -17.040       17.750       18.439       11.349      315.076      339.984      128.805        0.399        0.039       83.146        7.601        0.008      333.025        2.070      862.374
03/18/2014  01:25:00      -69.698      -14.046      -11.722       34.681       24.867       19.061     1202.798      618.375      363.335        0.369        0.109       71.099       15.529        0.048      333.049        2.109      862.367
03/18/2014  01:26:00      -76.600      -13.827       -8.543       39.821       37.296       18.853     1585.714     1391.014      355.428        0.473        0.167       77.838       15.069        0.037      332.949        1.944      862.364
03/18/2014  01:27:00      -88.000       -5.523       -6.445       56.388       31.892       20.374     3179.601     1017.097      415.084        0.621        0.231       88.173       20.956        0.056      332.853        1.787      862.371
03/18/2014  01:28:00      -63.270       -0.218       -7.042       62.073       31.572       23.561     3853.087      996.816      555.127        0.473        0.270       63.270       27.480        0.189      332.810        1.717      862.379
03/18/2014  01:29:00      -28.911      -13.304        1.939       37.187       30.473       20.862     1382.852      928.585      435.204        0.188        0.137       31.825       22.061        0.481      332.875        1.823      862.392
03/18/2014  01:30:00      -53.955       -6.361      -12.418       19.713       29.692       18.746      388.598      881.601      351.406        0.236        0.081       54.329       14.546        0.072      332.920        1.897      862.413
03/18/2014  01:31:00      -65.169      -11.455       -2.135       35.453       21.104       21.709     1256.919      445.367      471.260        0.328        0.109       66.168       21.718        0.108      332.959        1.961      862.435
03/18/2014  01:32:00      -90.482        1.736      -10.541       47.102       25.543       19.676     2218.571      652.441      387.161        0.578        0.163       90.498       23.554        0.068      332.962        1.966      862.458
03/18/2014  01:33:00     -113.588       -3.002      -20.877       38.470       26.156       18.960     1479.921      684.145      359.474        0.793        0.126      113.627       19.775        0.030      332.898        1.863      862.495
03/18/2014  01:34:00      -92.619      -18.354       -8.664       24.457       24.737       17.144      598.136      611.930      293.907        0.525        0.075       94.420        9.367        0.010      332.864        1.806      862.523
03/18/2014  01:35:00      -82.298      -38.499      -16.842       21.473       22.669       12.795      461.103      513.875      163.715        0.484        0.057       90.858        4.636        0.003      332.932        1.917      862.522
03/18/2014  01:36:00      -80.489      -37.759      -10.167       19.859       21.290       16.732      394.364      453.273      279.948        0.457        0.056       88.906       10.841        0.015      332.809        1.713      862.517
03/18/2014  01:37:00      -93.703      -11.139      -11.335       31.187       24.909       19.745      972.622      620.436      389.876        0.551        0.099       94.363       17.229        0.033      332.711        1.551      862.517
03/18/2014  01:38:00      -91.285      -23.883      -18.074       16.111       19.565       17.131      259.572      382.786      293.454        0.508        0.047       94.357        9.079        0.009      332.783        1.672      862.519
03/18/2014  01:39:00      -78.629      -11.739      -15.982       18.427       17.129       10.641      339.554      293.418      113.225        0.366        0.037       79.501        8.040        0.010      332.821        1.734      862.506
03/18/2014  01:40:00      -71.832       -3.685      -12.937       19.576       10.751        9.323      383.209      115.581       86.912        0.296        0.029       71.927        2.988        0.002      332.926        1.908      862.478
03/18/2014  01:41:00      -65.557       -1.531       -6.811       13.509       15.712       10.918      182.495      246.853      119.204        0.245        0.027       65.575        4.146        0.004      333.115        2.218      862.441
03/18/2014  01:42:00      -54.219      -15.247      -12.579       10.337       14.175        9.428      106.864      200.926       88.884        0.186        0.020       56.322        5.347        0.009      332.980        1.995      862.411
03/18/2014  01:43:00      -49.291      -16.610       -8.757       12.108       14.562       12.643      146.594      212.061      159.853        0.165        0.026       52.015        6.474        0.015      332.972        1.982      862.390
03/18/2014  01:44:00      -39.012      -18.952      -12.246       15.874       21.061       14.513      251.991      443.566      210.632        0.147        0.045       43.372        8.662        0.040      332.964        1.972      862.378
03/18/2014  01:45:00      -26.887      -16.397       -9.135       27.158       15.526       12.199      737.572      241.064      148.805        0.110        0.056       31.493       12.783        0.165      333.007        2.040      862.351
03/18/2014  01:46:00      -28.288       -6.471       -1.416       25.087       16.653       14.229      629.379      277.315      202.453        0.098        0.055       29.018       12.447        0.184      333.049        2.110      862.328
03/18/2014  01:47:00      -27.635       -3.318       -2.252       17.502       18.025       16.057      306.309      324.888      257.813        0.083        0.044       27.834       10.134        0.133      333.179        2.324      862.331
03/18/2014  01:48:00      -64.021       62.944      -14.447       23.718       48.709       14.492      562.560     2372.567      210.011        0.571        0.157       89.781       16.427        0.033      333.370        2.640      862.347
03/18/2014  01:49:00      -80.663      127.173      -25.367       25.917       34.758       20.917      671.697     1208.112      437.533        1.282        0.116      150.597       19.228        0.016      333.475        2.813      862.374
03/18/2014  01:50:00      -87.724      130.054      -29.836       31.649       30.367       20.401     1001.639      922.126      416.217        1.392        0.117      156.875       12.045        0.006      333.459        2.787      862.392
03/18/2014  01:51:00      -81.620      137.732      -25.138       31.538       36.422       23.085      994.636     1326.526      532.929        1.456        0.143      160.100       16.335        0.010      333.425        2.730      862.412
03/18/2014  01:52:00      -86.611      117.172      -26.156       33.293       34.276       23.668     1108.418     1174.842      560.158        1.238        0.142      145.708       14.663        0.010      333.451        2.773      862.426
03/18/2014  01:53:00      -80.207      103.630      -25.990       31.264       28.810       19.567      977.445      830.014      382.877        1.002        0.110      131.043       13.921        0.011      333.456        2.781      862.432
03/18/2014  01:54:00      -78.028       98.377      -22.320       26.276       31.033       18.124      690.408      963.077      328.479        0.912        0.099      125.564       14.950        0.014      333.523        2.892      862.417
03/18/2014  01:55:00      -78.992       77.952      -20.307       18.774       27.216       15.026      352.479      740.725      225.772        0.702        0.066      110.978       13.773        0.015      333.450        2.772      862.407
03/18/2014  01:56:00      -62.828       68.579      -16.442       29.863       33.304       16.795      891.827     1109.156      282.060        0.560        0.114       93.008       14.626        0.025      333.482        2.826      862.396
03/18/2014  01:57:00      -57.738      114.629      -18.231       26.187       49.328       25.507      685.783     2433.227      650.593        1.029        0.188      128.349       23.272        0.033      333.676        3.146      862.388
03/18/2014  01:58:00      -72.915       90.117      -19.969       22.415       22.874       15.465      502.419      523.202      239.154        0.755        0.063      115.921       14.007        0.015      333.586        2.998      862.375
03/18/2014  01:59:00      -50.681       50.798      -16.192       27.185       25.751       10.947      739.004      663.090      119.844        0.347        0.076       71.757        9.640        0.018      333.602        3.024      862.362
03/18/2014  02:00:00      -63.389      100.785      -20.203       20.868       23.200       14.659      435.475      538.223      214.879        0.789        0.059      119.062       10.771        0.008      333.678        3.150      862.368
03/18/2014  02:01:00      -11.596      107.840       -6.552       29.119       40.419       18.113      847.935     1633.709      328.082        0.731        0.140      108.462       18.355        0.029      333.770        3.304      862.384
03/18/2014  02:02:00       -7.598       99.872       -6.412       20.668       30.409       19.675      427.154      924.735      387.123        0.591        0.087      100.161       18.560        0.034      333.738        3.251      862.390
03/18/2014  02:03:00      -16.846      118.484      -14.259       28.560       21.497       14.126      815.650      462.121      199.548        0.800        0.074      119.676       11.375        0.009      333.602        3.025      862.393
03/18/2014  02:04:00      -17.642      112.053      -11.087       21.269       32.035       17.438      452.365     1026.219      304.072        0.739        0.089      113.433       12.648        0.012      333.593        3.010      862.388
03/18/2014  02:05:00      -46.898       56.158       -8.726       29.014       34.107       21.370      841.821     1163.280      456.669        0.395        0.123       73.165       18.058        0.061      333.564        2.962      862.371
03/18/2014  02:06:00      -59.631       20.799       -8.211       20.949       20.851       10.610      438.850      434.769      112.583        0.252        0.049       63.154        6.174        0.010      333.380        2.658      862.360
03/18/2014  02:07:00      -79.995       45.497      -11.412       25.878       34.255       22.711      669.696     1173.419      515.796        0.548        0.118       92.028       20.485        0.050      333.418        2.721      862.356
03/18/2014  02:08:00     -100.040      124.090      -27.559       25.284       28.429       20.169      639.281      808.233      406.786        1.401        0.093      159.394       14.111        0.008      333.499        2.855      862.360
03/18/2014  02:09:00      -65.166      103.460      -24.951       35.028       40.872       21.100     1226.957     1670.527      445.213        0.946        0.167      122.272       24.666        0.041      333.530        2.904      862.363
03/18/2014  02:10:00      -73.604       76.682      -15.771       22.755       28.165       19.649      517.801      793.255      386.095        0.662        0.085      106.291       14.298        0.018      333.470        2.806      862.353
03/18/2014  02:11:00      -86.090       78.873      -24.095       16.572       24.465       13.452      274.643      598.519      180.957        0.763        0.053      116.757       13.127        0.013      333.494        2.845      862.335
03/18/2014  02:12:00      -75.757       52.781      -13.428       18.639       22.323       13.462      347.400      498.317      181.221        0.487        0.051       92.331        8.489        0.008      333.525        2.897      862.313
03/18/2014  02:13:00      -85.305       51.213      -18.771       21.062       23.584       15.430      443.617      556.227      238.080        0.574        0.062       99.497       11.024        0.012      333.565        2.963      862.301
03/18/2014  02:14:00      -83.258       90.512      -26.159       24.443       28.957       13.886      597.483      838.504      192.814        0.872        0.081      122.982       13.155        0.011      333.627        3.065      862.299
03/18/2014  02:15:00      -69.715       64.099      -20.733       27.454       30.688       17.501      753.723      941.746      306.270        0.570        0.100       94.704       15.269        0.026      333.600        3.020      862.312
03/18/2014  02:16:00      -73.842       90.557      -23.806       31.182       35.252       16.814      972.294     1242.701      282.722        0.836        0.125      116.847       13.401        0.013      333.551        2.939      862.331
03/18/2014  02:17:00      -65.256       70.993      -16.912       20.648       36.181       16.965      426.335     1309.091      287.823        0.580        0.101       96.428       17.977        0.035      333.500        2.855      862.340
03/18/2014  02:18:00      -77.354       68.595      -20.118       18.094       24.368       15.207      327.375      593.810      231.252        0.612        0.058      103.387       11.762        0.013      333.504        2.861      862.333
03/18/2014  02:19:00      -81.765       73.637      -22.226       29.140       33.335       18.799      849.129     1111.214      353.419        0.746        0.116      110.036       18.491        0.028      333.429        2.737      862.307
03/18/2014  02:20:00      -68.381       37.476      -11.941       22.584       20.514       15.098      510.059      420.835      227.945        0.369        0.058       77.977       11.464        0.022      333.389        2.669      862.271
03/18/2014  02:21:00      -72.089       71.677      -22.216       20.460       36.134       16.087      418.624     1305.678      258.790        0.641        0.099      101.658       18.249        0.032      333.525        2.895      862.250
03/18/2014  02:22:00      -48.715       34.250       -9.509       20.631       30.541       13.578      425.651      932.765      184.354        0.259        0.077       59.550       15.447        0.067      333.449        2.772      862.233
03/18/2014  02:23:00      -52.573       32.892       -8.563       25.925       29.669       12.913      672.085      880.244      166.749        0.282        0.086       62.014        9.506        0.023      333.379        2.654      862.222
03/18/2014  02:24:00      -45.232       14.716       -4.039       23.207       20.937       17.518      538.579      438.354      306.866        0.178        0.064       47.566       14.491        0.093      333.426        2.732      862.217
03/18/2014  02:25:00      -36.019      -15.715       -6.566       26.571       31.776       18.834      706.002     1009.695      354.702        0.183        0.104       39.298       16.814        0.183      333.317        2.551      862.218
03/18/2014  02:26:00      -28.862        3.518       -2.685       21.127       28.079       13.693      446.331      788.447      187.496        0.114        0.071       29.076       16.154        0.309      333.408        2.703      862.226
03/18/2014  02:27:00      -19.107        5.254        4.904       19.049       15.395        9.963      362.871      237.002       99.252        0.056        0.035       19.816        7.214        0.133      333.413        2.710      862.238
03/18/2014  02:28:00       -8.875       24.464       -7.932       26.822       17.719       13.262      719.407      313.971      175.888        0.097        0.060       26.024        8.740        0.113      333.514        2.880      862.248
03/18/2014  02:29:00      -11.943       15.935       -9.750       26.829       27.624       12.982      719.786      763.060      168.520        0.107        0.083       19.914       11.127        0.312      333.461        2.789      862.267
03/18/2014  02:30:00      -34.133       12.762       -1.885       37.541       34.542       19.894     1409.334     1193.131      395.763        0.216        0.150       36.441       14.907        0.167      333.380        2.656      862.278
03/18/2014  02:31:00      -46.368      -21.051       -1.020       15.812       12.303       12.368      250.029      151.366      152.968        0.157        0.028       50.922        9.112        0.032      333.211        2.376      862.279
03/18/2014  02:32:00      -88.740      -21.672      -10.716       25.754       17.273       13.323      663.245      298.360      177.494        0.480        0.057       91.348        7.955        0.008      333.024        2.069      862.278
03/18/2014  02:33:00      -97.379      -29.589      -17.556       29.678       18.502       15.281      880.771      342.315      233.497        0.606        0.073      101.775       15.033        0.022      332.993        2.018      862.283
03/18/2014  02:34:00      -96.957      -15.851      -10.853       15.503       15.251       14.331      240.343      232.603      205.376        0.522        0.034       98.245        7.360        0.006      332.912        1.885      862.292
03/18/2014  02:35:00      -91.949      -19.309      -17.934       24.018       23.543       14.921      576.858      554.293      222.632        0.525        0.068       93.955        6.473        0.005      332.893        1.853      862.299
03/18/2014  02:36:00      -89.602      -40.914      -17.605       13.982       20.694        9.899      195.508      428.239       97.994        0.537        0.036       98.501        4.572        0.002      332.878        1.829      862.305
03/18/2014  02:37:00      -88.950      -45.492       -3.378       30.151       21.285       15.565      909.080      453.041      242.281        0.580        0.080       99.908       12.329        0.015      332.850        1.781      862.315
03/18/2014  02:38:00      -72.498      -23.183       -6.718       23.189       20.282       12.043      537.720      411.356      145.043        0.347        0.055       76.114        7.456        0.010      332.900        1.865      862.321
03/18/2014  02:39:00     -108.938      -27.655      -17.727       21.211       14.639       10.267      449.924      214.304      105.418        0.686        0.038      112.393       10.317        0.008      332.776        1.660      862.321
03/18/2014  02:40:00      -78.986      -44.249       -1.949       44.312       24.667       20.718     1963.527      608.468      429.220        0.560        0.150       90.536       22.321        0.061      332.784        1.673      862.312
03/18/2014  02:41:00      -86.017      -24.648       -2.814       37.476       23.255       16.666     1404.442      540.805      277.746        0.512        0.111       89.479       16.250        0.033      332.779        1.664      862.304
03/18/2014  02:42:00      -94.034      -13.754      -11.627       35.841       29.906       17.632     1284.582      894.367      310.877        0.583        0.124       95.035       17.094        0.032      332.721        1.569      862.298
03/18/2014  02:43:00     -103.125       -2.329      -11.735       31.772       33.280       17.891     1009.471     1107.585      320.074        0.661        0.122      103.151       13.466        0.017      332.691        1.519      862.292
03/18/2014  02:44:00     -102.654      -15.897       -7.521       45.148       32.727       24.467     2038.360     1071.089      598.616        0.728        0.185      103.877       24.434        0.055      332.577        1.329      862.296
03/18/2014  02:45:00      -70.472       -6.351       -5.006       44.252       38.632       27.857     1958.204     1492.399      776.030        0.463        0.211       70.757       24.009        0.115      332.559        1.300      862.290
03/18/2014  02:46:00      -37.631       -5.970        1.703       30.140       23.606       17.692      908.444      557.232      313.004        0.162        0.089       38.102       14.561        0.146      332.560        1.301      862.278
03/18/2014  02:47:00      -63.530       -7.525       -5.680       24.274       24.603       16.752      589.234      605.302      280.638        0.280        0.074       63.974       15.235        0.057      332.602        1.371      862.271
03/18/2014  02:48:00      -35.792      -15.586       -7.208       25.736       15.413       15.372      662.356      237.560      236.302        0.136        0.057       39.038       15.622        0.160      332.675        1.492      862.255
03/18/2014  02:49:00      -52.418      -10.397       -4.541       24.419       25.818       14.191      596.267      666.568      201.394        0.217        0.073       53.439        8.785        0.027      332.697        1.528      862.240
03/18/2014  02:50:00      -40.181      -22.978      -10.585       22.827       12.485        9.411      521.081      155.878       88.564        0.151        0.038       46.287        6.797        0.022      332.836        1.759      862.209
03/18/2014  02:51:00      -43.629      -24.213      -16.182       14.486       14.068       10.935      209.853      197.912      119.572        0.164        0.026       49.897        5.970        0.014      332.936        1.924      862.179
03/18/2014  02:52:00      -41.378      -21.107       -8.380       22.409       15.542       12.778      502.176      241.549      163.289        0.157        0.045       46.450        4.699        0.010      332.910        1.879      862.156
03/18/2014  02:53:00      -48.578      -14.317      -11.673       17.891       14.923        9.417      320.103      222.703       88.689        0.167        0.032       50.644        2.751        0.003      332.843        1.771      862.146
03/18/2014  02:54:00      -34.743      -23.780       -8.240        8.088       11.003       12.312       65.415      121.063      151.577        0.109        0.017       42.102        5.729        0.019      332.901        1.867      862.143
03/18/2014  02:55:00      -47.593      -10.529       -5.659       13.390        8.912        9.586      179.289       79.426       91.884        0.138        0.018       48.744        7.171        0.022      332.923        1.903      862.146
03/18/2014  02:56:00      -61.106       -7.144      -12.016       11.541       13.617       10.071      133.185      185.421      101.416        0.217        0.021       61.522        6.713        0.012      332.738        1.596      862.151
03/18/2014  02:57:00      -48.801      -13.480       -8.694       20.132       17.306       11.392      405.285      299.482      129.788        0.174        0.042       50.629        6.371        0.016      332.747        1.611      862.134
03/18/2014  02:58:00      -47.251      -11.010       -9.596       12.008       11.352        9.888      144.200      128.869       97.768        0.141        0.019       48.517        6.386        0.017      332.832        1.754      862.110
03/18/2014  02:59:00      -37.483      -21.903       -5.977       13.952       11.781       11.808      194.654      138.801      139.418        0.120        0.024       43.413        6.911        0.025      332.970        1.979      862.091
03/18/2014  03:00:00      -51.798       -6.804      -12.530       15.280       17.484       12.591      233.468      305.702      158.523        0.179        0.035       52.243        9.174        0.031      332.879        1.831      862.076
03/18/2014  03:01:00      -27.512      -14.685       -8.652       22.950       14.966       12.836      526.716      223.967      164.765        0.098        0.046       31.186       10.720        0.118      333.225        2.400      862.072
03/18/2014  03:02:00      -11.207      -16.599       -3.185       13.040       10.786        8.282      170.045      116.340       68.584        0.038        0.018       20.028        4.071        0.041      332.928        1.911      862.070
03/18/2014  03:03:00      -26.556      -19.512       -8.351       19.622       10.449       10.212      385.010      109.180      104.292        0.088        0.030       32.954        5.526        0.028      332.934        1.920      862.062
03/18/2014  03:04:00      -71.821      -14.223       -9.485       11.428       11.285       10.526      130.593      127.352      110.807        0.291        0.018       73.216        5.293        0.005      332.794        1.689      862.052
03/18/2014  03:05:00      -69.072      -29.641      -10.915       12.899       12.200        9.621      166.377      148.836       92.567        0.309        0.020       75.163        4.826        0.004      332.786        1.677      862.036
03/18/2014  03:06:00      -75.773      -40.263       -5.789       11.364       10.794       10.632      129.150      116.505      113.048        0.388        0.018       85.806        8.102        0.009      332.861        1.799      862.010
03/18/2014  03:07:00      -78.546      -37.707      -11.650       11.789        8.657        6.932      138.971       74.941       48.058        0.399        0.013       87.128        5.457        0.004      332.826        1.742      861.998
03/18/2014  03:08:00      -84.963      -27.155      -10.662       14.419       14.399       10.526      207.895      207.334      110.806        0.430        0.026       89.197        8.688        0.009      332.866        1.808      861.976
03/18/2014  03:09:00      -80.447      -17.597      -10.548       17.820       12.193       11.919      317.565      148.663      142.059        0.375        0.030       82.350        3.571        0.002      332.867        1.809      861.955
03/18/2014  03:10:00      -60.197      -15.582       -6.502       11.061       14.225        8.906      122.343      202.364       79.311        0.216        0.020       62.181        5.926        0.009      332.811        1.719      861.938
03/18/2014  03:11:00      -56.815      -22.451       -4.266       10.620        9.508       14.171      112.787       90.405      200.826        0.208        0.020       61.090        7.779        0.016      332.921        1.900      861.930
03/18/2014  03:12:00      -51.017       -7.608       -4.153       14.596       16.743       12.688      213.030      280.316      160.983        0.167        0.033       51.581        8.078        0.025      332.923        1.902      861.930
03/18/2014  03:13:00      -56.674       -6.362       -9.950       12.711       12.554        8.289      161.561      157.595       68.714        0.187        0.019       57.030        3.704        0.004      332.834        1.755      861.937
03/18/2014  03:14:00      -41.436      -20.029       -6.924       10.317       10.994        8.759      106.437      120.859       76.729        0.123        0.015       46.023        6.466        0.020      332.853        1.786      861.939
03/18/2014  03:15:00      -43.130      -15.931       -8.167       15.027       11.446        8.741      225.814      131.007       76.402        0.131        0.022       45.978        5.646        0.015      332.886        1.845      861.939
03/18/2014  03:16:00      -71.849       -4.434       -7.383       14.169       14.067        8.353      200.757      197.885       69.777        0.285        0.023       71.986        4.393        0.004      333.021        2.063      861.928
03/18/2014  03:17:00      -84.807      -22.666      -11.272       14.501       11.862        9.809      210.269      140.708       96.226        0.414        0.022       87.783        3.382        0.001      332.908        1.877      861.912
03/18/2014  03:18:00      -75.516      -23.698      -14.011       10.713       11.696        7.758      114.779      136.808       60.187        0.339        0.016       79.147        4.250        0.003      332.874        1.821      861.902
03/18/2014  03:19:00      -77.398      -27.768      -10.105       13.527       15.787       10.830      182.973      249.238      117.286        0.371        0.027       82.228        7.461        0.008      332.899        1.862      861.892
03/18/2014  03:20:00      -76.750      -27.217      -15.154       11.760       10.250       10.065      138.303      105.068      101.300        0.360        0.017       81.433        4.798        0.003      332.903        1.869      861.883
03/18/2014  03:21:00      -80.184      -32.591       -9.963       19.325       14.761       11.133      373.442      217.897      123.947        0.415        0.036       86.554        9.748        0.013      332.931        1.915      861.894
03/18/2014  03:22:00      -52.555       17.088      -12.016       27.078       18.739       13.718      733.241      351.143      188.184        0.224        0.064       55.263       13.066        0.056      333.256        2.452      861.895
03/18/2014  03:23:00      -43.529      -13.047       -2.909       13.663       14.465        9.828      186.686      209.232       96.595        0.128        0.025       45.442        7.250        0.025      333.073        2.151      861.903
03/18/2014  03:24:00      -57.156      -17.525       -7.476       13.991       11.337       10.301      195.753      128.524      106.118        0.203        0.022       59.783        8.150        0.019      332.886        1.840      861.900
03/18/2014  03:25:00      -54.820      -24.988       -6.232       13.135       11.942        8.753      172.526      142.614       76.615        0.203        0.020       60.247        5.008        0.007      332.764        1.638      861.879
03/18/2014  03:26:00      -29.070      -13.187       -1.709       15.986        9.280       12.328      255.562       86.109      151.969        0.076        0.025       31.921       11.206        0.123      332.850        1.782      861.847
03/18/2014  03:27:00      -14.936       -3.997       -3.985       10.081        6.842        8.938      101.629       46.812       79.884        0.024        0.011       15.462        7.126        0.212      332.900        1.863      861.822
03/18/2014  03:28:00        1.793        4.448        7.645        8.932        8.234        6.813       79.787       67.801       46.415        0.014        0.010        4.796        4.619        0.928      333.006        2.037      861.813
03/18/2014  03:29:00       34.691       18.389        4.896       10.409       10.645        7.301      108.348      113.316       53.309        0.092        0.014       39.263        5.593        0.020      333.125        2.235      861.812
03/18/2014  03:30:00       36.553       16.083        7.428        7.621        9.137        9.030       58.084       83.483       81.547        0.094        0.011       39.935        4.318        0.012      333.195        2.351      861.815
03/18/2014  03:31:00       36.699       44.005       -1.987       12.711       15.838       13.542      161.578      250.833      183.396        0.194        0.030       57.299        8.157        0.020      333.088        2.174      861.816
03/18/2014  03:32:00       29.984       32.168       -1.949       15.781       16.471       13.160      249.044      271.301      173.191        0.132        0.035       43.975       11.697        0.071      333.066        2.137      861.808
03/18/2014  03:33:00       20.400       27.899       -5.656       11.053       15.679        9.077      122.176      245.827       82.399        0.084        0.023       34.561        8.054        0.054      333.097        2.190      861.789
03/18/2014  03:34:00        4.550       22.648       -1.512       10.175       10.825        6.596      103.522      117.175       43.508        0.040        0.013       23.101        4.777        0.043      333.117        2.223      861.766
03/18/2014  03:35:00       18.663       25.536       -0.209        5.645        4.979        5.352       31.861       24.789       28.646        0.054        0.004       31.629        2.881        0.008      333.152        2.275      861.769
03/18/2014  03:36:00       26.757       27.522       -0.887        9.604        9.663        7.885       92.242       93.377       62.176        0.086        0.012       38.385        5.045        0.017      333.134        2.246      861.776
03/18/2014  03:37:00       38.446       35.440        2.749       11.910        9.599        9.600      141.840       92.150       92.153        0.153        0.016       52.288        5.485        0.011      333.119        2.226      861.786
03/18/2014  03:38:00       46.733       36.716        4.280       10.706       10.604       10.222      114.620      112.449      104.497        0.194        0.017       59.431        8.865        0.022      333.088        2.173      861.789
03/18/2014  03:39:00       26.150       33.859        0.333       17.818       22.005       12.426      317.470      484.217      154.403        0.139        0.048       42.781       13.386        0.098      333.050        2.112      861.805
03/18/2014  03:40:00       30.973       40.289       -1.976       16.556       20.713       12.806      274.103      429.025      163.997        0.173        0.043       50.819        9.996        0.039      333.020        2.062      861.821
03/18/2014  03:41:00       34.275       62.042       -7.111        8.660       10.539        6.663       75.003      111.077       44.392        0.265        0.012       70.880        4.459        0.004      333.006        2.038      861.820
03/18/2014  03:42:00       20.517       58.662       -8.767        9.125       11.295        5.622       83.268      127.583       31.608        0.209        0.012       62.146        5.687        0.008      333.035        2.090      861.814
03/18/2014  03:43:00       18.456       64.997       -8.603        9.594        6.353        5.763       92.040       40.364       33.213        0.240        0.008       67.566        3.441        0.003      333.014        2.050      861.792
03/18/2014  03:44:00        8.482       64.751       -8.200        5.815        7.391        3.850       33.820       54.620       14.823        0.222        0.005       65.304        2.897        0.002      333.041        2.097      861.791
03/18/2014  03:45:00        9.780       26.665       -4.548        6.566       19.458        5.350       43.107      378.625       28.622        0.064        0.023       28.402        7.279        0.066      333.043        2.102      861.810
03/18/2014  03:46:00        9.611       35.326       -1.206       12.680       14.120        5.898      160.778      199.373       34.782        0.087        0.020       36.610        4.520        0.015      333.049        2.113      861.832
03/18/2014  03:47:00        2.340       33.076       -7.808        9.663        8.366        8.771       93.383       69.991       76.930        0.070        0.012       33.158        7.949        0.057      333.127        2.237      861.853
03/18/2014  03:48:00      -18.226       10.577       -0.259        9.241        7.020        5.775       85.395       49.280       33.355        0.031        0.008       21.073        2.165        0.011      333.157        2.287      861.872
03/18/2014  03:49:00      -18.620       -2.194       -6.499        6.268        5.320        7.003       39.288       28.303       49.047        0.026        0.006       18.749        4.111        0.048      333.027        2.073      861.887
03/18/2014  03:50:00      -13.338      -11.915       -0.699       11.751        7.770        6.734      138.097       60.368       45.347        0.028        0.012       17.884        7.477        0.175      333.001        2.030      861.908
03/18/2014  03:51:00       23.036       25.372       -3.575       13.893       14.539        7.683      193.003      211.395       59.024        0.083        0.023       34.269        5.113        0.022      333.185        2.335      861.931
03/18/2014  03:52:00       23.905       48.392       -3.466       13.906       14.531       12.389      193.387      211.162      153.495        0.174        0.028       53.975       11.205        0.043      333.254        2.448      861.952
03/18/2014  03:53:00       13.248       72.836      -10.399       16.930       16.845        6.586      286.610      283.742       43.370        0.310        0.031       74.031        7.804        0.011      333.228        2.403      861.960
03/18/2014  03:54:00       30.950       85.994      -12.548       17.743       20.000       15.932      314.826      400.008      253.844        0.474        0.048       91.394       13.475        0.022      333.242        2.428      861.959
03/18/2014  03:55:00       40.008       80.706       -9.850       24.532       39.036       18.344      601.813     1523.803      336.509        0.534        0.123       90.078       20.612        0.052      333.264        2.463      861.949
03/18/2014  03:56:00       26.712       60.185       -9.541       21.120       32.984       17.322      446.044     1087.920      300.047        0.313        0.092       65.847       17.284        0.069      333.181        2.326      861.941
03/18/2014  03:57:00        7.764       54.212      -10.509       11.816        9.486        7.265      139.626       89.977       52.776        0.170        0.014       54.765        4.072        0.006      333.203        2.362      861.941
03/18/2014  03:58:00       -2.638       36.429        4.107       26.845       35.547       14.238      720.661     1263.573      202.711        0.177        0.109       36.525       11.985        0.108      333.236        2.419      861.937
03/18/2014  03:59:00      -17.050      -14.380       -1.930       19.697       16.037       11.968      387.957      257.185      143.224        0.064        0.039       22.305       10.405        0.218      332.977        1.992      861.942
03/18/2014  04:00:00       -6.100        2.266       -6.544       30.514       14.501       17.740      931.108      210.265      314.705        0.077        0.073        6.508       12.504        3.692      333.132        2.247      861.940
03/18/2014  04:01:00      -38.505       -3.998        0.786       17.806       15.828       17.232      317.052      250.519      296.926        0.118        0.043       38.712       10.961        0.080      332.970        1.979      861.925
03/18/2014  04:02:00      -27.155       -9.209       -4.477       16.157       10.857        7.167      261.053      117.878       51.364        0.064        0.022       28.673        5.886        0.042      332.879        1.830      861.905
03/18/2014  04:03:00        1.612       14.858        4.038       21.308       16.971       13.240      454.014      288.024      175.288        0.058        0.046       14.945       11.842        0.628      333.102        2.197      861.895
03/18/2014  04:04:00      -17.728        4.167       -6.547       22.642       20.123       12.916      512.651      404.933      166.811        0.073        0.054       18.211       10.549        0.336      333.161        2.293      861.893
03/18/2014  04:05:00      -51.685      -12.500       -5.266       15.125       15.026        9.765      228.759      225.779       95.352        0.170        0.027       53.175        3.089        0.003      332.930        1.913      861.893
03/18/2014  04:06:00       -9.038       12.029       -4.007       23.277       22.054        9.440      541.797      486.381       89.110        0.068        0.056       15.046       10.992        0.534      333.052        2.115      861.889
03/18/2014  04:07:00       24.016       25.287       -7.715       18.900       14.255       11.165      357.215      203.214      124.648        0.098        0.034       34.874        5.100        0.021      333.277        2.485      861.880
03/18/2014  04:08:00       12.714       13.359        1.477        8.307       11.012        9.025       68.998      121.265       81.444        0.031        0.014       18.443        4.546        0.061      333.254        2.448      861.870
03/18/2014  04:09:00       11.978       12.129       -0.678       13.247       10.406        9.306      175.495      108.295       86.609        0.033        0.019       17.047        8.412        0.243      333.226        2.401      861.862
03/18/2014  04:10:00        8.942        6.781        1.848        6.561        7.490        8.006       43.045       56.095       64.088        0.015        0.008       11.222        3.454        0.095      333.235        2.415      861.858
03/18/2014  04:11:00       21.536       18.733        5.190        7.899        9.062        7.924       62.393       82.115       62.798        0.052        0.010       28.543        3.373        0.014      333.249        2.440      861.846
03/18/2014  04:12:00       23.652       22.003        1.374       10.002        9.030        9.450      100.042       81.546       89.312        0.066        0.014       32.304        6.446        0.040      333.238        2.422      861.844
03/18/2014  04:13:00       20.751       -6.293       -3.200       18.244       26.491       13.970      332.844      701.765      195.149        0.085        0.061       21.684       11.462        0.279      333.321        2.561      861.838
03/18/2014  04:14:00       -3.044       -6.759       15.307       13.489       16.031        8.913      181.957      256.994       79.436        0.040        0.026        7.413        6.975        0.885      333.331        2.575      861.824
03/18/2014  04:15:00       -9.949        4.044       15.069       11.845       12.468        8.341      140.315      155.450       69.564        0.035        0.018       10.740       10.135        0.891      333.223        2.396      861.810
03/18/2014  04:16:00      -15.642       11.890       20.170       10.879       17.970       14.431      118.348      322.937      208.246        0.072        0.032       19.648       12.964        0.435      333.231        2.410      861.801
03/18/2014  04:17:00      -13.331       12.458       20.750        9.591        9.513       11.940       91.987       90.495      142.558        0.054        0.016       18.247        9.219        0.255      333.258        2.454      861.802
03/18/2014  04:18:00      -14.114        6.015       18.526       10.809       10.503        9.712      116.837      110.322       94.318        0.045        0.016       15.343        7.003        0.208      333.246        2.434      861.804
03/18/2014  04:19:00       -3.939       15.987       24.769       10.485       16.825       10.087      109.926      283.094      101.746        0.069        0.025       16.465        8.730        0.281      333.265        2.467      861.801
03/18/2014  04:20:00      -31.493      -18.979        2.604       20.603       11.703       11.264      424.473      136.960      126.867        0.102        0.034       36.770       11.078        0.091      333.204        2.367      861.790
03/18/2014  04:21:00      -35.064      -20.651       -7.358       22.181        9.657        8.766      491.988       93.249       76.849        0.119        0.033       40.694        4.164        0.010      333.099        2.192      861.798
03/18/2014  04:22:00      -12.008       -9.494       -7.669       26.798       13.085       11.611      718.117      171.229      134.804        0.066        0.051       15.307        5.453        0.127      333.148        2.272      861.820
03/18/2014  04:23:00      -63.717      -26.687       -8.016       16.946       11.183        7.691      287.164      125.063       59.159        0.265        0.024       69.080        2.364        0.001      333.140        2.259      861.846
03/18/2014  04:24:00      -81.379      -39.205       -2.533       22.424       16.483       14.484      502.834      271.687      209.788        0.457        0.049       90.330       12.935        0.021      333.106        2.204      861.853
03/18/2014  04:25:00      -75.523      -28.756       -2.280       20.630       15.169       10.757      425.604      230.111      115.714        0.365        0.039       80.813       12.079        0.022      333.070        2.145      861.873
03/18/2014  04:26:00      -33.103       -7.678       -5.621       23.133       19.321        9.187      535.151      373.318       84.408        0.109        0.050       33.982       12.510        0.136      333.053        2.117      861.888
03/18/2014  04:27:00      -15.552       16.212       -0.310       11.759       11.414        8.746      138.282      130.289       76.487        0.042        0.017       22.465        6.962        0.096      333.031        2.080      861.899
03/18/2014  04:28:00      -31.773       19.032       -5.647        9.608        5.437        7.730       92.317       29.564       59.758        0.079        0.009       37.037        3.996        0.012      333.089        2.177      861.898
03/18/2014  04:29:00       -9.035       16.263       -4.509       12.839        6.485        8.236      164.841       42.055       67.839        0.032        0.014       18.604        6.530        0.123      333.113        2.218      861.892
03/18/2014  04:30:00       22.366       27.887       -7.502       20.432       12.317        9.712      417.484      151.708       94.322        0.100        0.033       35.748       12.426        0.121      333.217        2.386      861.887
03/18/2014  04:31:00       22.507       23.508       10.064       12.187       13.884       10.670      148.534      192.753      113.857        0.081        0.023       32.545        7.603        0.055      333.156        2.285      861.891
03/18/2014  04:32:00       33.000       41.149       20.465       16.213        8.191        9.960      262.868       67.089       99.201        0.182        0.021       52.747        4.921        0.009      333.178        2.322      861.900
03/18/2014  04:33:00        7.652       35.982       -3.711       18.273       13.404       18.309      333.914      179.667      335.222        0.111        0.042       36.787       12.741        0.120      333.272        2.477      861.914
03/18/2014  04:34:00        2.167       12.600       -2.918       10.783       11.535        8.514      116.264      133.054       72.481        0.025        0.016       12.785        6.540        0.262      333.217        2.386      861.913
03/18/2014  04:35:00       -9.583        5.294        3.184       10.911       10.275       11.780      119.042      105.569      138.761        0.025        0.018       10.948        9.379        0.734      333.065        2.138      861.914
03/18/2014  04:36:00       14.276       37.557       -4.999        8.684        9.921        7.487       75.419       98.422       56.055        0.093        0.011       40.179        2.680        0.004      333.207        2.369      861.911
03/18/2014  04:37:00       25.458       25.376        4.965       20.821       16.809       13.661      433.502      282.547      186.629        0.111        0.045       35.945       11.849        0.109      333.169        2.305      861.899
03/18/2014  04:38:00       26.557       48.531       -5.719       11.449       12.091        8.039      131.085      146.189       64.618        0.172        0.017       55.322        6.447        0.014      333.118        2.222      861.902
03/18/2014  04:39:00       24.700       51.299       -6.333       10.068       24.839       11.652      101.375      616.989      135.769        0.207        0.043       56.936       13.928        0.060      333.124        2.232      861.918
03/18/2014  04:40:00       27.197       61.164      -10.398       13.228       16.227        7.662      174.985      263.319       58.707        0.254        0.025       66.938        7.147        0.011      333.136        2.250      861.938
03/18/2014  04:41:00       23.156       65.303       -8.734       11.685       16.400       13.044      136.532      268.972      170.157        0.273        0.029       69.286       10.651        0.024      333.098        2.192      861.933
03/18/2014  04:42:00       26.578       42.589       -6.124       13.098       19.855       11.729      171.566      394.204      137.574        0.163        0.035       50.201       11.009        0.048      333.067        2.141      861.916
03/18/2014  04:43:00       50.518       36.645        4.312       19.890       20.912       20.818      395.615      437.307      433.399        0.259        0.063       62.409       16.741        0.072      333.065        2.137      861.896
03/18/2014  04:44:00       40.809       29.573        0.802       13.737       14.079       12.599      188.697      198.212      158.729        0.154        0.027       50.398        8.428        0.028      333.053        2.119      861.870
03/18/2014  04:45:00       33.536       29.366       -2.857       16.227       12.329       13.912      263.305      151.998      193.532        0.130        0.030       44.576        8.018        0.032      333.052        2.116      861.835
03/18/2014  04:46:00       39.864       34.443        7.282       14.107       12.825       12.949      198.998      164.470      167.670        0.168        0.027       52.683        7.330        0.019      333.044        2.102      861.813
03/18/2014  04:47:00       56.273       41.922       -1.865       15.200       11.102       11.178      231.025      123.257      124.956        0.270        0.024       70.172        6.261        0.008      333.022        2.065      861.809
03/18/2014  04:48:00       29.910       39.775       -7.785       17.116       11.925       10.468      292.968      142.205      109.576        0.154        0.027       49.766        7.035        0.020      332.987        2.005      861.811
03/18/2014  04:49:00       24.500       62.841       -4.275       13.476       17.820       13.287      181.616      317.569      176.552        0.262        0.034       67.448       11.046        0.027      332.962        1.964      861.825
03/18/2014  04:50:00       14.587       92.218      -16.538       10.931       10.675        6.337      119.490      113.961       40.162        0.463        0.014       93.365        4.609        0.002      333.015        2.052      861.844
03/18/2014  04:51:00        1.491      107.119      -16.430        5.108       11.852        4.881       26.091      140.473       23.826        0.597        0.010      107.130        2.187        0.000      333.015        2.055      861.862
03/18/2014  04:52:00        0.136       86.679      -13.793        3.268       10.272        5.015       10.677      105.523       25.149        0.392        0.007       86.679        2.676        0.001      333.031        2.079      861.848
03/18/2014  04:53:00       -5.359       76.916      -16.213       11.204       10.558        8.514      125.522      111.477       72.484        0.326        0.015       77.102        4.632        0.004      333.157        2.289      861.825
03/18/2014  04:54:00       -2.672       68.717      -10.442       11.229       17.918       15.838      126.083      321.042      250.829        0.277        0.035       68.769       11.194        0.026      333.217        2.386      861.820
03/18/2014  04:55:00       13.962       73.379       -1.137       12.022       21.002       16.991      144.529      441.068      288.679        0.323        0.044       74.696       13.637        0.033      333.313        2.545      861.827
03/18/2014  04:56:00        4.705       72.606       -2.906       14.790       15.684       15.653      218.753      245.990      245.030        0.301        0.035       72.758       10.473        0.021      333.270        2.475      861.847
03/18/2014  04:57:00        2.063       91.626      -16.814       13.878       12.332        8.173      192.592      152.074       66.804        0.455        0.021       91.649        3.125        0.001      333.204        2.362      861.850
03/18/2014  04:58:00       -5.016       81.156      -15.659       10.794       11.446        5.791      116.518      131.006       33.531        0.357        0.014       81.311        4.401        0.003      333.226        2.400      861.848
03/18/2014  04:59:00       -6.254       91.572      -13.992       16.237       18.145       13.588      263.653      329.259      184.632        0.470        0.039       91.785       11.177        0.015      333.296        2.520      861.836
03/18/2014  05:00:00       12.951       93.839      -16.799       16.975       11.848        8.988      288.159      140.377       80.783        0.488        0.025       94.728        4.667        0.002      333.242        2.428      861.829
03/18/2014  05:01:00        7.868       61.761       -5.271       18.747       15.729        9.733      351.443      247.394       94.736        0.230        0.035       62.260       10.427        0.028      333.240        2.424      861.822
03/18/2014  05:02:00       32.025       48.320       -2.945       24.236       24.353       13.349      587.401      593.092      178.204        0.236        0.068       57.969        3.806        0.004      333.229        2.409      861.826
03/18/2014  05:03:00       20.913       12.862       -8.290       13.382       13.426       11.921      179.087      180.261      142.122        0.059        0.025       24.551        8.676        0.125      333.258        2.456      861.829
03/18/2014  05:04:00       23.697       21.104       -8.333       10.774       13.619        8.320      116.086      185.478       69.218        0.072        0.019       31.732        4.649        0.021      333.306        2.534      861.833
03/18/2014  05:05:00       22.932       21.758       12.470       21.991       17.235       21.113      483.585      297.050      445.777        0.119        0.061       31.612       11.642        0.136      333.302        2.528      861.830
03/18/2014  05:06:00        3.639       14.423       34.961       16.812       23.215        9.228      282.639      538.954       85.150        0.117        0.045       14.875        6.261        0.177      333.326        2.568      861.824
03/18/2014  05:07:00       36.943       41.135       32.973       15.794       15.453       19.548      249.441      238.796      382.106        0.251        0.044       55.289       11.718        0.045      333.322        2.560      861.817
03/18/2014  05:08:00       48.132       32.501        9.656       11.388       10.023       13.921      129.689      100.460      193.802        0.194        0.021       58.077        7.489        0.017      333.336        2.583      861.810
03/18/2014  05:09:00       41.191       33.578       20.348       16.268       16.422       10.294      264.633      269.676      105.969        0.194        0.032       53.143        5.317        0.010      333.306        2.533      861.797
03/18/2014  05:10:00       58.733       36.702       18.411       20.129       10.879       14.022      405.193      118.345      196.616        0.293        0.036       69.257        4.204        0.004      333.329        2.572      861.788
03/18/2014  05:11:00       76.310       50.228       22.973       17.001       12.888       14.858      289.038      166.092      220.755        0.477        0.034       91.357        5.984        0.004      333.364        2.629      861.772
03/18/2014  05:12:00       45.791       50.131       36.510       19.549       16.038       16.865      382.145      257.210      284.425        0.343        0.046       67.896       10.079        0.022      333.303        2.529      861.756
03/18/2014  05:13:00       53.693       41.870       26.773       17.243       11.745       17.114      297.337      137.939      292.896        0.304        0.036       68.089        8.747        0.017      333.295        2.515      861.758
03/18/2014  05:14:00       14.896       25.906       44.366       15.819       18.015        7.533      250.235      324.543       56.745        0.175        0.032       29.884        9.758        0.107      333.234        2.414      861.768
03/18/2014  05:15:00       10.675        5.919       21.220       12.587       27.210       15.708      158.433      740.373      246.741        0.087        0.057       12.206       18.539        2.307      333.299        2.522      861.784
03/18/2014  05:16:00       -5.129      -23.782       11.354       13.628       22.706       17.521      185.710      515.584      307.002        0.086        0.050       24.329       14.236        0.342      333.497        2.850      861.810
03/18/2014  05:17:00       26.325      -70.687       -8.967       30.011       36.041       26.044      900.654     1298.947      678.295        0.432        0.144       75.429       22.306        0.087      333.382        2.660      861.816
03/18/2014  05:18:00       34.669      -26.091       -1.822       31.961       31.325       28.062     1021.491      981.231      787.462        0.234        0.140       43.390       23.530        0.294      333.320        2.558      861.787
03/18/2014  05:19:00       48.324      -32.314       13.311       37.965       41.530       44.023     1441.314     1724.748     1938.047        0.433        0.255       58.132       37.185        0.409      333.314        2.547      861.746
03/18/2014  05:20:00       16.109        6.641       54.401       26.633       26.074       19.272      709.343      679.860      371.400        0.251        0.088       17.424       18.489        1.126      333.211        2.377      861.710
03/18/2014  05:21:00       16.929      -26.505       18.662       33.090       37.486       36.565     1094.962     1405.232     1337.008        0.259        0.192       31.450       21.604        0.472      333.231        2.410      861.678
03/18/2014  05:22:00       31.355      -51.486        5.875       29.005       47.225       29.223      841.280     2230.215      853.982        0.380        0.196       60.282       23.327        0.150      333.348        2.603      861.647
03/18/2014  05:23:00       43.097      -70.103       -3.162       26.979       49.655       29.576      727.857     2465.624      874.710        0.542        0.203       82.291       30.137        0.134      333.302        2.527      861.628
03/18/2014  05:24:00       62.425      -65.517       -7.617       31.137       29.659       24.191      969.518      879.639      585.195        0.534        0.122       90.495       21.236        0.055      333.283        2.496      861.613
03/18/2014  05:25:00       39.798      -41.593        0.061       36.767       44.342       36.436     1351.796     1966.200     1327.575        0.398        0.232       57.566       33.531        0.339      333.293        2.512      861.604
03/18/2014  05:26:00       67.527      -47.263       -1.639       29.992       41.398       25.408      899.509     1713.765      645.567        0.503        0.163       82.424       28.208        0.117      333.265        2.467      861.604
03/18/2014  05:27:00       52.895      -58.551       -5.976       34.624       30.037       26.620     1198.795      902.249      708.628        0.454        0.140       78.906       26.119        0.110      333.320        2.557      861.607
03/18/2014  05:28:00       24.115        1.601       24.995       24.327       19.105       19.214      591.783      364.990      369.180        0.127        0.066       24.168       12.947        0.287      333.229        2.405      861.607
03/18/2014  05:29:00       -2.930       18.393       33.591       16.810       24.945       12.976      282.562      622.274      168.380        0.127        0.054       18.625        8.976        0.232      333.190        2.340      861.614
03/18/2014  05:30:00       15.469        3.446       49.539       27.725       44.077       19.077      768.679     1942.759      363.914        0.289        0.154       15.848       17.586        1.231      333.243        2.430      861.611
03/18/2014  05:31:00       10.081      -15.179       27.539       17.715       26.072       16.874      313.817      679.764      284.749        0.118        0.064       18.222       12.673        0.484      333.308        2.538      861.592
03/18/2014  05:32:00       22.741      -23.982       19.116       26.184       32.752       28.687      685.583     1072.688      822.940        0.202        0.129       33.050       25.960        0.617      333.286        2.501      861.582
03/18/2014  05:33:00       47.858      -34.232       16.600       42.469       50.997       39.477     1803.616     2600.650     1558.398        0.485        0.298       58.841       40.563        0.475      333.239        2.422      861.584
03/18/2014  05:34:00       19.398        1.041       37.576       36.145       34.756       31.289     1306.447     1208.002      978.996        0.264        0.175       19.426       20.305        1.092      333.211        2.377      861.595
03/18/2014  05:35:00       21.812        9.968       36.723       30.838       32.710       28.128      951.005     1069.955      791.168        0.237        0.141       23.982       19.497        0.661      333.155        2.285      861.615
03/18/2014  05:36:00       35.776       19.278       39.753       26.998       38.997       27.476      728.874     1520.753      754.909        0.312        0.150       40.640       19.254        0.224      333.114        2.218      861.625
03/18/2014  05:37:00       46.316       38.111       32.387       13.667       12.484       15.091      186.787      155.844      227.726        0.261        0.029       59.980        9.821        0.027      333.087        2.173      861.627
03/18/2014  05:38:00       82.129       49.126        6.583       24.785       28.808       20.541      614.294      829.914      421.935        0.553        0.093       95.700       12.333        0.017      333.094        2.186      861.631
03/18/2014  05:39:00      112.096       83.021       21.845       29.071       22.380       26.655      845.112      500.883      710.467        1.100        0.103      139.492       22.267        0.025      333.055        2.120      861.646
03/18/2014  05:40:00       89.976       53.973        0.004       19.170       12.365       12.841      367.494      152.904      164.882        0.585        0.034      104.922        6.257        0.004      333.049        2.106      861.694
03/18/2014  05:41:00       43.616       32.764       -3.550       17.283       14.318       11.463      298.692      205.005      131.396        0.181        0.032       54.551        6.523        0.014      333.049        2.113      861.747
03/18/2014  05:42:00       26.581       50.851       -4.819       16.055       22.573       11.210      257.767      509.534      125.665        0.210        0.045       57.379        9.588        0.028      333.031        2.080      861.803
03/18/2014  05:43:00       31.666       66.339       -2.411       23.338       20.755       15.436      544.670      430.757      238.261        0.331        0.061       73.509       13.660        0.035      333.031        2.078      861.862
03/18/2014  05:44:00       25.220       75.828      -10.522       11.434       15.223        9.681      130.736      231.725       93.723        0.348        0.023       79.912        8.985        0.013      333.005        2.036      861.913
03/18/2014  05:45:00       20.586       41.402       -6.128       20.967       24.200       13.598      439.623      585.621      184.918        0.169        0.061       46.237        9.530        0.042      332.971        1.979      861.952
03/18/2014  05:46:00       22.185       48.684       -0.700       20.603       28.915       18.343      424.472      836.083      336.449        0.223        0.080       53.500       16.969        0.101      332.968        1.976      861.969
03/18/2014  05:47:00       14.570       39.729        4.396       18.135       28.389       16.146      328.889      805.939      260.698        0.160        0.070       42.317       19.302        0.208      332.968        1.975      861.973
03/18/2014  05:48:00       25.162       53.173       -9.475       11.525       23.617       14.548      132.814      557.784      211.635        0.223        0.045       58.826       16.284        0.077      332.946        1.938      861.966
03/18/2014  05:49:00       21.573       59.305       -9.100       10.997       16.935        6.532      120.941      286.807       42.662        0.226        0.023       63.107        6.430        0.010      332.927        1.906      861.951
03/18/2014  05:50:00       28.973       49.232       -7.597       11.357       15.519       10.188      128.973      240.850      103.794        0.190        0.024       57.124        7.838        0.019      332.937        1.924      861.952
03/18/2014  05:51:00       31.648       47.317       -2.988       10.841       15.611       11.162      117.538      243.714      124.594        0.187        0.024       56.925        9.517        0.028      332.926        1.908      861.959
03/18/2014  05:52:00       36.853       24.614       -1.316       16.063       11.697        9.661      258.029      136.831       93.343        0.123        0.024       44.317        7.042        0.025      332.929        1.911      861.954
03/18/2014  05:53:00       23.546       32.514       -1.172       16.548       15.256       10.920      273.823      232.735      119.244        0.112        0.031       40.145        9.251        0.053      332.930        1.914      861.949
03/18/2014  05:54:00       29.318       33.456       -6.324       11.148       16.731        8.829      124.282      279.922       77.946        0.125        0.024       44.485        6.717        0.023      332.958        1.958      861.934
03/18/2014  05:55:00       43.092       44.175       -6.574       14.137       13.046       12.642      199.851      170.201      159.831        0.219        0.026       61.711        7.780        0.016      332.963        1.966      861.930
03/18/2014  05:56:00       34.426       44.938      -13.721        8.316        6.147        7.404       69.151       37.785       54.823        0.178        0.008       56.609        5.139        0.008      332.964        1.966      861.927
03/18/2014  05:57:00       17.486       58.534       -8.021       14.061       21.185        9.253      197.700      448.795       85.611        0.226        0.037       61.090       11.303        0.034      332.988        2.008      861.930
03/18/2014  05:58:00      -16.689      104.293      -15.766       30.401       16.725       12.949      924.238      279.712      167.678        0.639        0.069      105.620        8.525        0.007      333.198        2.356      861.922
03/18/2014  05:59:00       14.170      102.967      -18.934       23.367       29.134       14.477      546.013      848.797      209.578        0.638        0.080      103.937       14.733        0.020      333.078        2.159      861.912
03/18/2014  06:00:00        7.060       87.736      -16.385       17.118       15.008        9.600      293.030      225.233       92.168        0.431        0.031       88.020        7.142        0.007      333.147        2.271      861.905
03/18/2014  06:01:00       28.333       66.637       -8.265       41.861       37.027       18.653     1752.351     1371.000      347.949        0.439        0.174       72.410       21.028        0.084      333.076        2.156      861.898
03/18/2014  06:02:00       10.679       98.167      -15.107       21.443       22.329       16.039      459.810      498.564      257.262        0.560        0.061       98.746       14.059        0.020      333.110        2.210      861.883
03/18/2014  06:03:00       41.176       46.265        4.098       30.967       22.503       18.884      958.945      506.396      356.601        0.284        0.091       61.935       15.064        0.059      333.058        2.126      861.877
03/18/2014  06:04:00       19.128       56.660       -8.546       14.782       16.154       12.164      218.498      260.945      147.957        0.214        0.031       59.801        8.297        0.019      333.042        2.098      861.869
03/18/2014  06:05:00       67.456       38.079       10.289       30.610       22.799       19.307      936.944      519.796      372.761        0.397        0.091       77.462       12.250        0.025      333.079        2.160      861.852
03/18/2014  06:06:00       43.389       49.815        0.255       27.598       20.068       16.893      761.636      402.724      285.365        0.291        0.072       66.062       13.204        0.040      333.058        2.125      861.840
03/18/2014  06:07:00       42.467       36.919        4.760       28.124       22.324       16.590      790.973      498.339      275.235        0.238        0.078       56.271       15.364        0.075      333.055        2.120      861.836
03/18/2014  06:08:00       34.788       65.992       -8.427       27.074       31.891       18.923      732.988     1017.032      358.077        0.387        0.105       74.599       15.799        0.045      333.082        2.164      861.829
03/18/2014  06:09:00       33.938      100.667       -7.981       25.581       40.478       24.707      654.406     1638.462      610.418        0.713        0.145      106.234       21.520        0.041      333.083        2.167      861.848
03/18/2014  06:10:00       25.154       88.025       -9.677       26.936       28.172       21.791      725.551      793.669      474.841        0.523        0.100       91.549       20.026        0.048      333.109        2.209      861.862
03/18/2014  06:11:00       31.572       76.427       -2.826       24.952       46.599       27.878      622.618     2171.462      777.199        0.521        0.179       82.691       29.076        0.124      333.114        2.218      861.882
03/18/2014  06:12:00       35.498       94.871       -4.914       25.231       34.357       24.039      636.592     1180.410      577.889        0.634        0.120      101.294       20.698        0.042      333.129        2.243      861.896
03/18/2014  06:13:00       30.443       80.577       -5.525       22.920       31.170       25.588      525.339      971.545      654.743        0.480        0.108       86.136       20.768        0.058      333.125        2.236      861.900
03/18/2014  06:14:00       20.249       54.396        1.932       19.612       28.231       21.395      384.618      796.977      457.735        0.251        0.082       58.042       18.689        0.104      333.124        2.233      861.884
03/18/2014  06:15:00       41.878       56.370       -5.080       22.394       31.187       21.146      501.482      972.625      447.141        0.344        0.096       70.224       18.439        0.069      333.115        2.218      861.845
03/18/2014  06:16:00       65.195       48.081        2.283       33.074       20.311       16.965     1093.922      412.524      287.822        0.418        0.090       81.007        9.892        0.015      333.132        2.248      861.808
03/18/2014  06:17:00      102.790       39.260        2.938       32.734       20.012       19.971     1071.541      400.492      398.839        0.699        0.094      110.033       13.897        0.016      333.146        2.269      861.785
03/18/2014  06:18:00       67.652       47.341       -1.145       28.904       20.878       21.721      835.424      435.877      471.796        0.428        0.087       82.571       13.750        0.028      333.123        2.233      861.775
03/18/2014  06:19:00       47.160       27.833        6.980       17.719       22.936       15.903      313.950      526.054      252.921        0.207        0.055       54.761       12.129        0.049      333.125        2.233      861.774
03/18/2014  06:20:00       45.320       37.630        5.009       21.385       25.101       19.001      457.312      630.047      361.057        0.247        0.072       58.906       17.785        0.091      333.122        2.230      861.783
03/18/2014  06:21:00       61.265       42.743        1.949       22.338       13.929       14.956      498.983      194.008      223.682        0.325        0.046       74.702       11.511        0.024      333.115        2.218      861.788
03/18/2014  06:22:00       38.520       24.517        2.719       16.639       16.195       12.912      276.855      262.286      166.712        0.140        0.035       45.660        3.717        0.007      333.120        2.226      861.797
03/18/2014  06:23:00       76.940       46.985       14.767       21.328       15.589       14.930      454.888      243.013      222.900        0.463        0.046       90.151       11.192        0.015      333.196        2.351      861.782
03/18/2014  06:24:00       80.780       58.555       24.567       19.284       16.928       22.657      371.864      286.546      513.354        0.586        0.059       99.770       11.012        0.012      333.225        2.400      861.763
03/18/2014  06:25:00      105.500       51.155        5.437       24.032       17.660       17.665      577.529      311.884      312.035        0.749        0.060      117.248       11.300        0.009      333.209        2.373      861.735
03/18/2014  06:26:00       75.532       24.859        8.355       28.787       21.051       17.846      828.687      443.131      318.472        0.399        0.080       79.518       11.544        0.021      333.184        2.330      861.706
03/18/2014  06:27:00       74.392       37.173       19.375       24.872       20.116       22.605      618.610      404.653      510.994        0.441        0.077       83.163       15.160        0.033      333.147        2.270      861.703
03/18/2014  06:28:00       61.432       51.593       23.097       24.557       13.087       18.164      603.068      171.277      329.944        0.404        0.055       80.223       13.111        0.027      333.151        2.276      861.693
03/18/2014  06:29:00       95.219       56.113        4.702        8.274        9.818       14.278       68.456       96.398      203.852        0.630        0.018      110.523        5.088        0.002      333.158        2.288      861.692
03/18/2014  06:30:00       68.976       41.864       -0.526       25.108       19.973       14.285      630.397      398.922      204.064        0.387        0.062       80.687       10.597        0.017      333.147        2.270      861.699
03/18/2014  06:31:00       50.813       39.241       11.068       26.685       23.572       16.933      712.080      555.660      286.739        0.290        0.078       64.201       10.788        0.028      333.181        2.325      861.707
03/18/2014  06:32:00       74.765       35.883       16.370       28.626       20.131       18.785      819.440      405.266      352.865        0.436        0.079       82.930       16.058        0.037      333.199        2.358      861.722
03/18/2014  06:33:00       66.343       45.008        7.818       24.259       17.587       15.406      588.484      309.299      237.348        0.381        0.057       80.169       12.723        0.025      333.180        2.326      861.725
03/18/2014  06:34:00       39.549       22.693        7.903       17.117       16.081       17.420      293.002      258.602      303.467        0.150        0.043       45.597        8.775        0.037      333.161        2.294      861.728
03/18/2014  06:35:00       34.317       33.126        2.789       18.901       15.305        9.800      357.254      234.256       96.046        0.149        0.034       47.697        7.207        0.023      333.159        2.288      861.729
03/18/2014  06:36:00       29.115       33.680        0.436       14.644       15.931       13.280      214.452      253.794      176.354        0.131        0.032       44.519       10.251        0.053      333.143        2.262      861.740
03/18/2014  06:37:00       25.501       47.833       -4.651       18.312       18.462       15.487      335.334      340.844      239.849        0.194        0.046       54.206        8.725        0.026      333.128        2.239      861.761
03/18/2014  06:38:00       25.446       62.627       -6.843       20.739       25.547       15.124      430.115      652.634      228.747        0.296        0.066       67.599       12.193        0.033      333.186        2.334      861.793
03/18/2014  06:39:00       24.599       56.935       -5.744       18.260       31.373       16.469      333.442      984.269      271.217        0.273        0.079       62.022       17.918        0.083      333.178        2.322      861.816
03/18/2014  06:40:00       20.731       29.337       -5.078       16.867       14.968       11.538      284.479      224.044      133.135        0.098        0.032       35.923        8.873        0.061      333.144        2.264      861.836
03/18/2014  06:41:00        6.990       52.044       -5.343       24.515       24.647        9.046      601.002      607.475       81.834        0.204        0.065       52.511        5.941        0.013      333.219        2.389      861.840
03/18/2014  06:42:00       30.903       44.688       -0.259       18.842       23.555       18.528      355.005      554.844      343.296        0.210        0.063       54.333       14.292        0.069      333.207        2.370      861.839
03/18/2014  06:43:00       31.637       59.682       -8.502       20.453       25.288       16.790      418.326      639.477      281.914        0.299        0.067       67.549       15.143        0.050      333.182        2.328      861.835
03/18/2014  06:44:00       18.294       64.971       -7.492       17.628       27.909       18.077      310.761      778.937      326.768        0.301        0.071       67.498       18.400        0.074      333.151        2.275      861.829
03/18/2014  06:45:00       14.376      107.408      -14.729       15.362       23.494       16.611      235.995      551.971      275.914        0.651        0.053      108.366       13.906        0.016      333.172        2.311      861.823
03/18/2014  06:46:00       -0.005      122.122      -15.186       15.710       20.789        7.056      246.815      432.165       49.785        0.794        0.036      122.122        5.667        0.002      333.180        2.327      861.813
03/18/2014  06:47:00        0.612      108.713      -16.502       14.453       17.962        9.381      208.875      322.633       88.006        0.636        0.031      108.715        5.206        0.002      333.194        2.348      861.819
03/18/2014  06:48:00       19.916      120.726      -17.385       16.263       20.740       11.782      264.484      430.166      138.814        0.805        0.042      122.358        9.065        0.005      333.168        2.304      861.812
03/18/2014  06:49:00       23.694      126.643      -21.817       18.204       29.337       12.108      331.394      860.666      146.610        0.921        0.067      128.840       10.707        0.007      333.209        2.373      861.801
03/18/2014  06:50:00       22.112       84.550       -9.937       19.365       28.968       15.201      375.014      839.142      231.079        0.459        0.072       87.394       17.055        0.038      333.174        2.314      861.800
03/18/2014  06:51:00       29.848       82.267       -6.910       20.509       35.458       19.442      420.637     1257.289      377.982        0.488        0.103       87.515       20.100        0.053      333.171        2.311      861.793
03/18/2014  06:52:00       14.739       92.065      -11.783       18.877       18.180       14.756      356.323      330.499      217.727        0.487        0.045       93.237       10.426        0.013      333.179        2.323      861.789
03/18/2014  06:53:00       24.575       73.188       -7.061       26.426       39.560       19.755      698.325     1565.001      390.258        0.433        0.133       77.203       23.232        0.091      333.152        2.279      861.788
03/18/2014  06:54:00        9.306       55.388       -2.165       21.422       26.491       17.197      458.894      701.787      295.753        0.231        0.073       56.164       15.938        0.081      333.119        2.224      861.786
03/18/2014  06:55:00       20.134      125.466      -19.000       17.226       26.096       12.555      296.719      681.001      157.632        0.882        0.057      127.071       11.147        0.008      333.126        2.235      861.777
03/18/2014  06:56:00       15.377       99.494       -9.923       19.352       25.794       19.909      374.490      665.315      396.387        0.583        0.072      100.675       16.569        0.027      333.106        2.204      861.780
03/18/2014  06:57:00       31.473       95.346       -4.835       30.248       39.438       26.995      914.931     1555.380      728.723        0.665        0.160      100.406       23.786        0.056      333.094        2.185      861.792
03/18/2014  06:58:00       28.605       79.719      -11.713       35.791       30.582       21.068     1280.979      935.267      443.853        0.498        0.133       84.695       20.996        0.061      333.089        2.177      861.820
03/18/2014  06:59:00       27.170       89.972       -9.065       33.862       45.896       23.614     1146.615     2106.400      557.607        0.636        0.191       93.985       25.755        0.075      333.102        2.198      861.852
03/18/2014  07:00:00       33.135       75.451       -2.219       39.880       47.644       30.484     1590.420     2269.912      929.244        0.579        0.239       82.406       25.789        0.098      333.094        2.185      861.884
03/18/2014  07:01:00       41.213       71.675       -4.385       40.178       43.144       33.905     1614.274     1861.394     1149.524        0.574        0.231       82.679       28.300        0.117      333.077        2.157      861.909
03/18/2014  07:02:00       45.424       73.715        0.160       38.466       46.350       30.014     1479.659     2148.334      900.855        0.601        0.226       86.587       28.781        0.110      333.067        2.140      861.919
03/18/2014  07:03:00       41.678       65.192        8.011       45.995       32.823       35.197     2115.517     1077.368     1238.854        0.524        0.222       77.376       22.886        0.087      333.046        2.106      861.928
03/18/2014  07:04:00       42.629       68.311        6.698       39.868       42.152       35.005     1589.496     1776.793     1225.346        0.556        0.230       80.521       31.267        0.151      333.026        2.071      861.936
03/18/2014  07:05:00       26.175       92.072      -12.722       37.544       40.287       25.856     1409.566     1623.011      668.538        0.651        0.185       95.721       24.225        0.064      333.014        2.053      861.940
03/18/2014  07:06:00       27.358       61.450        3.520       37.684       44.765       27.452     1420.097     2003.935      753.633        0.436        0.209       67.264       24.181        0.129      333.030        2.077      861.941
03/18/2014  07:07:00       23.791      120.716        1.540       36.602       60.104       40.973     1339.703     3612.450     1678.824        1.088        0.332      123.038       43.069        0.123      333.045        2.106      861.946
03/18/2014  07:08:00       59.884       63.829        3.306       38.740       46.390       31.983     1500.756     2152.060     1022.915        0.617        0.234       87.523       30.161        0.119      333.032        2.083      861.970
03/18/2014  07:09:00       53.166       63.129       -1.752       39.333       35.513       27.657     1547.110     1261.148      764.890        0.519        0.179       82.535       20.618        0.062      333.032        2.082      861.990
03/18/2014  07:10:00       40.111       61.008        3.803       46.181       57.645       30.617     2132.670     3322.919      937.418        0.587        0.320       73.013       29.963        0.168      333.011        2.046      862.024
03/18/2014  07:11:00       28.413      129.102       -8.625       36.297       62.849       43.538     1317.494     3950.045     1895.557        1.235        0.358      132.192       43.708        0.109      332.991        2.013      862.056
03/18/2014  07:12:00       25.253       81.393       -8.259       40.489       44.804       38.025     1639.377     2007.422     1445.925        0.621        0.255       85.220       26.555        0.097      332.974        1.985      862.093
03/18/2014  07:13:00        6.325      102.125       -6.464       35.660      109.275       32.296     1271.663    11940.971     1043.004        1.238        0.713      102.321       51.029        0.249      333.002        2.030      862.120
03/18/2014  07:14:00       28.260      203.892      -25.612       39.389       46.308       25.925     1551.528     2144.450      672.092        2.370        0.218      205.841       22.545        0.012      333.022        2.064      862.148
03/18/2014  07:15:00        9.269      174.305      -16.553       32.401       60.604       34.450     1049.848     3672.796     1186.773        1.832        0.295      174.551       32.632        0.035      333.030        2.077      862.163
03/18/2014  07:16:00       36.330      107.728        0.339       38.832       80.745       41.364     1507.908     6519.744     1711.018        1.133        0.487      113.689       48.341        0.181      333.015        2.053      862.160
03/18/2014  07:17:00       21.926      164.216      -19.908       46.586       96.739       38.388     2170.274     9358.369     1473.635        2.042        0.650      165.673       51.967        0.098      333.049        2.106      862.147
03/18/2014  07:18:00       13.096      139.095       -9.616       48.953       78.953       44.434     2396.415     6233.514     1974.340        1.511        0.530      139.711       39.611        0.080      333.018        2.057      862.140
03/18/2014  07:19:00       41.721      115.894       -1.357       52.637       64.327       47.414     2770.610     4137.992     2248.090        1.216        0.458      123.175       39.574        0.103      333.002        2.032      862.137
03/18/2014  07:20:00       33.757      182.898      -14.735       53.132       87.173       51.496     2822.973     7599.160     2651.865        2.394        0.654      185.987       55.722        0.090      333.030        2.075      862.132
03/18/2014  07:21:00       36.429      138.349      -10.357       49.452       91.124       46.735     2445.459     8303.500     2184.122        1.675        0.647      143.064       50.841        0.126      332.994        2.017      862.129
03/18/2014  07:22:00       45.466      137.505        4.332       80.012       86.112       53.414     6401.932     7415.217     2853.083        1.883        0.834      144.827       51.139        0.125      332.987        2.006      862.136
03/18/2014  07:23:00       41.206       68.315       30.627       71.918       62.086       54.245     5172.145     3854.639     2942.568        0.963        0.598       79.780       36.844        0.213      332.970        1.977      862.142
03/18/2014  07:24:00       21.716      102.636      -10.955       43.914       52.457       33.924     1928.463     2751.715     1150.852        0.848        0.292      104.908       28.438        0.073      332.968        1.975      862.152
03/18/2014  07:25:00       40.119      126.743      -12.207       50.764       50.777       38.611     2576.940     2578.273     1490.834        1.223        0.332      132.941       33.641        0.064      332.966        1.972      862.159
03/18/2014  07:26:00       28.188       95.249        0.685       47.654       79.626       37.228     2270.889     6340.252     1385.955        0.993        0.500       99.333       35.682        0.129      332.955        1.953      862.159
03/18/2014  07:27:00       39.730       77.588        6.686       63.632       56.928       35.001     4049.050     3240.763     1225.045        0.808        0.426       87.168       25.510        0.086      332.889        1.845      862.149
03/18/2014  07:28:00       40.034       65.427        3.394       45.383       53.999       34.029     2059.621     2915.879     1157.946        0.601        0.307       76.703       25.361        0.109      332.902        1.868      862.158
03/18/2014  07:29:00       63.229      107.927       -0.665       50.974       62.625       44.973     2598.327     3921.860     2022.553        1.209        0.427      125.084       39.551        0.100      332.880        1.832      862.140
03/18/2014  07:30:00       61.497      100.124       10.577       75.934       83.198       57.953     5765.916     6921.851     3358.569        1.498        0.802      117.502       53.026        0.204      332.864        1.804      862.125
03/18/2014  07:31:00       44.535      159.965       -9.714       52.661       71.069       47.995     2773.155     5050.872     2303.568        1.889        0.506      166.048       31.819        0.037      332.847        1.776      862.122
03/18/2014  07:32:00       84.224       81.050        0.305       66.516       53.189       45.707     4424.417     2829.036     2089.090        1.150        0.467      116.888       37.558        0.103      332.875        1.824      862.134
03/18/2014  07:33:00       61.179       86.734       -1.428       46.260       47.034       30.339     2139.952     2212.213      920.467        0.827        0.264      106.140       28.393        0.072      332.903        1.869      862.148
03/18/2014  07:34:00       55.798       70.716       -0.643       41.917       45.131       35.019     1756.999     2036.838     1226.308        0.657        0.251       90.079       26.924        0.089      332.956        1.955      862.164
03/18/2014  07:35:00       64.143       73.427        2.622       50.539       33.776       26.298     2554.176     1140.828      691.605        0.695        0.219       97.498       20.031        0.042      332.971        1.980      862.170
03/18/2014  07:36:00       86.073       90.477       14.641       60.843       54.630       47.700     3701.907     2984.446     2275.266        1.238        0.448      124.879       33.086        0.070      333.016        2.055      862.192
03/18/2014  07:37:00       96.286       59.311       13.672       46.861       35.311       35.192     2195.977     1246.847     1238.468        0.883        0.234      113.088       17.179        0.023      333.012        2.048      862.210
03/18/2014  07:38:00       83.435       86.059       -6.985       55.404       52.304       33.234     3069.563     2735.706     1104.528        1.066        0.345      119.864       26.164        0.048      333.054        2.119      862.224
03/18/2014  07:39:00      142.873       77.932       25.850       82.272       56.425       49.409     6768.722     3183.823     2441.270        1.977        0.620      162.745       25.256        0.024      333.052        2.115      862.239
03/18/2014  07:40:00      155.164      112.834       12.489       75.020       45.278       45.791     5627.971     2050.122     2096.790        2.337        0.489      191.853       33.019        0.030      333.059        2.124      862.253
03/18/2014  07:41:00      174.549      103.501       17.289       47.592       38.951       36.252     2264.955     1517.208     1314.173        2.329        0.255      202.928       14.945        0.005      333.077        2.156      862.249
03/18/2014  07:42:00      130.082      101.160       12.818       73.544       56.152       48.826     5408.673     3153.083     2383.990        1.913        0.547      164.787       24.067        0.021      333.103        2.199      862.247
03/18/2014  07:43:00      119.873       87.442       -7.979       63.657       44.941       38.563     4052.227     2019.695     1487.115        1.482        0.378      148.376       28.393        0.037      333.148        2.271      862.251
03/18/2014  07:44:00       65.327       79.379        4.223       64.864       54.909       42.672     4207.374     3015.040     1820.896        0.981        0.452      102.804       34.737        0.114      333.143        2.265      862.252
03/18/2014  07:45:00       78.996       62.865       21.959       84.462       46.582       43.219     7133.793     2169.870     1867.906        1.092        0.559      100.958       27.595        0.075      333.197        2.352      862.248
03/18/2014  07:46:00      143.025      119.004       -3.086       85.015       58.869       48.965     7227.504     3465.615     2397.559        2.386        0.655      186.060       37.400        0.040      333.120        2.226      862.250
03/18/2014  07:47:00       60.370       75.419       15.195       51.077       54.457       37.267     2608.848     2965.586     1388.836        0.826        0.348       96.605       30.455        0.099      333.189        2.341      862.241
03/18/2014  07:48:00       61.933       26.979        2.288       53.743       28.675       28.818     2888.269      822.233      830.470        0.455        0.227       67.554       17.151        0.064      333.186        2.336      862.242
03/18/2014  07:49:00      149.862       76.261       19.765       77.533       65.492       34.693     6011.355     4289.191     1203.604        2.008        0.575      168.150       19.511        0.013      333.214        2.380      862.256
03/18/2014  07:50:00      128.561       85.938        5.649       48.429       35.142       29.846     2345.412     1234.963      890.782        1.421        0.224      154.639       19.338        0.016      333.136        2.252      862.255
03/18/2014  07:51:00      104.213       96.147       14.065       60.125       45.493       44.239     3614.991     2069.636     1957.097        1.397        0.382      141.791       31.185        0.048      333.193        2.346      862.258
03/18/2014  07:52:00      112.990       39.666       15.245       50.932       39.363       32.856     2594.118     1549.457     1079.525        0.990        0.261      119.751       25.083        0.044      333.303        2.530      862.262
03/18/2014  07:53:00      133.882       66.474        4.636       57.108       45.591       39.813     3261.319     2078.527     1585.089        1.464        0.346      149.476       31.459        0.044      333.233        2.414      862.263
03/18/2014  07:54:00      131.141       71.266       10.065       55.130       38.538       31.262     3039.340     1485.180      977.316        1.394        0.275      149.254       23.135        0.024      333.213        2.379      862.285
03/18/2014  07:55:00      124.343       73.748       11.840       57.480       35.961       28.893     3303.903     1293.219      834.777        1.323        0.272      144.568        7.530        0.003      333.282        2.494      862.306
03/18/2014  07:56:00       89.904       42.878        9.404       40.368       27.937       30.778     1629.589      780.485      947.307        0.668        0.168       99.606       18.846        0.036      333.358        2.620      862.356
03/18/2014  07:57:00      136.578       57.252       32.290       89.926       61.185       39.813     8086.642     3743.554     1585.077        1.819        0.671      148.092       30.106        0.041      333.362        2.625      862.400
03/18/2014  07:58:00       83.146       44.126       21.422       52.341       37.344       31.667     2739.545     1394.550     1002.798        0.723        0.257       94.129       19.255        0.042      333.430        2.740      862.433
03/18/2014  07:59:00      106.465       64.678       15.481       54.013       44.513       44.064     2917.442     1981.379     1941.597        1.130        0.342      124.571       21.756        0.031      333.416        2.715      862.447
03/18/2014  08:00:00      106.681       30.000       21.232       79.644       55.717       39.782     6343.146     3104.412     1582.596        1.188        0.552      110.819       39.426        0.127      333.475        2.812      862.445
03/18/2014  08:01:00      169.640       81.413       25.380       63.557       54.831       44.335     4039.482     3006.399     1965.558        2.253        0.451      188.164       28.233        0.023      333.421        2.723      862.431
03/18/2014  08:02:00      121.328      138.945        3.960       77.942       59.041       54.888     6075.007     3485.884     3012.727        2.331        0.629      184.462       45.948        0.062      333.389        2.670      862.424
03/18/2014  08:03:00      125.712       60.856       26.016       68.865       42.109       40.956     4742.409     1773.183     1677.407        1.419        0.410      139.667       39.792        0.081      333.542        2.923      862.407
03/18/2014  08:04:00       72.712       34.582       54.377       76.925       63.181       55.690     5917.531     3991.863     3101.327        1.122        0.651       80.517       41.555        0.266      333.590        3.004      862.407
03/18/2014  08:05:00       98.435       44.230       24.251       58.030       34.925       34.720     3367.461     1219.766     1205.510        0.901        0.290      107.915       27.329        0.064      333.614        3.044      862.424
03/18/2014  08:06:00      121.586       74.406       25.073       54.280       45.136       38.061     2946.345     2037.216     1448.608        1.369        0.322      142.546       21.007        0.022      333.595        3.012      862.435
03/18/2014  08:07:00      184.343       93.745       30.806       53.290       48.225       45.064     2839.872     2325.652     2030.733        2.546        0.360      206.810       25.040        0.015      333.489        2.833      862.450
03/18/2014  08:08:00      105.649       69.588        5.782       64.465       47.972       45.116     4155.762     2301.288     2035.473        1.226        0.425      126.508       40.258        0.101      333.638        3.083      862.466
03/18/2014  08:09:00      161.252       62.458       21.660       58.816       45.361       46.978     3459.294     2057.610     2206.925        1.905        0.386      172.925       34.050        0.039      333.648        3.099      862.493
03/18/2014  08:10:00       46.470       43.869       38.960       72.971       48.019       38.662     5324.818     2305.798     1494.753        0.736        0.456       63.906       26.371        0.170      333.792        3.340      862.504
03/18/2014  08:11:00       88.536       48.459        5.049       59.924       44.758       39.062     3590.892     2003.240     1525.815        0.866        0.356      100.930       24.758        0.060      333.786        3.329      862.529
03/18/2014  08:12:00       91.470       77.626       13.253       68.920       35.054       44.516     4749.928     1228.780     1981.660        1.126        0.398      119.969       26.224        0.048      333.856        3.446      862.536
03/18/2014  08:13:00      129.715       91.413       10.465       71.338       55.774       46.394     5089.085     3110.735     2152.419        1.782        0.518      158.689       27.901        0.031      333.681        3.154      862.540
03/18/2014  08:14:00      138.576       93.731       26.311       84.298       57.061       48.897     7106.232     3255.944     2390.920        2.071        0.638      167.298       29.180        0.030      333.701        3.188      862.531
03/18/2014  08:15:00      141.225      109.624        2.472       69.313       46.690       47.397     4804.304     2179.994     2246.519        2.060        0.462      178.779       32.284        0.033      333.651        3.103      862.538
03/18/2014  08:16:00      107.617       90.060       -1.325       80.047       66.529       47.531     6407.523     4426.136     2259.190        1.639        0.655      140.329       39.600        0.080      333.722        3.222      862.538
03/18/2014  08:17:00      129.288       84.171        9.095       80.698       68.366       53.902     6512.088     4673.867     2905.445        1.898        0.705      154.273       35.181        0.052      333.824        3.391      862.564
03/18/2014  08:18:00      129.137       68.838       -6.785       61.798       43.240       41.074     3818.966     1869.688     1687.049        1.442        0.369      146.339       23.272        0.025      333.863        3.457      862.593
03/18/2014  08:19:00       99.419       79.400       22.791      104.473       80.283       54.121    10914.526     6445.322     2929.062        1.849        1.014      127.234       29.720        0.055      333.839        3.416      862.616
03/18/2014  08:20:00      184.566      138.295       17.227       79.854       55.665       54.861     6376.738     3098.568     3009.689        3.298        0.624      230.630       35.174        0.023      333.668        3.129      862.628
03/18/2014  08:21:00      155.103       89.605       27.236       71.527       59.589       51.489     5116.134     3550.839     2651.129        2.207        0.566      179.126       37.302        0.043      333.786        3.327      862.645
03/18/2014  08:22:00      225.366      150.656       31.840       70.409       54.903       50.388     4957.390     3014.316     2538.972        4.250        0.526      271.085       33.177        0.015      333.633        3.071      862.643
03/18/2014  08:23:00      132.903       94.077       37.931       75.002       62.210       47.135     5625.256     3870.032     2221.727        1.983        0.586      162.830       32.353        0.039      333.814        3.374      862.621
03/18/2014  08:24:00      134.653       95.598       21.443       64.722       51.765       44.190     4188.896     2679.600     1952.775        1.827        0.441      165.138       28.069        0.029      333.855        3.443      862.611
03/18/2014  08:25:00      130.923       82.750       32.808       64.683       50.513       50.583     4183.835     2551.559     2558.649        1.718        0.465      154.882       36.797        0.056      333.963        3.621      862.612
03/18/2014  08:26:00      127.376       73.516       24.659       63.563       50.868       43.112     4040.271     2587.542     1858.649        1.536        0.424      147.069       28.431        0.037      333.840        3.417      862.618
03/18/2014  08:27:00      187.904      118.108       29.467       68.799       66.505       41.314     4733.271     4422.973     1706.865        3.049        0.543      221.940       24.627        0.012      333.844        3.421      862.634
03/18/2014  08:28:00      191.535      107.274       29.816       96.183       60.846       57.794     9251.193     3702.280     3340.135        3.268        0.815      219.530       30.772        0.020      333.911        3.533      862.640
03/18/2014  08:29:00      179.409      123.637       14.600      106.092       84.171       58.034    11255.574     7084.698     3367.978        3.469        1.085      217.885       32.681        0.022      333.911        3.534      862.650
03/18/2014  08:30:00      124.924       72.047       21.759       89.754       76.315       45.167     8055.864     5824.026     2040.087        1.859        0.796      144.211       25.866        0.032      334.014        3.706      862.653
03/18/2014  08:31:00      145.253       84.023        8.668       63.069       52.612       38.885     3977.746     2767.971     1512.059        1.824        0.413      167.804       32.511        0.038      334.069        3.795      862.651
03/18/2014  08:32:00      127.681      107.495       31.149       83.832       58.343       65.278     7027.821     3403.959     4261.176        2.176        0.735      166.906       51.571        0.095      334.059        3.780      862.648
03/18/2014  08:33:00       95.655       50.527       24.639      141.020       79.011       46.672    19886.645     6242.702     2178.307        2.030        1.415      108.180       43.423        0.161      334.123        3.887      862.636
03/18/2014  08:34:00      172.364       88.327       32.130      109.753       94.601       62.633    12045.640     8949.267     3922.851        3.173        1.246      193.678       49.798        0.066      334.034        3.739      862.635
03/18/2014  08:35:00      172.849      132.135       39.636      114.681       94.324       63.328    13151.816     8896.955     4010.402        3.748        1.303      217.569       35.395        0.026      334.055        3.773      862.636
03/18/2014  08:36:00      183.391      126.024       34.221       97.373       60.535       48.339     9481.565     3664.500     2336.681        3.308        0.774      222.518       35.472        0.025      334.032        3.734      862.632
03/18/2014  08:37:00      148.729       97.234       58.713       77.423       64.119       76.289     5994.363     4111.290     5819.942        2.547        0.796      177.692       48.461        0.074      334.106        3.858      862.648
03/18/2014  08:38:00      128.447      101.784       71.918      113.404       87.449       75.380    12860.368     7647.354     5682.199        2.911        1.309      163.886       73.264        0.200      334.137        3.909      862.648
03/18/2014  08:39:00       71.520      104.450       91.555      112.050       68.865       67.618    12555.215     4742.418     4572.183        2.313        1.093      126.590       76.183        0.362      334.246        4.091      862.650
03/18/2014  08:40:00      197.625      109.577       23.441       87.668       90.489       61.722     7685.648     8188.271     3809.663        3.564        0.984      225.970       34.152        0.023      334.002        3.683      862.679
03/18/2014  08:41:00      225.071      147.503       21.914      112.103       75.387       70.884    12567.023     5683.248     5024.577        4.808        1.164      269.098       35.526        0.017      333.940        3.581      862.678
03/18/2014  08:42:00      140.675      119.088       32.401       97.511       76.274       60.838     9508.356     5817.730     3701.227        2.702        0.951      184.314       31.717        0.030      334.112        3.867      862.692
03/18/2014  08:43:00      142.666      112.536       14.782      106.001       95.638       65.757    11236.122     9146.568     4324.044        2.897        1.235      181.709       47.077        0.067      334.171        3.966      862.702
03/18/2014  08:44:00      288.507      173.942       32.894       75.993       65.085       64.215     5774.915     4236.012     4123.558        6.435        0.707      336.886       28.765        0.007      333.828        3.394      862.697
03/18/2014  08:45:00      178.489      120.176        2.698      104.448       80.172       58.676    10909.304     6427.481     3442.892        3.354        1.039      215.175       57.748        0.072      333.946        3.592      862.695
03/18/2014  08:46:00      132.868       75.235       20.642       87.715       65.295       52.107     7693.938     4263.372     2715.139        1.920        0.734      152.690       14.521        0.009      334.219        4.045      862.684
03/18/2014  08:47:00      180.565      134.460       36.443       77.396       59.839       61.249     5990.068     3580.756     3751.418        3.266        0.666      225.129       46.514        0.043      334.031        3.731      862.686
03/18/2014  08:48:00      304.684      178.959       32.854      103.733       89.455       64.918    10760.484     8002.136     4214.394        7.445        1.149      353.353       45.215        0.016      333.922        3.552      862.685
03/18/2014  08:49:00      178.586      119.479       16.324       88.212       70.243       55.117     7781.421     4934.033     3037.915        3.109        0.788      214.867       29.883        0.019      334.063        3.787      862.725
03/18/2014  08:50:00      210.509       97.168       47.520       86.420       62.148       54.641     7468.437     3862.407     2985.660        3.516        0.716      231.852       44.303        0.037      334.049        3.761      862.749
03/18/2014  08:51:00      194.196      105.074       22.630       74.714       48.682       48.337     5582.128     2369.975     2336.451        2.977        0.514      220.800       41.119        0.035      333.967        3.628      862.771
03/18/2014  08:52:00      102.730       98.927       -7.953       83.302       70.756       47.498     6939.154     5006.439     2256.105        1.730        0.710      142.619       37.783        0.070      334.104        3.857      862.777
03/18/2014  08:53:00      156.810      120.423       25.746       98.227       74.192       61.226     9648.525     5504.403     3748.667        2.932        0.945      197.714       34.661        0.031      334.309        4.194      862.783
03/18/2014  08:54:00       77.165       55.962       63.354       90.253       63.914       52.672     8145.576     4085.050     2774.358        1.405        0.750       95.322       17.598        0.034      334.397        4.342      862.788
03/18/2014  08:55:00      121.518       91.269       15.808       76.383       51.004       44.761     5834.369     2601.361     2003.552        1.689        0.522      151.976       40.111        0.070      334.353        4.268      862.810
03/18/2014  08:56:00      215.120      139.977       34.045       86.546       77.531       58.343     7490.138     6011.064     3403.920        4.196        0.845      256.652       31.683        0.015      334.149        3.927      862.837
03/18/2014  08:57:00      234.252      148.291       23.010       89.310       74.197       66.368     7976.328     5505.214     4404.735        4.764        0.894      277.244       39.349        0.020      333.921        3.549      862.867
03/18/2014  08:58:00      192.549      137.568       38.645       92.652       63.151       75.284     8584.484     3988.076     5667.626        3.786        0.912      236.643       33.020        0.019      334.127        3.890      862.872
03/18/2014  08:59:00      159.789      124.649       -4.037       64.225       48.470       42.491     4124.805     2349.355     1805.483        2.468        0.414      202.657       31.375        0.024      334.177        3.975      862.892
03/18/2014  09:00:00      199.090      125.867        8.075       81.474       63.617       51.734     6638.071     4047.079     2676.419        3.445        0.668      235.541       41.563        0.031      334.235        4.071      862.906
03/18/2014  09:01:00      157.175      116.421       43.570      103.821       62.040       55.008    10778.803     3848.957     3025.854        2.890        0.883      195.596       43.624        0.050      334.264        4.118      862.917
03/18/2014  09:02:00      154.983      131.224        1.937      126.870       82.604       79.824    16096.079     6823.460     6371.829        3.526        1.465      203.075       54.951        0.073      334.094        3.837      862.939
03/18/2014  09:03:00      154.339       78.963       26.640      109.454       67.105       52.867    11980.193     4503.125     2794.952        2.502        0.964      173.366       39.032        0.051      334.212        4.033      862.946
03/18/2014  09:04:00      160.812       94.669       12.428       51.036       60.621       38.445     2604.672     3674.846     1477.982        2.137        0.388      186.608       25.540        0.019      334.180        3.981      862.967
03/18/2014  09:05:00      153.942      111.257       16.058       83.459       54.671       51.201     6965.474     2988.966     2621.560        2.445        0.629      189.938       35.824        0.036      334.266        4.122      862.973
03/18/2014  09:06:00      219.351      182.845       17.765      135.370       84.020       62.328    18325.029     7059.328     3884.771        5.556        1.463      285.565       48.607        0.029      334.308        4.191      862.970
03/18/2014  09:07:00      112.806      119.152      150.963       96.979       92.973       67.635     9404.882     8644.051     4574.427        3.616        1.131      164.080       72.390        0.195      334.375        4.303      862.975
03/18/2014  09:08:00      124.035      100.258      114.848      103.961       89.643       73.962    10807.799     8035.881     5470.391        3.147        1.216      159.488       63.317        0.158      334.259        4.112      862.985
03/18/2014  09:09:00      111.210      107.966      115.625       99.807       83.828       64.013     9961.444     7027.179     4097.693        2.924        1.054      154.998       63.838        0.170      334.140        3.913      862.993
03/18/2014  09:10:00      109.863       62.316       48.855       76.522       69.073       60.293     5855.601     4771.029     3635.212        1.630        0.713      126.306       35.254        0.078      334.233        4.069      863.005
03/18/2014  09:11:00      120.126       79.014       46.106       82.380       72.039       63.246     6786.535     5189.574     4000.010        1.938        0.799      143.783       41.421        0.083      334.530        4.563      863.033
03/18/2014  09:12:00      150.907       70.325       70.818      127.914       78.140       83.138    16361.931     6105.903     6911.918        3.105        1.469      166.488       73.074        0.193      334.361        4.281      863.038
03/18/2014  09:13:00      171.192       80.729       61.901      136.305      101.516       83.261    18579.175    10305.492     6932.415        3.773        1.791      189.272       74.302        0.154      334.380        4.310      863.046
03/18/2014  09:14:00      149.149      161.236      148.542      107.455      108.413       93.263    11546.515    11753.384     8698.041        5.115        1.600      219.641       77.917        0.126      334.335        4.236      863.057
03/18/2014  09:15:00      190.775       89.252       75.133      103.185      110.393       86.561    10647.170    12186.562     7492.842        4.016        1.516      210.620       74.394        0.125      334.130        3.895      863.090
03/18/2014  09:16:00       81.489       81.360       66.930       80.940       52.620       57.671     6551.351     2768.889     3325.981        1.519        0.632      115.152       42.918        0.139      334.503        4.518      863.095
03/18/2014  09:17:00       94.868      130.550      121.333       95.258      116.302      107.484     9074.100    13526.235    11552.750        3.745        1.708      161.379       97.982        0.369      334.537        4.573      863.085
03/18/2014  09:18:00      167.263      127.706      107.241      142.502       97.658      100.869    20306.774     9537.106    10174.615        4.789        2.001      210.442       92.495        0.193      334.455        4.437      863.081
03/18/2014  09:19:00      164.064      133.580       93.681      158.318      104.724       79.875    25064.610    10967.093     6379.999        4.797        2.121      211.567       89.609        0.179      334.553        4.599      863.081
03/18/2014  09:20:00      133.026      106.561      106.757      122.023       87.587       79.738    14889.618     7671.469     6358.189        3.468        1.446      170.444       84.495        0.246      334.603        4.682      863.079
03/18/2014  09:21:00      209.858      116.355       50.945      129.974       95.177       92.102    16893.235     9058.662     8482.731        4.730        1.722      239.956       79.437        0.110      334.467        4.455      863.095
03/18/2014  09:22:00      170.967       79.033       41.948      123.774       77.572       80.678    15320.089     6017.344     6508.927        3.254        1.392      188.351       74.515        0.157      334.494        4.500      863.090
03/18/2014  09:23:00      232.856      143.987       73.408       97.836       85.792       76.292     9571.860     7360.274     5820.538        5.154        1.138      273.777       62.823        0.053      334.491        4.495      863.100
03/18/2014  09:24:00      225.275      122.101       94.128      141.341      106.644       84.493    19977.383    11372.878     7139.141        5.650        1.924      256.237       78.289        0.093      334.364        4.286      863.102
03/18/2014  09:25:00      140.219      133.975       70.307      106.947       59.320       59.874    11437.605     3518.818     3584.941        3.054        0.927      193.934       64.842        0.112      334.712        4.863      863.107
03/18/2014  09:26:00      121.947       92.033       79.194       97.457       72.479       63.193     9497.798     5253.205     3993.411        2.417        0.937      152.778       46.678        0.093      334.736        4.902      863.122
03/18/2014  09:27:00      191.712      134.673       67.772      145.426       92.438       78.780    21148.695     8544.840     6206.365        4.768        1.795      234.287       50.892        0.047      334.417        4.374      863.125
03/18/2014  09:28:00      176.391      103.269       22.318      116.457      103.099       76.047    13562.139    10629.497     5783.158        3.612        1.499      204.398       55.983        0.075      334.616        4.704      863.121
03/18/2014  09:29:00      218.235      131.176       24.645      105.170       94.520       78.778    11060.727     8934.086     6205.905        4.582        1.310      254.624       31.673        0.015      334.463        4.449      863.110
03/18/2014  09:30:00      168.646      103.317       32.626      122.011      101.160       80.710    14886.772    10233.423     6514.076        3.590        1.582      197.777       43.090        0.047      334.838        5.073      863.091
03/18/2014  09:31:00      114.178      206.269      177.141      156.877       95.388       88.792    24610.277     9098.951     7884.077        6.427        2.080      235.762       99.205        0.177      334.723        4.881      863.089
03/18/2014  09:32:00      183.047       91.156       40.329      128.019       81.827       72.475    16388.873     6695.715     5252.631        3.588        1.417      204.488       56.721        0.077      334.494        4.502      863.112
03/18/2014  09:33:00      167.409       95.295       27.479       80.205       61.137       63.122     6432.785     3737.704     3984.440        2.601        0.708      192.632       42.229        0.048      334.880        5.144      863.128
03/18/2014  09:34:00      184.188      155.168       42.436      128.416       94.449       91.060    16490.769     8920.628     8291.871        4.675        1.685      240.837       40.059        0.028      334.617        4.705      863.164
03/18/2014  09:35:00      215.192       95.534       30.138      137.550       75.049       59.731    18919.946     5632.300     3567.785        4.223        1.406      235.445       28.807        0.015      334.723        4.882      863.187
03/18/2014  09:36:00      200.848      142.621       59.904      111.952       68.239       60.620    12533.311     4656.555     3674.777        4.256        1.043      246.334       59.267        0.058      334.560        4.609      863.202
03/18/2014  09:37:00      235.177      115.064       54.246      103.933       87.151       92.018    10801.968     7595.278     8467.266        4.917        1.343      261.816       61.943        0.056      334.714        4.864      863.216
03/18/2014  09:38:00      253.882      156.849       61.078      111.177       92.884       91.066    12360.240     8627.447     8292.945        6.103        1.464      298.425       50.736        0.029      334.728        4.889      863.216
03/18/2014  09:39:00      174.341      148.109      137.568      125.824      127.937       91.604    15831.782    16367.963     8391.314        5.592        2.030      228.760       76.494        0.112      334.596        4.672      863.217
03/18/2014  09:40:00      145.494       83.532       80.362      114.908       86.232       90.004    13203.866     7435.933     8100.793        3.167        1.437      167.768       70.808        0.178      334.511        4.529      863.212
03/18/2014  09:41:00       89.910      121.860      117.069       90.610       72.599       64.710     8210.253     5270.579     4187.347        2.715        0.883      151.438       68.886        0.207      334.544        4.584      863.210
03/18/2014  09:42:00       23.235       45.450       60.459       53.133       37.585       29.945     2823.079     1412.650      896.715        0.570        0.257       51.045       26.204        0.264      334.884        5.151      863.201
03/18/2014  09:43:00       75.082       48.891       13.686       59.092       58.704       38.512     3491.902     3446.201     1483.187        0.832        0.421       89.597       25.302        0.080      335.075        5.470      863.223
03/18/2014  09:44:00      174.489       81.642       13.984      108.742       91.372       49.828    11824.804     8348.762     2482.789        2.998        1.133      192.644       33.208        0.030      334.754        4.935      863.229
03/18/2014  09:45:00      210.501      122.484       19.005       71.472       51.382       51.885     5108.212     2640.131     2692.077        3.506        0.522      243.543       30.498        0.016      334.425        4.386      863.213
03/18/2014  09:46:00       57.883       64.895       76.528       73.101       61.004       51.350     5343.707     3721.513     2636.829        1.256        0.585       86.958       47.233        0.295      335.148        5.589      863.223
03/18/2014  09:47:00      182.167      113.669       40.530      112.801       74.334       75.947    12724.020     5525.514     5767.960        3.588        1.201      214.721       58.080        0.073      335.065        5.450      863.221
03/18/2014  09:48:00      227.851      125.820       71.368      117.762       96.455       89.246    13867.859     9303.647     7964.766        5.198        1.557      260.282       51.814        0.040      334.614        4.699      863.219
03/18/2014  09:49:00      112.347       60.130       49.251      103.052       84.605       63.625    10619.654     7158.070     4048.183        2.024        1.091      127.427       55.682        0.191      334.963        5.280      863.209
03/18/2014  09:50:00       63.198      116.472      120.113      101.944       81.550       88.803    10392.647     6650.357     7885.936        2.845        1.246      132.513       66.959        0.255      335.003        5.348      863.200
03/18/2014  09:51:00      136.219       92.959       84.702       87.925       91.446       76.227     7730.774     8362.329     5810.502        2.813        1.095      164.914       67.014        0.165      334.916        5.201      863.198
03/18/2014  09:52:00       58.112       40.793       57.972       76.647       54.175       45.288     5874.781     2934.912     2051.005        0.963        0.543       71.000       42.104        0.352      335.442        6.079      863.202
03/18/2014  09:53:00      123.121       39.766       22.951       82.275       74.293       56.278     6769.172     5519.410     3167.202        1.636        0.773      129.384       19.005        0.022      335.193        5.664      863.208
03/18/2014  09:54:00      200.414      139.035       26.375      102.442       57.787       54.948    10494.320     3339.355     3019.313        3.852        0.843      243.919       36.873        0.023      335.017        5.368      863.213
03/18/2014  09:55:00      125.188      108.523       52.630       93.957       72.478       66.702     8827.944     5253.102     4449.100        2.437        0.927      165.678       31.033        0.035      335.206        5.685      863.216
03/18/2014  09:56:00      286.440      168.228       35.228      113.370       89.893       68.997    12852.729     8080.808     4760.653        6.864        1.285      332.187       63.727        0.037      334.694        4.833      863.200
03/18/2014  09:57:00      232.286      124.207       40.733      174.919      102.292       70.343    30596.554    10463.713     4948.139        5.852        2.300      263.409       35.885        0.019      334.669        4.791      863.199
03/18/2014  09:58:00      175.681      117.655       28.452      115.512       81.560       56.352    13343.127     6652.027     3175.511        3.434        1.159      211.439       23.976        0.013      334.961        5.275      863.195
03/18/2014  09:59:00      177.445      129.489       19.306      105.365       63.141       56.996    11101.799     3986.821     3248.590        3.348        0.917      219.668       22.287        0.010      334.938        5.239      863.187
03/18/2014  10:00:00      250.007      144.072       77.017      161.836      108.758       68.541    26190.858    11828.381     4697.873        6.595        2.136      288.549       47.664        0.027      334.822        5.045      863.171
03/18/2014  10:01:00      359.975      221.726       56.543      118.649      112.408       80.346    14077.503    12635.478     6455.533       10.755        1.658      422.782       50.907        0.014      334.603        4.680      863.137
03/18/2014  10:02:00      256.598      136.349       53.074      145.710       85.376       70.492    21231.437     7289.049     4969.147        6.036        1.674      290.575       48.298        0.028      334.575        4.636      863.153
03/18/2014  10:03:00      221.658      106.171       41.117      129.001       93.875       61.099    16641.383     8812.561     3733.102        4.564        1.459      245.774       48.734        0.039      334.927        5.219      863.155
03/18/2014  10:04:00      183.554      143.384       48.013      120.342       69.609       65.684    14482.260     4845.456     4314.344        4.009        1.182      232.919       49.989        0.046      334.747        4.921      863.181
03/18/2014  10:05:00      142.395      141.638      -11.031      106.880       73.923       77.236    11423.300     5464.674     5965.447        3.165        1.143      200.842       52.632        0.069      334.507        4.521      863.213
03/18/2014  10:06:00      264.643      147.585       55.431      156.031      106.195       84.584    24345.636    11277.463     7154.387        6.883        2.139      303.014       55.541        0.034      334.652        4.762      863.225
03/18/2014  10:07:00      232.047      164.354       25.886      140.786      100.562       78.919    19820.707    10112.761     6228.200        5.884        1.808      284.356       54.836        0.037      334.912        5.195      863.234
03/18/2014  10:08:00      221.125      129.466       34.880      140.848       92.923       79.552    19838.230     8634.746     6328.590        5.083        1.740      256.238       56.553        0.049      334.925        5.218      863.248
03/18/2014  10:09:00      193.284       85.289       51.460      144.753       92.408       84.528    20953.401     8539.214     7144.916        4.195        1.832      211.265       29.219        0.019      335.134        5.566      863.248
03/18/2014  10:10:00      332.130      183.920       39.402      106.401       77.722       81.716    11321.098     6040.746     6677.533        8.486        1.202      379.654       50.471        0.018      334.528        4.556      863.253
03/18/2014  10:11:00      266.268      170.022       55.304      142.397       90.379       58.278    20276.843     8168.425     3396.300        6.735        1.592      315.922       43.887        0.019      334.779        4.974      863.270
03/18/2014  10:12:00      245.586      132.146       62.088       99.448       83.916       79.595     9889.940     7041.944     6335.352        5.244        1.163      278.882       61.581        0.049      335.010        5.358      863.270
03/18/2014  10:13:00      216.348      191.605       17.352      120.214       96.412       75.192    14451.413     9295.179     5653.811        5.660        1.470      288.996       46.807        0.026      334.743        4.912      863.287
03/18/2014  10:14:00      105.928      149.845        7.473      119.422       94.824       82.179    14261.721     8991.620     6753.469        3.186        1.500      183.505       60.184        0.108      334.862        5.111      863.288
03/18/2014  10:15:00       82.614      109.682       13.197       77.440       86.969       55.210     5996.882     7563.523     3048.154        1.782        0.830      137.314       48.145        0.123      335.025        5.385      863.280
03/18/2014  10:16:00      117.980      120.950        9.827      113.401      100.922       65.676    12859.678    10185.235     4313.302        2.800        1.368      168.963       47.608        0.079      334.912        5.196      863.301
03/18/2014  10:17:00      141.938       80.764       58.430      105.125       74.121       70.727    11051.317     5493.984     5002.359        2.581        1.077      163.307       56.521        0.120      335.249        5.756      863.298
03/18/2014  10:18:00      188.164      167.640      101.589      135.546      122.146       90.447    18372.594    14919.699     8180.617        5.764        2.074      252.010       75.214        0.089      335.166        5.616      863.317
03/18/2014  10:19:00      173.287      110.688       69.850       90.618       74.991       68.527     8211.621     5623.612     4696.011        3.284        0.927      205.621       53.775        0.068      335.164        5.613      863.334
03/18/2014  10:20:00      194.399      120.978       60.236      147.538       81.880       83.083    21767.595     6704.332     6902.828        4.571        1.769      228.969       63.861        0.078      335.403        6.011      863.342
03/18/2014  10:21:00      234.098      147.843       20.819       91.767       84.916       65.747     8421.213     7210.780     4322.641        4.852        0.998      276.875       50.664        0.033      334.795        5.000      863.346
03/18/2014  10:22:00      163.402       80.414       47.601      132.054       81.276       69.758    17438.307     6605.839     4866.214        3.217        1.446      182.117       24.880        0.019      335.122        5.545      863.328
03/18/2014  10:23:00      302.179      162.377       18.550      117.530       94.700       81.661    13813.334     8968.122     6668.558        7.373        1.473      343.043       48.424        0.020      334.917        5.202      863.346
03/18/2014  10:24:00      120.246      112.883       17.412       98.684       94.329       68.624     9738.472     8897.903     4709.289        2.542        1.167      164.929       61.311        0.138      335.062        5.447      863.343
03/18/2014  10:25:00      199.868      151.162       40.999      122.558       74.518       68.942    15020.544     5552.866     4752.932        4.490        1.266      250.594       51.262        0.042      335.275        5.800      863.351
03/18/2014  10:26:00      241.608      180.602       14.400       79.990       73.152       60.985     6398.401     5351.158     3719.119        5.333        0.773      301.648       25.326        0.007      334.783        4.980      863.351
03/18/2014  10:27:00      230.547      131.050       32.250      118.094       82.703       63.460    13946.168     6839.831     4027.128        4.808        1.241      265.191       50.176        0.036      335.115        5.532      863.327
03/18/2014  10:28:00      303.033      147.072       70.393      178.000      102.920       93.288    31684.085    10592.574     8702.633        8.469        2.549      336.837      103.080        0.094      334.948        5.253      863.333
03/18/2014  10:29:00      353.868      251.343       57.562       98.404       86.076       84.771     9683.319     7409.121     7186.149       10.799        1.214      434.046       44.112        0.010      334.777        4.970      863.349
03/18/2014  10:30:00      173.396      172.487        7.311      137.192       99.247       82.769    18821.521     9849.897     6850.759        4.769        1.776      244.577       53.476        0.048      334.941        5.244      863.363
03/18/2014  10:31:00      245.868      133.728       21.853      146.571       95.762       73.133    21483.166     9170.285     5348.430        5.740        1.800      279.882       47.437        0.029      335.099        5.505      863.359
03/18/2014  10:32:00      120.813       49.533       25.521       90.923       45.248       46.249     8266.908     2047.400     2138.988        1.507        0.623      130.573       30.729        0.055      335.615        6.366      863.339
03/18/2014  10:33:00      153.598      138.399       18.688      113.429       92.213       71.234    12866.061     8503.185     5074.219        3.476        1.322      206.753       59.211        0.082      335.500        6.175      863.347
03/18/2014  10:34:00      308.248      194.390       61.838      121.999      108.591       84.779    14883.681    11792.043     7187.512        8.524        1.693      364.423       56.552        0.024      335.081        5.475      863.323
03/18/2014  10:35:00      216.325      183.230       22.061      149.157      114.085      105.576    22247.943    13015.481    11146.214        6.362        2.320      283.495       79.932        0.079      334.921        5.211      863.315
03/18/2014  10:36:00      244.095      147.569       31.526       84.880       70.062       59.738     7204.671     4908.675     3568.675        4.901        0.784      285.235       34.652        0.015      334.848        5.087      863.308
03/18/2014  10:37:00      253.106      129.455       60.940      127.839       80.052       97.833    16342.870     6408.306     9571.311        5.842        1.616      284.291       63.548        0.050      335.258        5.769      863.290
03/18/2014  10:38:00      220.281      134.568       99.057      141.362      102.693       85.057    19983.177    10545.892     7234.767        5.710        1.888      258.132       65.473        0.064      335.111        5.526      863.304
03/18/2014  10:39:00      258.045      148.377       34.948      136.310       74.257       75.502    18580.459     5514.076     5700.574        5.980        1.490      297.663       27.709        0.009      335.107        5.518      863.293
03/18/2014  10:40:00      223.247      166.294       22.921       72.086       63.319       58.614     5196.393     4009.310     3435.642        4.533        0.632      278.376       43.130        0.024      334.963        5.280      863.290
03/18/2014  10:41:00      206.648      148.938       43.835       74.694       59.682       59.764     5579.210     3561.889     3571.686        3.976        0.636      254.727       27.474        0.012      335.109        5.521      863.300
03/18/2014  10:42:00      385.421      242.119       54.532      132.647      121.716       74.731    17595.268    14814.683     5584.714       12.406        1.900      455.161       32.524        0.005      335.190        5.657      863.271
03/18/2014  10:43:00      246.618      157.379       58.859      121.640       88.936       90.409    14796.266     7909.633     8173.837        5.996        1.544      292.556       85.894        0.086      335.418        6.035      863.291
03/18/2014  10:44:00      218.015      109.079       19.641      111.376       89.719       70.491    12404.711     8049.494     4969.041        4.261        1.271      243.780       10.811        0.002      335.530        6.223      863.316
03/18/2014  10:45:00      216.163      159.095       82.612       91.017       76.297       67.950     8284.044     5821.266     4617.250        4.879        0.936      268.398       35.951        0.018      335.510        6.189      863.326
03/18/2014  10:46:00      163.587       66.170       66.157      117.848       79.971       70.797    13888.232     6395.325     5012.189        3.040        1.265      176.463       65.059        0.136      335.113        5.529      863.340
03/18/2014  10:47:00      152.919       53.398       36.096       83.974       58.561       51.336     7051.550     3429.348     2635.393        2.032        0.656      161.975       34.546        0.045      335.380        5.973      863.340
03/18/2014  10:48:00       81.333       71.505       71.524      102.472      122.447      111.252    10500.473    14993.307    12377.060        2.735        1.894      108.296       94.543        0.762      335.553        6.262      863.310
03/18/2014  10:49:00      149.038      161.811      166.421      122.840      110.963      100.582    15089.565    12312.883    10116.794        5.680        1.876      219.989       91.561        0.173      335.170        5.623      863.312
03/18/2014  10:50:00      244.329      134.273       53.844       94.400      101.252       85.555     8911.418    10252.012     7319.673        5.355        1.324      278.794       59.511        0.046      335.211        5.692      863.294
03/18/2014  10:51:00      223.050      112.062      121.047      162.164      112.396      101.111    26297.169    12632.945    10223.450        6.305        2.458      249.618       91.094        0.133      335.612        6.359      863.250
03/18/2014  10:52:00      189.215      108.395       23.093      135.132      122.754       99.028    18260.604    15068.548     9806.581        4.560        2.157      218.064       54.211        0.062      335.410        6.023      863.244
03/18/2014  10:53:00      276.536      154.828       64.509      144.072       89.593       98.492    20756.607     8026.977     9700.655        7.154        1.924      316.929       45.965        0.021      335.382        5.976      863.227
03/18/2014  10:54:00      301.740      166.947       70.469      125.785      107.584      101.284    15821.810    11574.324    10258.509        8.076        1.883      344.846       64.081        0.035      335.285        5.814      863.229
03/18/2014  10:55:00      161.765      129.264      108.590      130.362      102.881       85.127    16994.240    10584.558     7246.681        4.474        1.741      207.068       82.050        0.157      335.316        5.868      863.246
03/18/2014  10:56:00      197.579      162.192       50.878      130.031       86.018       76.762    16908.085     7399.084     5892.359        4.906        1.510      255.624       51.281        0.040      335.411        6.026      863.244
03/18/2014  10:57:00      233.985      170.927       68.307      114.326       69.311       75.802    13070.514     4803.947     5745.899        5.612        1.181      289.767       65.426        0.051      335.470        6.123      863.249
03/18/2014  10:58:00      168.612      171.031      137.635      131.927      101.091      100.887    17404.834    10219.472    10178.200        5.721        1.890      240.170       56.676        0.056      335.719        6.537      863.219
03/18/2014  10:59:00      110.283      160.578      170.955      136.368      126.629       96.221    18596.220    16034.817     9258.437        5.552        2.194      194.802       75.862        0.152      335.786        6.649      863.215
03/18/2014  11:00:00      191.578      162.877      160.070      139.010       94.225      102.343    19323.756     8878.365    10474.002        6.376        1.934      251.457       87.138        0.120      335.416        6.031      863.253
03/18/2014  11:01:00      160.858      172.580      170.068      135.439      109.442       97.955    18343.777    11977.637     9595.111        6.224        1.996      235.922       93.867        0.158      335.408        6.020      863.268
03/18/2014  11:02:00      101.415      143.036      115.477       86.839       93.770       75.571     7540.945     8792.732     5711.027        3.306        1.102      175.340       59.882        0.117      335.176        5.634      863.297
03/18/2014  11:03:00      134.738      113.065       65.144       94.107       48.233       69.162     8856.204     2326.408     4783.357        2.557        0.798      175.892       54.747        0.097      335.538        6.238      863.291
03/18/2014  11:04:00       12.106       17.615       27.725       49.749       38.268       32.540     2474.975     1464.429     1058.882        0.311        0.250       21.374       28.111        1.730      335.416        6.035      863.275
03/18/2014  11:05:00      105.909       34.225       17.788       77.111       95.059       52.920     5946.173     9036.293     2800.560        1.524        0.889      111.302       30.785        0.076      335.612        6.361      863.263
03/18/2014  11:06:00      189.174       81.319       18.927       60.441       44.727       44.571     3653.163     2000.540     1986.606        2.520        0.382      205.912       32.972        0.026      335.190        5.657      863.241
03/18/2014  11:07:00      203.837      102.037       39.673       73.276       54.587       61.745     5369.353     2979.722     3812.493        3.285        0.608      227.950       34.250        0.023      335.496        6.164      863.217
03/18/2014  11:08:00      255.820      165.461       45.437      149.199       86.106       77.312    22260.229     7414.246     5977.071        6.526        1.783      304.666       66.024        0.047      335.563        6.277      863.193
03/18/2014  11:09:00      237.007        7.928       75.087      175.751      241.429      133.604    30888.556    58288.074    17850.017        8.443        5.351      237.140      141.793        0.358      335.767        6.616      863.184
03/18/2014  11:10:00      140.747      150.512      171.125      133.962      139.790      116.373    17945.782    19541.202    13542.726        6.138        2.551      206.067      110.098        0.285      335.589        6.319      863.214
03/18/2014  11:11:00      132.189      163.785      163.244      143.591      160.468      159.196    20618.255    25750.010    25343.213        7.132        3.586      210.474      155.822        0.548      335.325        5.882      863.213
03/18/2014  11:12:00      223.125      130.781       49.537       87.395       85.150       51.468     7637.827     7250.479     2648.909        4.344        0.877      258.629       38.602        0.022      335.508        6.184      863.211
03/18/2014  11:13:00       83.243      109.251       87.550       81.344       57.904       60.267     6616.867     3352.826     3632.096        2.006        0.680      137.350       33.281        0.059      336.204        7.349      863.201
03/18/2014  11:14:00      274.059      147.113      126.861      151.226      115.405       95.854    22869.393    13318.220     9188.058        7.910        2.269      311.047       61.228        0.039      335.725        6.548      863.190
03/18/2014  11:15:00      220.488      120.126       87.483      205.559      106.638      111.352    42254.463    11371.646    12399.248        6.835        3.301      251.088      113.498        0.204      335.675        6.463      863.195
03/18/2014  11:16:00      264.729      157.196       30.527      107.529       80.853       68.727    11562.399     6537.210     4723.368        5.927        1.141      307.883       57.657        0.035      335.644        6.412      863.208
03/18/2014  11:17:00      229.181      143.599       28.306      112.705       85.166       60.118    12702.439     7253.303     3614.152        4.875        1.178      270.452       26.379        0.010      335.536        6.233      863.212
03/18/2014  11:18:00      204.605      127.311       66.172      151.077      130.592       80.443    22824.204    17054.226     6471.101        5.439        2.317      240.980       35.707        0.022      335.832        6.726      863.176
03/18/2014  11:19:00      115.108      109.451       90.565      138.760       75.743       79.031    19254.441     5736.937     6245.915        3.233        1.562      158.838       81.425        0.263      336.365        7.616      863.188
03/18/2014  11:20:00      141.916      146.092       88.175      106.432      105.473      106.698    11327.688    11124.503    11384.372        4.154        1.692      203.674       64.404        0.100      336.001        7.007      863.198
03/18/2014  11:21:00      253.285      143.461       32.458      104.035       77.589       59.113    10823.230     6020.052     3494.335        5.306        1.017      291.092       30.989        0.011      335.446        6.082      863.204
03/18/2014  11:22:00      318.342      192.889       24.688      145.432      119.307       65.132    21150.328    14234.224     4242.149        8.938        1.981      372.220       17.090        0.002      335.590        6.321      863.205
03/18/2014  11:23:00      305.662      185.590       58.095      130.741      101.601       85.323    17093.137    10322.799     7279.965        8.296        1.735      357.593       37.480        0.011      335.560        6.272      863.181
03/18/2014  11:24:00      188.899      182.228       16.075      152.200      108.970       81.195    23164.765    11874.493     6592.630        5.538        2.082      262.469       53.190        0.041      335.677        6.468      863.169
03/18/2014  11:25:00      354.515      219.060       35.179      126.945      120.189      101.745    16115.084    14445.402    10351.976       10.790        2.046      416.735       61.280        0.022      335.856        6.767      863.164
03/18/2014  11:26:00      338.456      218.124       35.020      114.678       82.803       88.351    13150.953     6856.315     7805.888        9.558        1.391      402.654       61.515        0.023      335.383        5.978      863.184
03/18/2014  11:27:00      107.454      192.477        3.419      118.784       81.862       67.614    14109.611     6701.368     4571.658        3.699        1.269      220.440       37.999        0.030      335.562        6.275      863.164
03/18/2014  11:28:00      290.430      167.446       38.701      141.641       84.658       91.916    20062.234     7166.979     8448.618        7.477        1.784      335.243       51.493        0.024      335.734        6.562      863.116
03/18/2014  11:29:00      188.654      167.401      109.465      108.536       77.591       74.766    11780.051     6020.439     5589.931        4.949        1.170      252.217       52.974        0.044      336.024        7.047      863.136
03/18/2014  11:30:00      198.403      156.002       99.768      133.254       97.292      103.422    17756.586     9465.652    10696.138        5.578        1.896      252.389       81.245        0.104      335.824        6.713      863.120
03/18/2014  11:31:00      167.148      186.520      206.130      154.898      141.284      120.578    23993.300    19961.174    14539.007        8.184        2.925      250.456      117.545        0.220      335.677        6.467      863.075
03/18/2014  11:32:00      234.047      121.686       70.862      115.417      104.229       99.775    13320.978    10863.645     9955.093        5.437        1.707      263.790       62.198        0.056      335.532        6.225      863.069
03/18/2014  11:33:00      155.740       54.098       95.686      145.132       99.237       95.014    21063.269     9848.054     9027.630        3.813        1.997      164.868      107.314        0.424      335.979        6.972      863.049
03/18/2014  11:34:00       63.558      118.181       92.970      100.685       91.725       90.382    10137.521     8413.392     8168.992        2.668        1.336      134.188       73.001        0.296      336.512        7.863      863.031
03/18/2014  11:35:00      169.122      134.623       49.673      103.781       74.136       83.283    10770.495     5496.181     6936.052        3.619        1.160      216.161       42.273        0.038      335.767        6.619      863.027
03/18/2014  11:36:00      153.707      116.238      119.359      155.249       90.759       91.116    24102.184     8237.142     8302.208        4.600        2.032      192.709       81.439        0.179      335.991        6.989      862.998
03/18/2014  11:37:00      194.564      160.457      121.332      131.480      110.971       85.465    17287.066    12314.594     7304.315        5.761        1.845      252.194       61.025        0.059      335.858        6.770      862.985
03/18/2014  11:38:00      122.128      170.475      143.154      108.482       92.430       92.395    11768.448     8543.310     8536.772        4.665        1.442      209.707       80.021        0.146      336.002        7.008      862.971
03/18/2014  11:39:00      184.767      127.825       86.483      124.253       83.522       82.363    15438.767     6975.887     6783.685        4.357        1.460      224.673       72.621        0.104      336.048        7.085      862.969
03/18/2014  11:40:00      171.701      118.564       53.870      119.104      108.382       80.938    14185.762    11746.666     6550.910        3.946        1.624      208.659       44.910        0.046      336.267        7.452      862.952
03/18/2014  11:41:00      100.371       81.382        9.194       89.760       93.336       57.713     8056.941     8711.594     3330.813        1.844        1.005      129.218       32.381        0.063      336.197        7.337      862.944
03/18/2014  11:42:00      300.073      210.844       54.918      146.180       98.571       88.973    21368.496     9716.281     7916.116        8.825        1.950      366.741       53.766        0.021      335.866        6.782      862.948
03/18/2014  11:43:00      335.745      170.266       88.740      176.603      131.440       94.774    31188.633    17276.417     8982.185       10.351        2.872      376.451       73.851        0.038      335.582        6.309      862.895
03/18/2014  11:44:00      262.580      185.757       79.684      129.665       83.938       93.916    16813.062     7045.638     8820.284        7.123        1.634      321.642       54.305        0.029      335.742        6.576      862.915
03/18/2014  11:45:00      273.757      160.937       71.265      120.723       75.192       80.488    14574.155     5653.870     6478.323        6.631        1.335      317.559       58.017        0.033      335.526        6.216      862.893
03/18/2014  11:46:00      299.854      220.967       98.228      131.117      108.856      101.839    17191.669    11849.688    10371.199        9.389        1.971      372.476       68.416        0.034      335.936        6.899      862.859
03/18/2014  11:47:00      288.171      162.652      123.248      201.001      154.949      144.439    40401.411    24009.094    20862.721       10.496        4.264      330.905      106.142        0.103      335.930        6.889      862.846
03/18/2014  11:48:00      298.962      141.733       90.801      179.702      120.392      106.615    32292.758    14494.195    11366.718        8.792        2.908      330.857       91.430        0.076      335.833        6.728      862.863
03/18/2014  11:49:00       18.818       34.938       52.603       85.259       95.661       85.554     7269.052     9151.095     7319.572        1.404        1.187       39.683       73.069        3.390      336.064        7.115      862.835
03/18/2014  11:50:00        5.273       74.288       95.251       69.121       62.309       55.009     4777.726     3882.441     3026.020        1.315        0.584       74.475       33.810        0.206      336.658        8.107      862.814
03/18/2014  11:51:00       88.559       55.614       56.297       85.966       63.563       52.035     7390.089     4040.248     2707.690        1.412        0.707      104.574       50.168        0.230      336.485        7.819      862.786
03/18/2014  11:52:00      117.856       95.524      109.567      113.691      106.739       79.095    12925.678    11393.126     6255.991        3.279        1.529      151.707       71.606        0.223      336.312        7.525      862.756
03/18/2014  11:53:00      110.471       60.942       78.088      118.645      138.729       66.300    14076.520    19245.792     4395.712        2.986        1.886      126.166       45.590        0.131      336.204        7.348      862.749
03/18/2014  11:54:00      150.604      134.238      112.664       91.818       99.062       86.601     8430.453     9813.369     7499.660        3.956        1.287      201.745       70.107        0.121      336.052        7.091      862.744
03/18/2014  11:55:00      172.791      166.265      162.537      139.709      112.163      108.172    19518.599    12580.515    11701.278        6.385        2.190      239.793       83.522        0.121      335.969        6.953      862.711
03/18/2014  11:56:00      310.125      145.016       73.454      185.829      137.607      125.823    34532.374    18935.766    15831.390        9.594        3.465      342.355      107.424        0.098      335.843        6.742      862.712
03/18/2014  11:57:00      275.424      157.001       97.206      203.092      122.186       95.452    41246.544    14929.503     9111.008        8.761        3.264      317.030       80.178        0.064      335.899        6.838      862.710
03/18/2014  11:58:00      452.080      285.205       35.558      152.630      116.915       87.667    23295.772    13669.011     7685.545       16.581        2.233      534.526       14.143        0.001      335.706        6.515      862.668
03/18/2014  11:59:00      369.261      247.106      184.179      220.450      166.367      143.072    48598.130    27677.823    20469.730       16.402        4.837      444.314      125.774        0.080      335.848        6.750      862.652
03/18/2014  12:00:00      245.891      138.844      129.743      156.667      153.929      114.375    24544.583    23694.253    13081.537        7.893        3.066      282.383       98.305        0.121      335.936        6.899      862.710
03/18/2014  12:01:00      188.641      113.196       48.478      119.694       95.649       74.211    14326.657     9148.716     5507.334        3.986        1.449      219.998       57.966        0.069      335.836        6.733      862.717
03/18/2014  12:02:00      229.550      125.884       79.454      197.447      124.290       89.951    38985.242    15447.972     8091.139        6.868        3.126      261.801       86.573        0.109      335.921        6.874      862.677
03/18/2014  12:03:00      176.484      163.949      105.942      116.381       83.257       73.211    13544.473     6931.745     5359.818        4.754        1.292      240.886       57.419        0.057      336.374        7.629      862.633
03/18/2014  12:04:00      259.528      189.727       21.364      106.609       92.944       85.947    11365.544     8638.525     7386.821        6.559        1.370      321.483       54.057        0.028      335.986        6.980      862.644
03/18/2014  12:05:00       47.309      104.449      112.329      106.949       99.818       96.044    11438.028     9963.535     9224.383        2.819        1.531      114.664       75.758        0.437      336.500        7.842      862.624
03/18/2014  12:06:00       95.538       39.633      108.980      134.638      125.860       89.745    18127.259    15840.708     8054.246        3.229        2.101      103.432       66.651        0.415      336.561        7.944      862.615
03/18/2014  12:07:00      197.032       31.868      129.849      170.453      157.129      118.806    29054.085    24689.429    14114.943        6.226        3.393      199.592      132.745        0.442      336.158        7.270      862.598
03/18/2014  12:08:00      145.235       97.712      138.027      133.151      123.936      111.505    17729.209    15360.150    12433.439        4.760        2.276      175.046      109.248        0.390      336.397        7.670      862.591
03/18/2014  12:09:00       95.913       26.978       88.832      112.539       84.963       64.664    12665.063     7218.667     4181.423        2.094        1.203       99.635       56.247        0.319      336.372        7.629      862.614
03/18/2014  12:10:00       94.016        4.126       57.872       73.992      122.068       85.020     5474.775    14900.488     7228.332        1.990        1.380       94.106       66.169        0.494      336.600        8.008      862.604
03/18/2014  12:11:00       80.090       15.620       49.147      106.331      125.366       62.014    11306.231    15716.652     3845.777        1.997        1.543       81.599       61.393        0.566      336.798        8.341      862.593
03/18/2014  12:12:00       98.207     -167.236       -4.980      124.851      147.043       65.351    15587.890    21621.720     4270.707        3.955        2.074      193.940       78.568        0.164      336.420        7.707      862.570
03/18/2014  12:13:00      108.512       80.631      101.287      117.960      143.936       73.900    13914.511    20717.449     5461.215        3.431        2.005      135.189       85.921        0.404      336.430        7.725      862.551
03/18/2014  12:14:00      107.498       35.915       77.369      105.762      153.584       81.423    11185.507    23588.038     6629.667        3.011        2.070      113.339       89.865        0.629      336.397        7.670      862.517
03/18/2014  12:15:00      102.465       37.882       65.290      132.071      127.139       67.830    17442.708    16164.407     4600.853        2.719        1.910      109.243       68.397        0.392      336.519        7.874      862.510
03/18/2014  12:16:00      237.149      217.577      132.545      171.949      102.897      123.191    29566.418    10587.701    15176.124        8.823        2.767      321.838      106.662        0.110      335.987        6.983      862.494
03/18/2014  12:17:00      126.130       63.112       75.728      116.662      104.194       78.991    13610.014    10856.321     6239.582        2.816        1.535      141.038       61.414        0.190      336.012        7.025      862.501
03/18/2014  12:18:00      106.245      135.959      153.784      115.729      112.815       72.278    13393.313    12727.312     5224.075        4.238        1.567      172.549       68.955        0.160      336.256        7.431      862.472
03/18/2014  12:19:00      215.252      190.305      150.645      140.393      112.919      101.135    19710.097    12750.644    10228.336        7.396        2.134      287.314       79.721        0.077      336.312        7.524      862.445
03/18/2014  12:20:00      135.911      150.416      152.833      131.206      118.933       98.943    17214.897    14144.964     9789.789        5.279        2.057      202.724       75.890        0.140      336.838        8.406      862.455
03/18/2014  12:21:00      142.042      224.610      190.817      119.087      134.074      118.550    14181.663    17975.957    14054.108        7.661        2.311      265.754       94.461        0.126      335.986        6.983      862.473
03/18/2014  12:22:00      147.580      165.283       80.750      117.372      111.978      123.710    13776.296    12539.024    15304.240        4.861        2.081      221.581       81.866        0.137      336.118        7.202      862.438
03/18/2014  12:23:00       55.426       89.613       15.830       66.261      103.303       76.935     4390.549    10671.445     5918.964        1.616        1.049      105.369       29.277        0.077      336.366        7.618      862.399
03/18/2014  12:24:00      149.038      158.706      158.931      185.343      154.010      123.123    34352.055    23718.928    15159.267        7.293        3.662      217.715      134.385        0.381      336.603        8.012      862.386
03/18/2014  12:25:00      191.189      176.972      183.722      148.593      180.512      129.425    22079.819    32584.692    16750.952        8.651        3.571      260.523      126.441        0.236      336.308        7.521      862.408
03/18/2014  12:26:00      122.911        6.157       73.619      141.349      121.934       68.457    19979.568    14867.884     4686.302        3.004        1.977      123.065       65.467        0.283      336.239        7.406      862.427
03/18/2014  12:27:00      171.431      106.700       82.068      117.410      110.639       89.661    13785.157    12240.882     8039.087        4.078        1.703      201.924       87.631        0.188      336.319        7.536      862.408
03/18/2014  12:28:00      252.823      163.012       73.878      138.769       99.777       98.802    19256.714     9955.514     9761.773        6.745        1.949      300.819       70.113        0.054      336.279        7.470      862.372
03/18/2014  12:29:00      165.164      164.614      149.230      160.342      117.309      102.461    25709.524    13761.309    10498.251        6.330        2.498      233.189       96.272        0.170      336.333        7.561      862.378
03/18/2014  12:30:00      144.223      160.725      148.724      150.182       81.405       75.414    22554.637     6626.787     5687.301        5.180        1.743      215.946       80.038        0.137      336.571        7.959      862.356
03/18/2014  12:31:00      191.135      180.113      101.116      127.394      141.925      142.097    16229.301    20142.642    20191.535        6.787        2.828      262.627      110.783        0.178      336.875        8.468      862.350
03/18/2014  12:32:00      182.123      172.161       94.562      151.833      122.063      116.065    23053.324    14899.291    13471.152        6.158        2.571      250.616       88.553        0.125      336.519        7.872      862.376
03/18/2014  12:33:00      219.163      129.786       52.773      137.257      115.189       86.530    18839.449    13268.452     7487.437        5.362        1.980      254.709       35.827        0.020      336.651        8.094      862.381
03/18/2014  12:34:00       54.578      146.776      158.847       96.527      100.942       79.713     9317.541    10189.194     6354.093        3.780        1.293      156.595       77.189        0.243      336.474        7.797      862.364
03/18/2014  12:35:00      201.826      147.930       37.683      140.913      116.860       58.430    19856.514    13656.336     3414.023        5.047        1.846      250.234       55.041        0.048      336.505        7.850      862.363
03/18/2014  12:36:00      241.688      157.347       47.811      105.044      102.978       83.172    11034.257    10604.390     6917.501        5.700        1.428      288.394       49.704        0.030      336.454        7.764      862.349
03/18/2014  12:37:00      460.459      268.407       56.466      130.740      103.794      105.175    17092.830    10773.198    11061.794       16.308        1.946      532.977       61.423        0.013      336.307        7.517      862.328
03/18/2014  12:38:00      327.529      204.579       97.922      126.304      110.746      112.848    15952.684    12264.696    12734.682        9.983        2.048      386.171       78.289        0.041      336.358        7.602      862.329
03/18/2014  12:39:00      291.716      201.412      169.681      163.286      149.600      119.234    26662.447    22380.029    14216.703       10.885        3.163      354.493       96.513        0.074      336.212        7.359      862.331
03/18/2014  12:40:00      178.259       98.578       54.105      150.242      103.016       92.982    22572.718    10612.395     8645.667        4.312        2.092      203.701       45.360        0.050      336.212        7.361      862.353
03/18/2014  12:41:00      253.448      139.826       43.131      131.948      102.976       89.960    17410.219    10604.088     8092.891        6.087        1.805      289.460       50.784        0.031      336.660        8.107      862.357
03/18/2014  12:42:00      150.357       77.341       20.146      105.631       89.712       70.720    11157.985     8048.265     5001.268        2.660        1.210      169.083       25.631        0.023      336.653        8.097      862.349
03/18/2014  12:43:00      164.205      153.556      115.463      128.838       82.031       88.467    16599.311     6729.162     7826.360        4.751        1.558      224.817       79.525        0.125      336.654        8.099      862.338
03/18/2014  12:44:00      228.985      132.486      128.206      135.370      126.560       99.289    18324.997    16017.307     9858.277        6.530        2.210      264.550       82.804        0.098      336.630        8.058      862.346
03/18/2014  12:45:00      146.956      143.413       91.231      120.937       82.412       79.470    14625.790     6791.737     6315.437        3.910        1.387      205.337       67.726        0.109      336.789        8.323      862.343
03/18/2014  12:46:00      357.735      205.960       72.411      136.035      132.904      106.869    18505.420    17663.507    11420.955       11.160        2.379      412.788       86.446        0.044      336.275        7.465      862.341
03/18/2014  12:47:00      286.551      178.725       39.023       95.392       98.808       54.054     9099.725     9762.995     2921.801        6.868        1.089      337.719       26.603        0.006      336.164        7.279      862.340
03/18/2014  12:48:00      173.342       94.255       21.663       98.044       67.004       53.506     9612.673     4489.523     2862.928        2.818        0.848      197.310       27.470        0.019      336.235        7.399      862.315
03/18/2014  12:49:00      172.553      113.749       89.456      143.402      104.577       80.922    20564.275    10936.300     6548.319        4.437        1.902      206.672       51.391        0.062      336.624        8.047      862.284
03/18/2014  12:50:00      253.156      165.169       68.818      127.903       83.948       77.988    16359.226     7047.195     6082.159        6.279        1.474      302.273       58.250        0.037      336.429        7.723      862.272
03/18/2014  12:51:00      235.772      102.611       94.067      121.664      108.654      100.391    14802.057    11805.591    10078.274        5.582        1.834      257.133       64.185        0.062      336.362        7.609      862.273
03/18/2014  12:52:00      134.635       84.157       77.499      124.951      123.294      105.743    15612.707    15201.319    11181.529        3.660        2.100      158.774       98.110        0.382      336.423        7.712      862.268
03/18/2014  12:53:00      269.517      157.741       49.486      167.349      102.226       89.847    28005.628    10450.066     8072.403        7.324        2.326      312.284       54.120        0.030      336.456        7.768      862.274
03/18/2014  12:54:00      307.727      212.700       12.698      186.349      120.182       79.516    34726.038    14443.704     6322.764        9.778        2.775      374.082       49.012        0.017      336.267        7.453      862.251
03/18/2014  12:55:00      222.394      143.977       27.387      128.646      114.702       95.709    16549.899    13156.546     9160.123        5.489        1.943      264.931       55.346        0.044      336.548        7.920      862.225
03/18/2014  12:56:00      187.885      142.200       43.373      122.049       96.914       87.360    14895.962     9392.326     7631.849        4.466        1.596      235.630       40.118        0.029      336.706        8.186      862.228
03/18/2014  12:57:00      209.879      110.580        7.815      108.402       82.751       65.454    11750.944     6847.757     4284.287        3.961        1.144      237.228       42.186        0.032      336.327        7.550      862.215
03/18/2014  12:58:00      187.151      158.118       84.834      115.689       63.206       83.799    13384.006     3995.033     7022.239        4.581        1.220      245.004       69.503        0.080      337.191        8.995      862.213
03/18/2014  12:59:00      280.929      169.033      115.031      134.661      123.653       94.798    18133.708    15289.985     8986.725        8.156        2.121      327.862       73.088        0.050      336.872        8.463      862.194
03/18/2014  13:00:00      230.357      129.707      142.445      166.108      132.036      129.898    27592.007    17433.617    16873.604        7.603        3.095      264.364      108.327        0.168      336.615        8.032      862.185
03/18/2014  13:01:00      185.800      174.468      181.395      116.689      111.880       90.084    13616.312    12517.122     8115.079        6.605        1.712      254.874       79.923        0.098      336.698        8.170      862.171
03/18/2014  13:02:00      159.140      162.338      199.546      144.631      185.847      125.290    20918.245    34539.185    15697.523        8.131        3.558      227.330      140.931        0.384      336.926        8.552      862.142
03/18/2014  13:03:00      189.781      147.191      148.259      133.004      155.018      130.299    17689.959    24030.694    16977.827        6.917        2.935      240.171      114.308        0.227      336.940        8.576      862.152
03/18/2014  13:04:00      220.577      136.202      100.770      143.209      124.658       97.948    20508.719    15539.651     9593.895        6.149        2.282      259.240       76.387        0.087      336.584        7.980      862.155
03/18/2014  13:05:00       61.104       38.450       50.700       70.764       46.795       38.028     5007.611     2189.774     1446.099        0.821        0.432       72.195       28.969        0.161      336.572        7.964      862.146
03/18/2014  13:06:00      126.537       98.815       51.950       73.821       68.180       56.238     5449.504     4648.481     3162.709        2.087        0.663      160.549       38.633        0.058      336.874        8.468      862.135
03/18/2014  13:07:00      168.255       93.713       46.311      100.690       91.006       76.665    10138.385     8282.152     5877.591        3.176        1.215      192.592       48.391        0.063      336.991        8.662      862.121
03/18/2014  13:08:00      125.120      119.596       55.531      115.588       84.063       80.142    13360.503     7066.648     6422.711        2.994        1.342      173.084       26.759        0.024      337.278        9.143      862.112
03/18/2014  13:09:00      212.890      232.077      155.149      185.471      111.877      121.550    34399.540    12516.420    14774.329        9.246        3.085      314.931      114.001        0.131      336.892        8.495      862.090
03/18/2014  13:10:00      299.725      178.809       49.603      130.222      154.630      106.166    16957.764    23910.423    11271.298        8.819        2.607      349.009       78.768        0.051      336.954        8.599      862.096
03/18/2014  13:11:00      286.777      226.200      187.823      197.835      152.476      147.152    39138.860    23248.801    21653.777       12.635        4.202      365.250      136.596        0.140      336.569        7.956      862.058
03/18/2014  13:12:00      219.495      239.810      195.081      162.602      136.134      127.264    26439.488    18532.544    16195.999       10.244        3.058      325.095      114.157        0.123      336.648        8.087      862.033
03/18/2014  13:13:00      288.745      103.985       76.661      204.986      137.965      108.375    42019.318    19034.249    11745.086        8.642        3.640      306.898       66.415        0.047      336.696        8.168      862.001
03/18/2014  13:14:00      153.873      127.260       71.813      112.934      102.954       87.600    12754.018    10599.498     7673.704        3.802        1.551      199.680       61.077        0.094      337.422        9.381      861.964
03/18/2014  13:15:00      180.524      122.296       84.708      140.613       91.645       80.790    19771.890     8398.798     6526.987        4.470        1.735      218.049       52.648        0.058      337.523        9.553      861.964
03/18/2014  13:16:00      153.806      155.933      159.497      121.359      111.719       85.983    14728.087    12481.109     7393.014        5.400        1.730      219.023       64.026        0.085      337.282        9.149      861.952
03/18/2014  13:17:00      132.050      193.896      178.648      190.122      130.116      110.468    36146.427    16930.074    12203.185        7.610        3.264      234.590      106.463        0.206      337.430        9.397      861.908
03/18/2014  13:18:00      257.897      203.971      104.198      176.544      108.113      112.267    31167.727    11688.332    12603.843        8.721        2.773      328.809      111.014        0.114      336.993        8.664      861.968
03/18/2014  13:19:00       95.190      127.360       86.051      109.492       96.895       97.696    11988.430     9388.698     9544.434        3.180        1.546      159.003       84.593        0.283      337.218        9.041      861.967
03/18/2014  13:20:00      224.429      177.732       43.525      151.252      114.900       83.983    22877.030    13201.906     7053.181        6.348        2.157      286.281       37.963        0.018      337.078        8.807      861.986
03/18/2014  13:21:00      269.354      178.041       92.600      185.893      107.791      115.142    34556.183    11618.828    13257.606        8.612        2.972      322.878      118.144        0.134      337.223        9.049      862.018
03/18/2014  13:22:00      204.618      121.731      116.417      147.676      111.335      110.837    21808.108    12395.472    12284.862        5.835        2.324      238.091       92.200        0.150      336.841        8.412      862.051
03/18/2014  13:23:00      274.949      151.300       90.825      155.394      124.618      121.045    24147.370    15529.635    14651.981        8.052        2.716      313.829       76.237        0.059      336.757        8.271      862.043
03/18/2014  13:24:00      267.438      190.623       34.877      157.673      120.067       83.477    24860.774    14416.115     6968.364        7.765        2.312      328.421       51.843        0.025      336.991        8.660      862.037
03/18/2014  13:25:00      225.792      121.271       28.086      136.693      100.348       71.917    18684.944    10069.778     5172.033        5.020        1.696      256.298       21.863        0.007      337.107        8.855      862.029
03/18/2014  13:26:00      144.984       96.467       35.543      126.339       85.613       83.811    15961.551     7329.585     7024.330        3.095        1.516      174.144       54.778        0.099      337.228        9.059      862.016
03/18/2014  13:27:00      222.012      156.913       42.180      159.120      107.444       95.550    25319.327    11544.142     9129.798        6.083        2.300      271.866       38.310        0.020      336.804        8.349      861.997
03/18/2014  13:28:00      207.609      179.616      116.847      185.456      137.916      123.945    34393.898    19020.876    15362.368        7.888        3.439      274.524      101.521        0.137      336.847        8.420      861.988
03/18/2014  13:29:00      267.386      137.446       87.969      153.382      140.831      112.391    23526.002    19833.384    12631.804        7.705        2.800      300.644       84.572        0.079      336.848        8.422      861.966
03/18/2014  13:30:00      344.303      135.216       34.555      195.322      163.336       96.348    38150.652    26678.519     9282.948       10.605        3.706      369.903       91.937        0.062      336.681        8.142      861.973
03/18/2014  13:31:00      275.961      131.031       42.423      147.915      101.711       76.220    21878.985    10345.187     5809.437        6.657        1.902      305.490       32.737        0.011      336.665        8.114      861.992
03/18/2014  13:32:00      162.463      207.089      180.241      166.286      159.405      136.923    27651.055    25410.016    18748.002        8.677        3.590      263.211      131.502        0.250      336.889        8.491      861.944
03/18/2014  13:33:00      274.402      145.835      100.711      202.762      117.011       98.507    41112.407    13691.544     9703.596        8.559        3.225      310.748       70.302        0.051      336.905        8.516      861.935
03/18/2014  13:34:00      280.623      151.085       27.466      138.632       84.517       72.196    19218.891     7143.163     5212.200        6.695        1.579      318.710       25.955        0.007      336.736        8.234      861.942
03/18/2014  13:35:00      136.349       95.781       31.102      105.313       71.312       61.820    11090.767     5085.372     3821.714        2.436        1.000      166.629       45.617        0.075      336.879        8.475      861.916
03/18/2014  13:36:00      347.272      189.539       73.452      132.755       99.489      104.426    17623.883     9898.133    10904.700       10.016        1.921      395.630       70.710        0.032      336.719        8.206      861.891
03/18/2014  13:37:00      275.938      143.103       66.297      195.083      126.863      102.135    38057.491    16094.333    10431.608        8.279        3.229      310.838      106.697        0.118      336.888        8.490      861.884
03/18/2014  13:38:00      176.587      126.691       48.582      106.663       92.595       86.489    11377.053     8573.871     7480.266        3.851        1.372      217.333       35.533        0.027      337.038        8.739      861.884
03/18/2014  13:39:00      244.280      128.917       19.176      122.523       99.907       79.575    15011.799     9981.471     6332.233        5.399        1.566      276.210       52.026        0.035      337.524        9.554      861.893
03/18/2014  13:40:00      287.011      204.043       16.945      148.516      119.114       88.366    22056.901    14188.053     7808.508        8.417        2.203      352.149       48.637        0.019      337.093        8.832      861.917
03/18/2014  13:41:00      240.163      201.943       64.452      134.010       91.452       77.787    17958.778     8363.381     6050.872        6.749        1.619      313.782       69.798        0.049      336.838        8.404      861.889
03/18/2014  13:42:00      188.761      129.596       70.835       95.949       64.611       69.624     9206.180     4174.578     4847.484        3.783        0.911      228.967       58.787        0.066      337.062        8.779      861.851
03/18/2014  13:43:00      134.939       85.650       20.980      107.871       87.152       73.296    11636.235     7595.558     5372.290        2.529        1.230      159.827       38.716        0.059      337.587        9.660      861.815
03/18/2014  13:44:00      259.913      143.513      108.115      191.445      128.195       94.349    36651.082    16434.009     8901.681        8.090        3.099      296.902       78.160        0.069      337.341        9.247      861.784
03/18/2014  13:45:00      298.934      159.557       93.990      202.928      133.489      106.795    41179.654    17819.327    11405.199        9.701        3.520      338.851       72.189        0.045      337.201        9.013      861.757
03/18/2014  13:46:00      351.076      198.899       68.695      180.582      151.882      112.657    32609.779    23068.129    12691.603       11.794        3.418      403.504       84.947        0.044      337.109        8.858      861.750
03/18/2014  13:47:00      378.850      202.331       74.926      209.320      151.457      117.523    43814.777    22939.275    13811.722       13.531        4.028      429.494       98.710        0.053      336.969        8.624      861.740
03/18/2014  13:48:00      271.105      162.703       66.592      155.875      104.305       98.406    24296.877    10879.485     9683.777        7.462        2.243      316.181       89.038        0.079      337.123        8.881      861.752
03/18/2014  13:49:00      155.255      155.710       76.184       81.037       66.807       70.695     6566.968     4463.226     4997.760        3.509        0.801      219.886       24.603        0.013      337.501        9.514      861.751
03/18/2014  13:50:00      152.345      117.880       31.082      106.663       76.839       73.104    11376.999     5904.270     5344.156        3.034        1.131      192.626       55.677        0.084      337.316        9.206      861.729
03/18/2014  13:51:00      102.788       93.722       79.908      104.445      100.604       63.164    10908.658    10121.205     3989.670        2.537        1.251      139.101       31.089        0.050      337.539        9.579      861.709
03/18/2014  13:52:00      105.107      112.145      158.643       88.714      129.248       80.311     7870.096    16705.119     6449.913        3.990        1.551      153.701       74.318        0.234      337.241        9.080      861.678
03/18/2014  13:53:00      109.537       62.603       59.175       93.653       94.411       79.413     8770.861     8913.508     6306.403        2.170        1.200      126.165       78.584        0.388      336.950        8.594      861.665
03/18/2014  13:54:00       29.798       22.758       22.739       38.134       49.824       49.638     1454.167     2482.451     2463.948        0.416        0.320       37.495       29.117        0.603      337.490        9.498      861.623
03/18/2014  13:55:00      106.190      105.333      102.874      107.890       63.665       60.534    11640.171     4053.193     3664.385        2.615        0.968      149.570       42.188        0.080      337.305        9.189      861.595
03/18/2014  13:56:00      166.813      133.490       60.069       93.730       58.683       66.845     8785.266     3443.749     4468.316        3.297        0.835      213.649       27.340        0.016      337.395        9.338      861.569
03/18/2014  13:57:00      177.018      140.512      166.682      138.104      151.879      115.379    19072.795    23067.148    13312.210        6.715        2.773      226.007      102.669        0.206      337.697        9.841      861.565
03/18/2014  13:58:00      236.485      190.198      108.669      140.692       88.155      104.089    19794.187     7771.331    10834.521        7.115        1.920      303.481      100.084        0.109      337.207        9.021      861.604
03/18/2014  13:59:00      224.575      148.259      105.399      123.886       93.572       78.402    15347.748     8755.722     6146.846        5.688        1.513      269.099       64.815        0.058      337.216        9.037      861.623
03/18/2014  14:00:00      158.476      170.081      120.551       92.658       76.666       90.773     8585.496     5877.621     8239.767        4.563        1.135      232.470       63.273        0.074      336.648        8.087      861.610
03/18/2014  14:01:00      135.220       62.759       42.152       92.442       59.023       55.357     8545.543     3483.741     3064.405        1.954        0.755      149.075       49.029        0.108      336.719        8.207      861.566
03/18/2014  14:02:00       75.616       77.615       22.955       80.554       58.865       54.397     6488.993     3465.054     2959.084        1.259        0.646      108.360       36.619        0.114      337.284        9.154      861.517
03/18/2014  14:03:00       -0.484      -13.376       18.788       48.948       52.966       40.349     2395.934     2805.358     1628.060        0.368        0.341       13.385       35.669        7.102      337.906       10.198      861.504
03/18/2014  14:04:00      100.324       35.950      101.964      102.575      122.949       85.359    10521.703    15116.441     7286.239        2.733        1.646      106.570       82.245        0.596      337.524        9.557      861.482
03/18/2014  14:05:00       46.142       63.139       82.370       76.614       65.955       48.376     5869.725     4350.001     2340.205        1.273        0.628       78.203       45.188        0.334      337.624        9.723      861.490
03/18/2014  14:06:00       45.055      -48.646       21.494       58.753       83.232       43.838     3451.866     6927.647     1921.740        0.858        0.615       66.305       50.906        0.589      337.924       10.227      861.462
03/18/2014  14:07:00      103.545       68.551       29.859      102.227       59.201       46.352    10450.295     3504.813     2148.489        1.620        0.805      124.181       28.953        0.054      337.862       10.122      861.432
03/18/2014  14:08:00      145.616      112.236       64.188      137.851       73.581       87.742    19002.898     5414.217     7698.590        3.501        1.606      183.851       93.817        0.260      337.786        9.993      861.424
03/18/2014  14:09:00      158.864      105.297       28.868       76.319       47.101       58.489     5824.610     2218.460     3420.917        2.431        0.573      190.592       21.967        0.013      337.441        9.415      861.441
03/18/2014  14:10:00       95.689       78.571       29.291       59.969       63.972       62.886     3596.253     4092.474     3954.685        1.391        0.582      123.814       38.092        0.095      337.436        9.409      861.424
03/18/2014  14:11:00      106.698      121.570      109.577       94.869       86.940       82.347     9000.115     7558.515     6780.984        3.075        1.167      161.752       70.155        0.188      337.679        9.814      861.424
03/18/2014  14:12:00      108.986       69.378      115.968      125.842      105.195       91.342    15836.085    11065.936     8343.313        3.269        1.762      129.195       85.370        0.437      337.415        9.371      861.408
03/18/2014  14:13:00      115.240       68.820      140.482      116.173      178.052      132.677    13496.100    31702.657    17603.105        5.026        3.140      134.225      139.099        1.074      337.443        9.418      861.363
03/18/2014  14:14:00      141.297       45.634       77.158       92.047      110.027       73.650     8472.621    12105.995     5424.374        2.700        1.300      148.483       78.733        0.281      337.350        9.263      861.359
03/18/2014  14:15:00       64.676       88.530      106.314      108.367      125.882       86.108    11743.507    15846.214     7414.666        2.916        1.750      109.638       77.513        0.500      337.525        9.556      861.332
03/18/2014  14:16:00      126.764      -69.278       78.736      121.425      124.602       76.240    14743.993    15525.705     5812.462        3.157        1.804      144.460       72.418        0.251      337.528        9.562      861.311
03/18/2014  14:17:00      130.439      149.587      118.009      110.730       72.535       82.473    12261.053     5261.380     6801.842        3.882        1.216      198.471       62.785        0.100      337.232        9.066      861.318
03/18/2014  14:18:00      193.604      166.048       99.699      104.293       80.353       88.344    10877.119     6456.567     7804.646        5.006        1.257      255.058       68.839        0.073      337.248        9.091      861.332
03/18/2014  14:19:00      221.847      130.766       62.333      113.108       73.085       90.817    12793.469     5341.364     8247.767        4.829        1.319      257.519       66.467        0.067      337.226        9.052      861.337
03/18/2014  14:20:00      178.093      125.472       41.077      107.692       96.833       71.810    11597.585     9376.654     5156.622        3.763        1.307      217.854       29.561        0.018      337.650        9.766      861.329
03/18/2014  14:21:00      228.790      177.106       53.188      170.134      123.976      103.976    28945.425    15370.129    10810.979        7.082        2.756      289.329       88.221        0.093      337.400        9.345      861.333
03/18/2014  14:22:00       92.844      187.371      180.431      132.352      145.224      107.810    17517.101    21090.098    11623.054        6.325        2.512      209.112       96.687        0.214      337.364        9.285      861.337
03/18/2014  14:23:00      241.082      161.787       21.297      144.008      105.943       75.909    20738.187    11223.956     5762.167        6.123        1.886      290.337       36.452        0.016      337.264        9.118      861.357
03/18/2014  14:24:00      151.164      181.188        7.372      159.975       98.714       84.797    25591.950     9744.506     7190.546        4.912        2.126      235.965       55.810        0.056      337.112        8.865      861.351
03/18/2014  14:25:00      163.748      117.733       15.758       96.821       83.531       72.020     9374.385     6977.375     5186.826        3.123        1.077      201.680       48.984        0.059      337.210        9.030      861.352
03/18/2014  14:26:00      167.821      102.372       32.088      102.838       47.225       46.902    10575.745     2230.206     2199.783        2.734        0.750      196.581       27.303        0.019      337.203        9.015      861.335
03/18/2014  14:27:00      205.266       82.903       52.429      109.108      119.084       99.043    11904.620    14181.115     9809.525        4.382        1.795      221.375       72.552        0.107      337.193        8.998      861.314
03/18/2014  14:28:00       83.504      166.504      203.399      122.406      208.008      150.569    14983.332    43267.270    22671.065        7.848        4.046      186.270      164.792        0.783      337.441        9.415      861.263
03/18/2014  14:29:00      254.027      150.115       39.858      155.777      168.510       99.532    24266.357    28395.785     9906.704        7.560        3.128      295.067       79.220        0.072      337.327        9.223      861.281
03/18/2014  14:30:00      319.278      184.836       60.607      140.027       92.562       82.869    19607.686     8567.783     6867.329        8.740        1.752      368.921       44.480        0.015      337.067        8.787      861.289
03/18/2014  14:31:00      283.451      143.573       37.522      131.673      106.518       75.967    17337.890    11346.022     5771.010        6.840        1.723      317.739       48.974        0.024      337.138        8.908      861.265
03/18/2014  14:32:00      190.498      113.939       22.272      107.616       82.667       64.749    11581.114     6833.890     4192.403        3.618        1.130      221.973       26.336        0.014      337.493        9.502      861.258
03/18/2014  14:33:00      115.265      117.188       10.128      128.498       92.653       63.893    16511.820     8584.531     4082.310        2.814        1.459      164.374       46.901        0.081      337.511        9.531      861.255
03/18/2014  14:34:00      206.687      172.582       46.760      152.975       88.732       79.361    23401.294     7873.399     6298.184        5.612        1.879      269.266       81.181        0.091      337.527        9.559      861.252
03/18/2014  14:35:00      160.006      106.396       30.962       82.676       84.199       68.680     6835.315     7089.411     4716.962        2.826        0.932      192.151       34.707        0.033      337.452        9.433      861.253
03/18/2014  14:36:00      287.218      129.715       37.413      148.287       94.203       74.899    21988.967     8874.159     5609.815        6.859        1.824      315.151       71.086        0.051      337.283        9.150      861.225
03/18/2014  14:37:00      263.433      158.031       39.728       90.053       89.585       64.160     8109.534     8025.443     4116.518        5.810        1.013      307.198       46.044        0.022      337.164        8.950      861.225
03/18/2014  14:38:00      157.619      154.187       22.771      128.869      117.937       67.040    16607.178    13909.070     4494.419        4.207        1.751      220.494       34.172        0.024      337.274        9.135      861.222
03/18/2014  14:39:00      133.301      109.884       17.641       92.935       63.431       57.526     8636.902     4023.517     3309.285        2.306        0.798      172.753       41.259        0.057      337.030        8.728      861.217
03/18/2014  14:40:00      244.476      141.545       57.648       85.141       63.036       62.700     7248.962     3973.518     3931.309        4.914        0.758      282.495       41.645        0.022      337.204        9.017      861.206
03/18/2014  14:41:00      104.957       41.913       32.491      102.185       84.030       58.301    10441.865     7061.125     3398.960        1.736        1.045      113.016       34.590        0.094      337.728        9.897      861.201
03/18/2014  14:42:00       24.106       -9.264       43.668       60.652       62.196       53.107     3678.696     3868.367     2820.395        0.647        0.518       25.825       36.595        2.008      337.826       10.063      861.198
03/18/2014  14:43:00       23.849      -83.750        4.646       40.589       56.540       42.780     1647.471     3196.796     1830.133        0.714        0.334       87.079        8.014        0.008      337.502        9.519      861.184
03/18/2014  14:44:00       37.406       15.575       11.723       52.565       59.558       41.765     2763.123     3547.153     1744.279        0.492        0.403       40.519       34.475        0.724      337.838       10.083      861.185
03/18/2014  14:45:00       89.338       57.078       32.986       77.911       63.528       48.997     6070.089     4035.839     2400.698        1.241        0.625      106.015       37.563        0.126      337.567        9.628      861.170
03/18/2014  14:46:00      121.525       63.763       19.310       99.897       56.816       41.665     9979.476     3228.055     1735.971        1.707        0.747      137.237       33.060        0.058      337.635        9.742      861.156
03/18/2014  14:47:00       81.966      114.884       54.818      110.691       83.800       66.333    12252.589     7022.490     4400.083        2.329        1.184      141.127       47.443        0.113      337.979       10.318      861.128
03/18/2014  14:48:00       96.499       52.789      117.939       98.973      183.609      114.999     9795.728    33712.414    13224.782        4.136        2.837      109.994      119.606        1.182      337.931       10.236      861.131
03/18/2014  14:49:00      130.189       43.230       96.624      131.228      160.935      107.350    17220.739    25899.989    11524.077        4.139        2.732      137.179       97.903        0.509      337.797       10.011      861.126
03/18/2014  14:50:00      222.898      199.135      198.263      179.682      177.307      146.416    32285.751    31437.831    21437.510       10.689        4.258      298.895      131.816        0.194      337.527        9.559      861.119
03/18/2014  14:51:00      264.395      252.013      221.500      189.583      163.951      131.267    35941.609    26879.811    17231.098       13.125        4.003      365.261      123.692        0.115      337.174        8.966      861.140
03/18/2014  14:52:00      213.249      198.270      144.937      153.535      109.601      120.126    23572.859    12012.377    14430.210        7.789        2.501      291.180       99.357        0.116      337.191        8.995      861.196
03/18/2014  14:53:00      169.902       96.773       56.736      129.081      133.867       67.632    16662.026    17920.244     4574.033        4.030        1.958      195.530       79.106        0.164      337.207        9.023      861.221
03/18/2014  14:54:00       46.092     -106.070       -0.278       40.062       33.537       28.147     1604.989     1124.736      792.272        0.845        0.176      115.652       21.959        0.036      337.105        8.856      861.205
03/18/2014  14:55:00       37.591       -0.307        5.349       53.009       69.981       40.664     2809.903     4897.355     1653.566        0.540        0.468       37.592       51.327        1.864      337.475        9.475      861.179
03/18/2014  14:56:00      112.048       96.882       48.441      111.597       57.583       57.099    12454.000     3315.800     3260.240        2.165        0.952      148.125       42.072        0.081      337.824       10.058      861.175
03/18/2014  14:57:00      250.903      188.006        9.950      125.897       90.034       66.713    15850.175     8106.156     4450.684        6.340        1.420      313.525       31.294        0.010      337.198        9.007      861.197
03/18/2014  14:58:00      152.242      119.601       -7.247      121.132      108.825       63.136    14673.005    11842.821     3986.201        3.401        1.525      193.603       45.296        0.055      337.250        9.095      861.197
03/18/2014  14:59:00      112.514      101.883      132.664      120.944      140.607       96.310    14627.528    19770.458     9275.624        4.215        2.184      151.788      106.351        0.491      337.529        9.563      861.201
03/18/2014  15:00:00       44.386       35.609       98.861       56.869       69.404       65.184     3234.045     4816.918     4248.926        1.265        0.615       56.904       54.266        0.909      337.394        9.338      861.212
03/18/2014  15:01:00       30.523        3.956       17.903       31.266       40.479       28.520      977.579     1638.581      813.411        0.235        0.171       30.779       23.861        0.601      337.439        9.414      861.181
03/18/2014  15:02:00       35.780        7.569       36.943       44.950       42.857       36.214     2020.510     1836.764     1311.454        0.393        0.258       36.572       26.136        0.511      337.700        9.852      861.182
03/18/2014  15:03:00       60.823       97.035       83.719       52.268       61.190       46.777     2731.943     3744.270     2188.057        1.439        0.433      114.522       38.497        0.113      337.753        9.940      861.181
03/18/2014  15:04:00      128.016      117.057      104.789       89.498      100.215       83.067     8009.963    10042.994     6900.082        3.301        1.248      173.466       71.188        0.168      337.827       10.061      861.185
03/18/2014  15:05:00       74.149       77.178      132.517      120.840      117.271       95.018    14602.304    13752.546     9028.335        3.319        1.869      107.026       88.534        0.684      337.853       10.106      861.201
03/18/2014  15:06:00       96.696      -37.187       67.907       83.169      109.043       88.583     6917.009    11890.373     7846.914        2.099        1.333      103.600       90.395        0.761      337.523        9.553      861.220
03/18/2014  15:07:00       91.076     -108.199        2.784       49.779       70.628       44.981     2477.914     4988.272     2023.286        1.475        0.474      141.428       44.056        0.097      337.454        9.439      861.177
03/18/2014  15:08:00       81.060      -57.140       18.916       65.439       74.168       46.839     4282.324     5500.932     2193.914        1.108        0.599       99.175       52.446        0.280      337.384        9.321      861.134
03/18/2014  15:09:00      113.743       94.064       59.934       80.641       64.357       59.593     6502.963     4141.823     3551.311        1.978        0.710      147.599       56.290        0.145      337.560        9.616      861.154
03/18/2014  15:10:00      243.666      158.574       43.652      147.786      111.437       83.531    21840.786    12418.201     6977.380        6.382        2.062      290.721       60.349        0.043      337.645        9.758      861.161
03/18/2014  15:11:00      171.951      176.199      138.170      165.117       99.862      111.596    27263.543     9972.328    12453.638        6.469        2.484      246.198      110.220        0.200      337.613        9.701      861.141
03/18/2014  15:12:00      155.436      125.174      121.207      115.888       91.359       76.761    13429.969     8346.427     5892.306        4.109        1.383      199.572       55.178        0.076      337.653        9.769      861.133
03/18/2014  15:13:00      246.872      156.386       87.373      143.402       98.019       90.943    20564.083     9607.822     8270.613        6.573        1.922      292.236       75.180        0.066      337.563        9.618      861.144
03/18/2014  15:14:00      204.265       88.282       37.492      150.765       95.552       73.378    22730.201     9130.209     5384.262        4.408        1.862      222.526       45.696        0.042      337.482        9.483      861.141
03/18/2014  15:15:00      181.042      113.884       23.513      146.602       95.513       80.898    21492.221     9122.821     6544.469        4.172        1.858      213.883       55.605        0.068      337.604        9.687      861.143
03/18/2014  15:16:00      154.032      158.745       19.403      112.330      104.371       76.256    12618.005    10893.215     5815.024        3.931        1.466      221.191       65.762        0.088      337.610        9.699      861.112
03/18/2014  15:17:00      171.168      169.932       -2.999      128.102      110.839       86.681    16410.085    12285.177     7513.536        4.719        1.810      241.196       69.265        0.082      337.459        9.444      861.097
03/18/2014  15:18:00      134.905      140.503        3.249       96.854       88.262       61.641     9380.764     7790.226     3799.553        2.946        1.049      194.784       54.276        0.078      337.527        9.558      861.098
03/18/2014  15:19:00      105.743      145.907      162.713      103.118       88.078       73.362    10633.368     7757.708     5382.034        4.135        1.189      180.196       62.703        0.121      338.068       10.465      861.083
03/18/2014  15:20:00      314.538      204.546       34.668      128.587      126.040       97.105    16534.739    15886.057     9429.463        9.190        2.093      375.197       38.383        0.010      337.646        9.757      861.091
03/18/2014  15:21:00      155.371      -35.425       58.714      150.130      121.164       74.022    22539.142    14680.747     5479.201        3.576        2.135      159.359       71.246        0.200      338.065       10.461      861.100
03/18/2014  15:22:00      126.049      120.337      116.192      120.216      102.872       86.564    14451.986    10582.566     7493.243        3.819        1.626      174.268       78.266        0.202      338.019       10.384      861.111
03/18/2014  15:23:00      188.580       82.227       14.737      105.220       79.167       66.806    11071.246     6267.338     4463.107        3.217        1.090      205.728       46.526        0.051      337.723        9.888      861.139
03/18/2014  15:24:00      139.736       78.700        7.090       99.846       74.308       55.398     9969.166     5521.736     3068.894        2.216        0.928      160.374       24.063        0.023      337.722        9.886      861.148
03/18/2014  15:25:00       29.064       33.756       15.631       35.303       45.211       36.883     1246.279     2044.028     1360.384        0.344        0.233       44.544       27.968        0.394      337.583        9.655      861.118
03/18/2014  15:26:00      108.335       89.615       11.952       75.527       56.729       55.896     5704.341     3218.138     3124.380        1.598        0.602      140.596       37.059        0.069      337.656        9.776      861.117
03/18/2014  15:27:00       61.923       32.781       70.079       86.322       97.459       84.503     7451.521     9498.351     7140.725        1.695        1.205       70.064       72.453        1.069      337.919       10.219      861.113
03/18/2014  15:28:00      189.276      155.986      126.149      120.980      103.731      106.862    14636.271    10760.060    11419.397        5.644        1.841      245.269       85.282        0.121      337.742        9.919      861.095
03/18/2014  15:29:00      252.615      165.766       25.331      120.122       74.001       63.313    14429.330     5476.177     4008.589        5.792        1.196      302.147       23.668        0.006      337.304        9.186      861.132
03/18/2014  15:30:00      149.415       86.541        7.480       96.693       60.444       35.980     9349.523     3653.526     1294.542        2.208        0.715      172.667       24.744        0.021      337.462        9.452      861.115
03/18/2014  15:31:00      207.717      132.807       74.326       97.531       64.007       68.413     9512.350     4096.838     4680.286        4.230        0.914      246.544       30.919        0.016      337.436        9.407      861.110
03/18/2014  15:32:00      135.364      123.929       65.287      109.157       67.043       89.527    11915.287     4494.762     8015.092        3.118        1.221      183.526       73.502        0.160      337.855       10.109      861.092
03/18/2014  15:33:00      236.312      167.672       99.360      170.200      125.175      133.785    28967.999    15668.890    17898.413        7.817        3.127      289.754      113.538        0.154      337.744        9.922      861.074
03/18/2014  15:34:00       95.033       68.051       11.492       94.532       63.715       45.739     8936.275     4059.622     2092.083        1.444        0.754      116.886       31.667        0.073      337.694        9.842      861.107
03/18/2014  15:35:00      145.045       71.335       45.175      106.983       76.822       60.471    11445.271     5901.627     3656.755        2.458        1.050      161.638       40.411        0.063      337.953       10.273      861.091
03/18/2014  15:36:00      244.555      143.800       74.183      161.457      102.686       97.916    26068.467    10544.400     9587.624        6.609        2.310      283.700       94.706        0.111      337.677        9.809      861.066
03/18/2014  15:37:00      221.224      146.789       16.202      117.710      111.573       62.120    13855.632    12448.512     3858.852        5.045        1.508      265.494       35.905        0.018      337.731        9.899      861.094
03/18/2014  15:38:00      174.322      164.939      157.790      165.057       98.654      111.261    27243.968     9732.599    12379.012        6.591        2.468      239.985      111.443        0.216      337.741        9.916      861.091
03/18/2014  15:39:00      119.279      238.902      229.718      138.628      129.262      113.232    19217.612    16708.590    12821.522        8.640        2.437      267.023       97.736        0.134      337.528        9.560      861.079
03/18/2014  15:40:00      206.258       90.334      110.489       98.290      117.882       79.084     9660.915    13896.070     6254.287        4.635        1.491      225.173       67.604        0.090      337.502        9.517      861.103
03/18/2014  15:41:00      126.210      114.330      107.421       83.812      130.123       93.721     7024.447    16932.051     8783.707        3.663        1.637      170.295       89.562        0.277      337.701        9.850      861.115
03/18/2014  15:42:00       36.354      -82.065       26.547       40.917       76.026       34.944     1674.163     5779.907     1221.092        0.872        0.434       89.757       38.451        0.184      337.650        9.767      861.132
03/18/2014  15:43:00      180.183      119.387       58.801      152.879       93.370       47.324    23371.948     8717.870     2239.569        4.225        1.716      216.146       56.795        0.069      337.805       10.024      861.141
03/18/2014  15:44:00      117.614      155.250      176.178      122.325      108.611       80.902    14963.493    11796.287     6545.175        5.113        1.665      194.771       85.713        0.194      337.944       10.257      861.120
03/18/2014  15:45:00      199.629      167.856      148.608      135.847      112.717       94.163    18454.341    12705.052     8866.664        6.506        2.001      260.821       71.769        0.076      337.792       10.000      861.141
03/18/2014  15:46:00       67.596      132.243      119.737      104.764       97.346       84.594    10975.538     9476.252     7156.079        3.200        1.380      148.518       73.555        0.245      337.811       10.035      861.136
03/18/2014  15:47:00      212.998      136.680      116.696      124.658       90.999       84.792    15539.544     8280.812     7189.636        5.433        1.550      253.080       78.743        0.097      337.702        9.851      861.141
03/18/2014  15:48:00       53.099       98.653      124.369       86.451       67.431       57.491     7473.719     4546.954     3305.222        2.167        0.766      112.036       53.699        0.230      337.735        9.910      861.125
03/18/2014  15:49:00      117.998      194.399      160.260      124.278       81.982       91.384    15444.964     6721.007     8351.053        5.395        1.526      227.408       80.815        0.126      337.936       10.243      861.093
03/18/2014  15:50:00      226.461      -23.251       92.507      151.145      169.785      105.416    22844.922    28827.047    11112.629        6.157        3.139      227.651      116.298        0.261      337.931       10.236      861.059
03/18/2014  15:51:00      226.573       43.114      113.646      153.406      156.969      106.854    23533.389    24639.395    11417.682        6.284        2.980      230.639       88.098        0.146      337.857       10.111      861.031
03/18/2014  15:52:00      167.481      153.296       95.135      132.077      116.202      109.614    17444.306    13502.888    12015.187        5.177        2.148      227.045       90.567        0.159      338.061       10.453      861.033
03/18/2014  15:53:00      329.282      203.703       48.441      108.652      107.362       93.600    11805.190    11526.558     8760.917        9.217        1.605      387.197       51.023        0.017      337.716        9.875      861.021
03/18/2014  15:54:00      241.636      122.792       47.364      124.003       92.704       70.032    15376.844     8594.038     4904.501        5.229        1.444      271.045       48.327        0.032      337.710        9.865      861.011
03/18/2014  15:55:00      124.368       97.630       76.625      150.733       83.968       76.889    22720.392     7050.630     5911.873        3.327        1.784      158.111       72.625        0.211      338.275       10.813      861.007
03/18/2014  15:56:00       95.177       86.603      132.307      107.266       92.192       69.142    11505.934     8499.412     4780.622        2.942        1.239      128.680       65.624        0.260      338.099       10.519      861.020
03/18/2014  15:57:00      137.002      191.891      209.185      167.039      143.967      112.323    27901.876    20726.596    12616.499        8.029        3.062      235.779      125.159        0.282      337.929       10.233      860.987
03/18/2014  15:58:00      108.317      132.091      131.484       92.871      150.373      106.644     8625.056    22612.162    11372.914        4.453        2.131      170.823      105.884        0.384      337.616        9.709      860.996
03/18/2014  15:59:00       80.686      139.267      166.984      115.720      117.078       99.686    13391.076    13707.369     9937.222        4.541        1.852      160.952      109.512        0.463      337.764        9.955      860.981
03/18/2014  16:00:00       82.590        3.245       80.310      100.100       94.253       57.606    10019.943     8883.588     3318.477        1.775        1.111       82.653       50.073        0.367      337.998       10.350      860.947
03/18/2014  16:01:00       -8.580        2.674       44.588       42.076       57.951       30.666     1770.431     3358.277      940.404        0.407        0.303        8.987       29.417       10.715      338.534       11.251      860.899
03/18/2014  16:02:00       20.561       44.768       69.259       56.387       87.215       68.527     3179.509     7606.458     4695.972        1.135        0.774       49.263       63.583        1.666      338.283       10.828      860.890
03/18/2014  16:03:00      196.462      120.636       29.602      126.331      102.479       78.148    15959.647    10501.971     6107.176        4.329        1.628      230.544       37.801        0.027      337.908       10.197      860.875
03/18/2014  16:04:00      203.271      163.782       23.380      143.060       98.497       88.980    20466.047     9701.656     7917.384        5.338        1.904      261.043       66.827        0.066      337.713        9.871      860.842
03/18/2014  16:05:00      309.017      201.569       37.788      167.450      122.206       92.638    28039.345    14934.288     8581.722        9.454        2.578      368.947       46.915        0.016      337.771        9.967      860.800
03/18/2014  16:06:00      321.741      170.879       13.418      142.400      100.253       86.698    20277.657    10050.622     7516.607        8.536        1.892      364.303       59.463        0.027      337.591        9.666      860.833
03/18/2014  16:07:00      247.540      136.327       31.756      123.299       92.725       65.834    15202.601     8597.897     4334.165        5.450        1.407      282.597       60.149        0.045      337.711        9.867      860.820
03/18/2014  16:08:00      329.052      213.729       45.009      202.092      117.436       95.791    40841.095    13791.325     9175.905       10.988        3.190      392.372       19.136        0.002      337.971       10.303      860.788
03/18/2014  16:09:00      380.366      244.636       59.504      177.597      149.156       95.193    31540.714    22247.451     9061.785       13.545        3.142      452.245       51.689        0.013      337.814       10.040      860.758
03/18/2014  16:10:00      346.212      209.638       69.980      167.163      138.195       99.762    27943.505    19097.845     9952.387       11.284        2.850      404.735       71.510        0.031      337.814       10.039      860.764
03/18/2014  16:11:00      424.135      254.476       80.287      113.640       97.689      114.962    12914.053     9543.141    13216.223       14.338        1.784      494.619       79.471        0.026      337.542        9.583      860.780
03/18/2014  16:12:00      344.242      189.171       56.900      174.637       95.559       97.077    30498.242     9131.575     9423.988       10.328        2.453      392.795       57.583        0.021      337.502        9.515      860.772
03/18/2014  16:13:00      202.234      121.251       87.741      144.926       91.578       72.056    21003.676     8386.444     5192.005        4.893        1.729      235.798       62.830        0.071      337.979       10.316      860.726
03/18/2014  16:14:00      131.984      159.859      173.767      140.786      153.280      110.660    19820.756    23494.779    12245.721        6.435        2.778      207.304      114.745        0.306      338.043       10.422      860.723
03/18/2014  16:15:00      243.636      249.565      171.022      154.454      137.056      120.388    23856.029    18784.420    14493.194       10.400        2.857      348.771      111.807        0.103      337.887       10.161      860.749
03/18/2014  16:16:00      195.237      186.937      170.794      122.402       92.921       99.007    14982.318     8634.303     9802.406        6.782        1.671      270.302       65.862        0.059      337.856       10.109      860.762
03/18/2014  16:17:00      163.043       30.464       68.565      133.482      121.637       88.649    17817.339    14795.481     7858.713        3.633        2.024      165.865       67.130        0.164      338.073       10.474      860.772
03/18/2014  16:18:00      135.396       94.231       67.491      107.244       76.791       73.869    11501.302     5896.910     5456.672        2.731        1.143      164.959       52.822        0.103      337.892       10.172      860.777
03/18/2014  16:19:00      145.976       78.137       37.594       74.159       62.848       59.052     5499.591     3949.904     3487.186        2.088        0.647      165.573       38.731        0.055      337.871       10.136      860.762
03/18/2014  16:20:00       81.200       73.827       72.276       90.034       67.209       59.073     8106.074     4517.099     3489.572        1.669        0.806      109.744       37.440        0.116      338.259       10.787      860.743
03/18/2014  16:21:00      179.814       99.609       77.994       77.148       55.038       57.862     5951.863     3029.142     3348.032        3.033        0.616      205.560       44.020        0.046      337.972       10.304      860.734
03/18/2014  16:22:00      316.428      175.753       57.189      116.046       99.440       85.224    13466.790     9888.324     7263.157        8.245        1.531      361.961       50.490        0.019      337.770        9.966      860.727
03/18/2014  16:23:00      334.929      202.305       76.930      119.814       93.857       85.772    14355.420     8809.057     7356.824        9.477        1.526      391.286       62.094        0.025      337.641        9.749      860.739
03/18/2014  16:24:00      252.316       96.848       68.447      150.068      135.240      100.549    22520.496    18289.828    10110.161        6.431        2.546      270.265       82.669        0.094      337.923       10.221      860.743
03/18/2014  16:25:00      187.887       99.564      125.889      163.487      128.765      106.723    26727.991    16580.472    11389.872        5.787        2.735      212.637      110.060        0.268      338.060       10.452      860.760
03/18/2014  16:26:00      304.739      177.031       77.050      116.223      110.446      112.506    13507.711    12198.339    12657.663        8.425        1.918      352.428       96.063        0.074      337.776        9.976      860.758
03/18/2014  16:27:00      224.278      145.347       65.703      102.014       77.399       62.277    10406.831     5990.577     3878.389        4.801        1.014      267.257       45.630        0.029      337.793       10.004      860.767
03/18/2014  16:28:00      148.474      135.940       88.783      110.535      112.176      119.553    12218.086    12583.547    14292.960        4.374        1.955      201.306       97.281        0.234      337.659        9.780      860.735
03/18/2014  16:29:00      180.720      160.585       86.015      136.573       93.771       98.252    18652.069     8793.088     9653.471        5.146        1.855      241.758       74.170        0.094      337.847       10.096      860.718
03/18/2014  16:30:00      116.900      105.368       68.788      113.734      123.970      117.933    12935.536    15368.682    13908.169        3.585        2.111      157.379      103.562        0.433      338.103       10.526      860.724
03/18/2014  16:31:00      296.596      220.873      145.590      200.620      129.677      125.933    40248.222    16816.164    15859.069       11.542        3.646      369.803      126.520        0.117      337.909       10.199      860.705
03/18/2014  16:32:00      236.503      194.901       19.074      148.365       98.849       77.578    22012.219     9771.166     6018.408        6.604        1.890      306.464       51.700        0.028      337.857       10.112      860.761
03/18/2014  16:33:00      331.875      210.781       45.477      152.338      119.308       66.526    23206.837    14234.321     4425.752        9.924        2.093      393.153       17.264        0.002      337.845       10.091      860.783
03/18/2014  16:34:00      198.573      142.816       20.386      129.575       93.444       60.586    16789.663     8731.786     3670.623        4.471        1.460      244.597       36.892        0.023      338.031       10.404      860.790
03/18/2014  16:35:00      133.264      165.283        4.076      122.329      107.039       76.483    14964.457    11457.450     5849.652        3.868        1.614      212.315       54.626        0.066      337.643        9.752      860.778
03/18/2014  16:36:00       98.251      152.338       72.749      109.850      118.813       97.301    12066.990    14116.636     9467.502        3.689        1.783      181.273       61.788        0.116      337.803       10.022      860.754
03/18/2014  16:37:00      105.051      145.199      138.587      117.626      105.239       91.196    13835.940    11075.159     8316.636        4.227        1.661      179.216       79.300        0.196      338.161       10.621      860.743
03/18/2014  16:38:00      198.428      121.538       87.537      197.928      115.464       86.791    39175.547    13332.002     7532.728        6.091        3.002      232.691       71.208        0.094      337.828       10.064      860.742
03/18/2014  16:39:00      236.301      144.672       88.859      120.704       91.230       78.119    14569.525     8322.892     6102.541        5.682        1.450      277.071       69.102        0.062      337.823       10.053      860.717
03/18/2014  16:40:00      149.019      137.748       71.879      142.297       91.608       83.469    20248.361     8391.971     6967.122        4.097        1.780      202.931       85.982        0.180      338.189       10.669      860.712
03/18/2014  16:41:00      170.843       92.810       90.281      115.958       94.962       87.999    13446.164     9017.766     7743.909        3.807        1.510      194.425       58.476        0.090      338.011       10.371      860.717
03/18/2014  16:42:00      209.801      150.424      103.304      202.217      150.073      133.662    40891.767    22521.850    17865.621        7.928        4.064      258.154      128.149        0.246      337.999       10.348      860.723
03/18/2014  16:43:00      330.882      195.082       41.871      155.530      116.175       84.444    24189.435    13496.717     7130.847        9.705        2.241      384.109       59.087        0.024      337.830       10.065      860.729
03/18/2014  16:44:00      145.651       72.923      104.754       99.507      145.845       79.334     9901.711    21270.769     6293.943        3.748        1.873      162.887       79.859        0.240      338.054       10.443      860.740
03/18/2014  16:45:00      155.779      152.253       90.863      115.652       99.565       76.906    13375.457     9913.207     5914.497        4.245        1.460      217.826       58.959        0.073      338.170       10.636      860.739
03/18/2014  16:46:00      239.890      115.754       98.390      140.595      125.426      107.278    19766.870    15731.603    11508.638        6.381        2.350      266.357       71.655        0.072      338.126       10.561      860.732
03/18/2014  16:47:00      165.329      126.762      105.348      132.580      118.622       90.739    17577.351    14071.082     8233.596        4.718        1.994      208.332       72.929        0.123      338.058       10.448      860.730
03/18/2014  16:48:00      178.706      103.839       77.525      128.703       85.435       81.271    16564.347     7299.116     6604.909        3.959        1.523      206.684       46.559        0.051      338.055       10.444      860.733
03/18/2014  16:49:00      292.846      187.403      138.405      174.179      119.956      113.966    30338.369    14389.508    12988.169        9.886        2.886      347.676       93.799        0.073      337.910       10.201      860.721
03/18/2014  16:50:00      350.978      232.729       62.908      129.606      102.414       96.398    16797.797    10488.586     9292.579       10.894        1.829      421.128       85.561        0.041      337.615        9.706      860.749
03/18/2014  16:51:00      220.009      147.437       64.943      134.461       72.633       80.516    18079.772     5275.555     6482.869        5.209        1.492      264.843       73.281        0.077      337.716        9.875      860.762
03/18/2014  16:52:00      104.156       62.995       94.235       92.237       87.652       58.399     8507.674     7682.794     3410.492        2.164        0.980      121.724       58.763        0.233      337.964       10.293      860.760
03/18/2014  16:53:00       99.640       55.962       31.184       61.962       61.945       54.466     3839.339     3837.220     2966.557        1.234        0.532      114.280       31.335        0.075      338.025       10.396      860.754
03/18/2014  16:54:00      146.235       91.336       26.789       91.086       79.060       61.635     8296.634     6250.508     3798.891        2.439        0.917      172.415       39.411        0.052      337.996       10.345      860.750
03/18/2014  16:55:00      217.908      161.738       16.237      147.133      117.123       92.064    21648.061    13717.700     8475.745        5.887        2.192      271.372       56.173        0.043      337.903       10.187      860.754
03/18/2014  16:56:00      153.246      133.917       85.727      128.990      101.727       79.140    16638.549    10348.467     6263.127        4.100        1.663      203.515       63.562        0.098      338.164       10.627      860.757
03/18/2014  16:57:00       67.023       78.543       69.412       91.790       75.456       63.407     8425.420     5693.600     4020.410        1.681        0.907      103.253       56.224        0.297      337.941       10.255      860.771
03/18/2014  16:58:00      197.879      100.788        6.556       77.231       71.734       47.980     5964.644     5145.749     2302.069        3.138        0.671      222.068       37.253        0.028      338.092       10.505      860.770
03/18/2014  16:59:00      164.790      114.225       13.038      125.072       79.953       55.206    15642.978     6392.406     3047.740        3.272        1.254      200.507       32.178        0.026      337.932       10.239      860.762
03/18/2014  17:00:00      219.660      140.520       20.590       94.825       59.159       66.738     8991.717     3499.791     4453.941        4.268        0.847      260.761       41.757        0.026      337.836       10.074      860.755
03/18/2014  17:01:00      256.477       96.850       34.553      158.859      115.884      101.247    25236.134    13429.097    10251.036        6.263        2.446      274.154       74.572        0.074      337.957       10.280      860.755
03/18/2014  17:02:00      272.588       75.705       13.070      151.884      127.256       74.151    23068.612    16194.190     5498.424        6.247        2.238      282.906       56.301        0.040      337.697        9.843      860.789
03/18/2014  17:03:00      233.678      141.069       33.582      127.568       97.758       77.951    16273.616     9556.648     6076.400        5.376        1.595      272.958       51.984        0.036      337.738        9.912      860.792
03/18/2014  17:04:00      218.073      136.640       36.515      118.429       91.640       82.259    14025.328     8397.908     6766.544        4.837        1.459      257.344       34.517        0.018      337.796       10.010      860.796
03/18/2014  17:05:00      238.151      143.260       41.311       84.014       76.767       46.621     7058.298     5893.221     2173.563        4.703        0.756      277.919       40.784        0.022      337.569        9.630      860.811
03/18/2014  17:06:00      133.011       69.961       -2.985       87.951       84.679       40.905     7735.452     7170.564     1673.237        1.958        0.829      150.288       29.824        0.039      337.625        9.724      860.812
03/18/2014  17:07:00      212.031      122.417       58.855       70.789       49.474       63.713     5011.144     2447.719     4059.301        3.746        0.576      244.833       50.232        0.042      337.780        9.982      860.800
03/18/2014  17:08:00      102.680       77.991       72.616       69.614       65.974       56.105     4846.063     4352.542     3147.774        1.712        0.617      128.941       40.877        0.101      337.912       10.206      860.793
03/18/2014  17:09:00       79.657       81.274       83.790       79.704       80.005       54.855     6352.773     6400.786     3009.064        1.786        0.788      113.801       50.126        0.194      338.150       10.605      860.804
03/18/2014  17:10:00      148.595      190.775      129.855      148.595      100.387      119.087    22080.560    10077.633    14181.806        6.083        2.317      241.817      103.023        0.182      337.978       10.316      860.802
03/18/2014  17:11:00      100.162       89.682       43.070       96.951       59.359       74.748     9399.493     3523.515     5587.214        1.922        0.926      134.444       67.759        0.254      337.906       10.194      860.819
03/18/2014  17:12:00      113.367       89.812        2.426       75.181       59.532       40.320     5652.256     3544.055     1625.670        1.587        0.541      144.632       24.130        0.028      337.820       10.051      860.806
03/18/2014  17:13:00      141.549      117.280       10.676       71.389       75.537       50.825     5096.441     5705.773     2583.213        2.364        0.669      183.823       40.299        0.048      337.746        9.925      860.796
03/18/2014  17:14:00       93.062       30.847       32.286       73.218       39.993       34.151     5360.906     1599.408     1166.303        0.939        0.406       98.041       32.289        0.108      337.857       10.114      860.780
03/18/2014  17:15:00       70.557       68.352       65.731       77.101       57.645       74.549     5944.529     3322.977     5557.620        1.440        0.741       98.236       64.764        0.435      338.082       10.492      860.775
03/18/2014  17:16:00      259.819      135.001       49.199      163.993      109.709       84.817    26893.546    12036.143     7193.968        6.713        2.306      292.799       73.275        0.063      337.864       10.124      860.785
03/18/2014  17:17:00      206.847       46.374       26.887      172.695      102.756       81.362    29823.655    10558.696     6619.750        4.632        2.350      211.982       72.637        0.117      337.901       10.187      860.781
03/18/2014  17:18:00      160.107       46.517       32.832      123.598       62.200       68.218    15276.469     3868.890     4653.642        2.633        1.190      166.727       63.394        0.145      337.827       10.062      860.795
03/18/2014  17:19:00        0.972       69.158      104.075       61.141       66.583       46.524     3738.255     4433.319     2164.474        1.297        0.517       69.165       40.127        0.337      338.021       10.389      860.785
03/18/2014  17:20:00      155.580      122.425       37.454      119.049      106.988       92.490    14172.733    11446.458     8554.472        3.738        1.709      197.972       52.541        0.070      337.792       10.004      860.799
03/18/2014  17:21:00      230.973      158.906       30.573      134.943      100.228       69.909    18209.598    10045.692     4887.220        5.633        1.657      280.356       40.345        0.021      337.772        9.969      860.795
03/18/2014  17:22:00      173.760      107.121      129.085      147.043       86.948       71.972    21621.535     7559.961     5179.927        4.634        1.718      204.126       78.424        0.148      337.976       10.311      860.793
03/18/2014  17:23:00      157.040      102.784      111.347      121.676      105.928       92.246    14804.992    11220.660     8509.306        4.107        1.727      187.686       75.107        0.160      337.911       10.203      860.804
03/18/2014  17:24:00      207.799      128.754       85.108      138.229       93.976       72.835    19107.371     8831.495     5304.997        5.012        1.662      244.455       63.374        0.067      338.012       10.371      860.806
03/18/2014  17:25:00      217.688       78.946       46.293      185.054       98.593       72.925    34245.127     9720.574     5318.050        5.251        2.464      231.561       74.355        0.103      337.992       10.340      860.795
03/18/2014  17:26:00      192.763      111.322       51.009      123.782       94.324       90.128    15321.997     8896.947     8122.969        4.224        1.617      222.599       74.626        0.112      338.037       10.414      860.801
03/18/2014  17:27:00      186.811       72.089       22.326      100.581      106.342       50.173    10116.599    11308.705     2517.375        3.226        1.197      200.238       26.957        0.018      338.003       10.357      860.815
03/18/2014  17:28:00      161.549       78.645       44.628      100.783       98.456       62.022    10157.117     9693.502     3846.761        2.898        1.185      179.675       48.186        0.072      338.080       10.487      860.806
03/18/2014  17:29:00      142.260       82.947       65.997      120.893      100.281       75.480    14615.074    10056.215     5697.281        3.092        1.518      164.676       61.198        0.138      338.096       10.513      860.812
03/18/2014  17:30:00      168.062      117.795       68.301      116.964       92.755       95.406    13680.628     8603.498     9102.220        3.908        1.569      205.233       67.242        0.107      337.975       10.308      860.811
03/18/2014  17:31:00      278.350      171.855       47.609      126.264       75.724       73.147    15942.700     5734.085     5350.444        6.815        1.351      327.128       55.661        0.029      337.711        9.866      860.835
03/18/2014  17:32:00      107.760       20.486       36.734       77.016       57.629       44.259     5931.450     3321.047     1958.822        1.229        0.561      109.690       23.031        0.044      337.784        9.992      860.843
03/18/2014  17:33:00      132.162       72.579       20.642       70.352       61.320       46.176     4949.336     3760.150     2132.233        1.700        0.542      150.779       15.112        0.010      337.800       10.018      860.834
03/18/2014  17:34:00      200.383      112.633       20.779       96.715       91.112       63.086     9353.834     8301.472     3979.789        3.745        1.082      229.868       35.993        0.025      337.842       10.086      860.824
03/18/2014  17:35:00      232.642      142.708       70.751      130.232       97.278       93.724    16960.391     9462.915     8784.198        5.734        1.760      272.925       71.336        0.068      337.771        9.966      860.797
03/18/2014  17:36:00      259.437      127.075       45.679      161.596       98.421       78.009    26113.204     9686.630     6085.479        6.371        2.094      288.887       64.506        0.050      337.775        9.973      860.769
03/18/2014  17:37:00       82.048       55.810       91.581      101.587       66.860       65.382    10319.918     4470.239     4274.845        1.865        0.953       99.231       47.490        0.229      338.030       10.404      860.765
03/18/2014  17:38:00      161.091      103.914      108.429      138.339      107.005       98.980    19137.637    11450.068     9797.049        4.444        2.019      191.698       96.608        0.254      338.059       10.450      860.755
03/18/2014  17:39:00      200.608      115.975       72.991      140.444      104.899       81.972    19724.561    11003.814     6719.483        4.823        1.872      231.719       61.332        0.070      337.993       10.338      860.752
03/18/2014  17:40:00      275.433      169.728       23.518      111.663       87.130       74.882    12468.733     7591.642     5607.247        6.544        1.283      323.529       50.624        0.024      337.805       10.023      860.767
03/18/2014  17:41:00      211.508      128.604       47.146      102.833       71.176       63.092    10574.542     5066.091     3980.579        4.156        0.981      247.537       36.299        0.022      337.769        9.964      860.768
03/18/2014  17:42:00      118.651       86.084       68.095      117.347       89.905       55.059    13770.411     8082.969     3031.530        2.550        1.244      146.589       52.436        0.128      337.930       10.235      860.750
03/18/2014  17:43:00       31.342       52.655       51.762       72.091       77.906       60.497     5197.150     6069.321     3659.892        1.068        0.746       61.277       50.812        0.688      338.027       10.401      860.744
03/18/2014  17:44:00      117.308      112.186      120.166      109.339      100.561       78.273    11955.004    10112.460     6126.644        3.448        1.410      162.317       71.179        0.192      337.899       10.182      860.739
03/18/2014  17:45:00       52.611       84.570       96.011       80.155       96.305       70.403     6424.772     9274.679     4956.518        1.989        1.033       99.600       69.751        0.490      338.138       10.585      860.734
03/18/2014  17:46:00      174.661      156.266      148.373      129.731      121.840      107.873    16830.111    14845.058    11636.503        6.012        2.166      234.362       93.336        0.159      337.884       10.156      860.741
03/18/2014  17:47:00      150.728      106.844       88.617      120.201       99.797       92.544    14448.282     9959.476     8564.372        3.747        1.649      184.755       83.244        0.203      337.869       10.132      860.766
03/18/2014  17:48:00      121.768       93.075       85.063      142.230       94.069       55.745    20229.267     8848.938     3107.484        3.145        1.609      153.265       47.329        0.095      338.031       10.406      860.785
03/18/2014  17:49:00      321.079      140.543       63.135      154.266       98.161       81.141    23797.931     9635.495     6583.807        8.342        2.001      350.491       81.488        0.054      337.697        9.844      860.779
03/18/2014  17:50:00      256.874      202.691      145.897      144.492      110.471      131.565    20877.825    12203.755    17309.229        8.936        2.520      327.213      102.424        0.098      337.714        9.870      860.782
03/18/2014  17:51:00      195.540      103.488       65.159      139.905      122.799      100.084    19573.305    15079.554    10016.828        4.892        2.233      221.237       75.409        0.116      337.664        9.789      860.794
03/18/2014  17:52:00      125.609      128.774      169.904      165.631      124.017       87.399    27433.715    15380.186     7638.638        5.583        2.523      179.890      104.040        0.334      337.772        9.968      860.799
03/18/2014  17:53:00      147.881      134.644      124.566      125.831      117.091       86.463    15833.502    13710.399     7475.922        4.626        1.851      199.995       69.780        0.122      337.743        9.920      860.788
03/18/2014  17:54:00      154.405       69.161       94.438      123.729      115.146       95.672    15308.828    13258.642     9153.142        3.762        1.886      169.186       90.704        0.287      337.810       10.033      860.799
03/18/2014  17:55:00      142.042      125.905      113.718      109.868       82.575       84.551    12070.940     6818.589     7148.953        3.749        1.302      189.811       70.303        0.137      337.872       10.137      860.805
03/18/2014  17:56:00      198.163       78.153       93.331      117.818       89.703       78.601    13881.084     8046.658     6178.156        4.109        1.405      213.018       66.279        0.097      337.867       10.128      860.797
03/18/2014  17:57:00      166.997       82.835       56.137      145.896       76.316       70.148    21285.641     5824.154     4920.718        3.496        1.602      186.413       75.019        0.162      337.892       10.170      860.811
03/18/2014  17:58:00      106.968      100.715      111.155       92.305       62.682       66.066     8520.136     3929.059     4364.679        2.537        0.841      146.921       54.066        0.135      337.880       10.151      860.814
03/18/2014  17:59:00      177.767      122.057      132.764      120.571      128.052      119.840    14537.477    16397.323    14361.626        5.470        2.265      215.636      104.313        0.234      337.754        9.940      860.807
03/18/2014  18:00:00      161.032      137.095      131.349      108.547       99.634       80.618    11782.397     9926.960     6499.253        4.509        1.410      211.486       48.428        0.052      337.725        9.890      860.830
03/18/2014  18:01:00      195.492       73.645      103.576      150.304      116.918       88.770    22591.212    13669.922     7880.048        4.925        2.207      208.904       67.279        0.104      337.766        9.958      860.822
03/18/2014  18:02:00      124.403       88.346      113.673      114.312       97.897       76.059    13067.245     9583.863     5785.015        3.231        1.422      152.582       67.837        0.198      337.722        9.886      860.821
03/18/2014  18:03:00       78.746      -14.096       56.411      109.137      107.585       66.145    11910.927    11574.594     4375.167        1.872        1.393       79.997       78.494        0.963      337.888       10.164      860.790
03/18/2014  18:04:00       76.424       62.931       63.102       96.620      103.103       53.793     9335.398    10630.228     2893.650        1.832        1.143       98.999       39.143        0.156      337.904       10.192      860.797
03/18/2014  18:05:00      198.654       88.981       28.578       79.436       52.086       59.147     6310.140     2712.954     3498.349        3.036        0.626      217.671       45.528        0.044      337.867       10.129      860.806
03/18/2014  18:06:00      122.055       36.815       41.755      107.699       83.802       77.427    11598.995     7022.784     5994.907        2.130        1.231      127.487       31.711        0.062      337.768        9.965      860.792
03/18/2014  18:07:00      209.798      132.694       69.431      116.506       97.233       82.144    13573.544     9454.201     6747.639        4.810        1.489      248.239       52.589        0.045      337.665        9.790      860.766
03/18/2014  18:08:00      264.370      178.473       61.486      113.413       89.291       83.568    12862.500     7972.912     6983.591        6.667        1.391      318.974       36.810        0.013      337.585        9.652      860.776
03/18/2014  18:09:00      171.561       90.588       25.873      112.628       79.814       68.294    12685.019     6370.231     4664.134        3.101        1.186      194.008       51.285        0.070      337.595        9.673      860.773
03/18/2014  18:10:00      123.285       89.652       26.452      110.681       66.466       60.838    12250.261     4417.680     3701.246        2.215        1.018      152.436       35.535        0.054      337.608        9.696      860.768
03/18/2014  18:11:00      223.755      132.191       34.108      116.589       75.798       61.021    13592.983     5745.398     3723.521        4.588        1.153      259.886       32.391        0.016      337.588        9.661      860.763
03/18/2014  18:12:00      132.437       66.614       29.172       62.094       53.864       49.964     3855.624     2901.332     2496.381        1.604        0.463      148.246       40.005        0.073      337.689        9.834      860.781
03/18/2014  18:13:00      143.018       67.412       57.514       92.930       63.572       68.720     8635.992     4041.415     4722.385        2.285        0.870      158.110       55.429        0.123      337.757        9.945      860.789
03/18/2014  18:14:00      170.943      136.628       39.419      106.801       80.903       65.864    11406.452     6545.322     4338.122        3.586        1.114      218.835       57.415        0.069      337.642        9.751      860.810
03/18/2014  18:15:00      188.539       85.138       42.767       91.419       80.703       59.694     8357.455     6512.948     3563.337        3.153        0.922      206.871       36.009        0.030      337.631        9.732      860.804
03/18/2014  18:16:00      111.401       85.131       70.795      106.363       78.331       68.310    11313.014     6135.707     4666.206        2.339        1.106      140.205       46.890        0.112      337.656        9.777      860.818
03/18/2014  18:17:00      160.449       71.669       32.068      115.959       96.269       74.957    13446.503     9267.701     5618.575        3.012        1.417      175.728       54.707        0.097      337.575        9.638      860.804
03/18/2014  18:18:00      137.560       83.900       66.409      120.757       78.392       62.919    14582.341     6145.234     3958.799        2.752        1.234      161.127       52.815        0.107      337.624        9.722      860.811
03/18/2014  18:19:00      184.982       96.673       34.272       86.351       57.504       56.554     7456.487     3306.690     3198.360        2.935        0.698      208.720       37.893        0.033      337.585        9.656      860.825
03/18/2014  18:20:00      214.353      114.297       22.646      121.856       73.435       61.455    14848.860     5392.674     3776.658        4.177        1.201      242.922       38.150        0.025      337.542        9.584      860.817
03/18/2014  18:21:00      195.482      123.928       68.305      155.168      103.423       84.397    24077.119    10696.248     7122.839        5.006        2.095      231.455       74.487        0.104      337.519        9.544      860.815
03/18/2014  18:22:00      181.395      124.075       44.239      139.325       86.013       88.537    19411.569     7398.242     7838.801        4.245        1.732      219.769       74.877        0.116      337.507        9.526      860.817
03/18/2014  18:23:00      270.637      137.118       24.742      155.675      102.610       69.435    24234.570    10528.774     4821.229        6.611        1.979      303.390       36.833        0.015      337.449        9.428      860.824
03/18/2014  18:24:00      183.423       95.442       10.030       73.077       67.650       57.802     5340.275     4576.508     3341.102        2.805        0.663      206.768       38.252        0.034      337.479        9.479      860.842
03/18/2014  18:25:00      224.685       99.537       42.440       93.306       69.803       61.242     8705.947     4872.483     3750.570        3.976        0.866      245.746       45.207        0.034      337.499        9.510      860.867
03/18/2014  18:26:00      127.328       98.382       71.590      117.021       73.160       77.061    13693.846     5352.415     5938.431        2.800        1.249      160.909       75.114        0.218      337.488        9.492      860.866
03/18/2014  18:27:00      133.141       94.549      116.697      131.749       85.183       91.765    17357.726     7256.094     8420.785        3.665        1.652      163.298       57.574        0.124      337.514        9.537      860.885
03/18/2014  18:28:00      205.208      149.464       88.986      152.792      102.897       98.275    23345.321    10587.724     9658.028        5.797        2.180      253.870      100.877        0.158      337.437        9.406      860.892
03/18/2014  18:29:00      223.828       93.983       51.656       93.295       84.943       61.287     8704.005     7215.279     3756.064        4.063        0.984      242.759       35.972        0.022      337.392        9.331      860.921
03/18/2014  18:30:00      169.938      104.731       89.473      118.590       95.449       71.696    14063.688     9110.418     5140.274        3.808        1.416      199.619       62.086        0.097      337.409        9.361      860.914
03/18/2014  18:31:00      135.194      128.719       91.076      120.586       87.042       87.743    14540.926     7576.373     7698.857        3.647        1.491      186.671       71.647        0.147      337.394        9.337      860.924
03/18/2014  18:32:00      164.339      111.844       89.513      114.610       66.305       78.500    13135.554     4396.331     6162.312        3.561        1.185      198.787       66.489        0.112      337.371        9.298      860.937
03/18/2014  18:33:00      172.624       75.364       60.933       88.818       80.230       74.871     7888.629     6436.931     5605.626        2.956        0.997      188.358       68.610        0.133      337.410        9.361      860.935
03/18/2014  18:34:00      261.514      102.837       44.190      110.359      100.709       69.625    12179.167    10142.354     4847.681        5.404        1.358      281.008       48.052        0.029      337.364        9.285      860.950
03/18/2014  18:35:00      233.812       79.498       49.040      142.788      105.704       86.481    20388.361    11173.298     7478.993        5.121        1.952      246.957       65.614        0.071      337.348        9.258      860.938
03/18/2014  18:36:00      156.904      142.490      105.672      118.347       89.023       63.266    14006.107     7925.182     4002.577        4.101        1.297      211.948       47.582        0.050      337.344        9.251      860.944
03/18/2014  18:37:00      157.530      139.942      141.613      118.359       94.450       88.977    14008.752     8920.728     7916.891        4.764        1.542      210.712       70.875        0.113      337.361        9.280      860.942
03/18/2014  18:38:00      148.903       73.068       47.625       89.369       70.199       73.082     7986.802     4927.873     5340.990        2.401        0.913      165.864       23.943        0.021      337.384        9.321      860.958
03/18/2014  18:39:00      141.981       63.807       48.760      140.102       88.451       80.541    19628.553     7823.581     6486.864        3.027        1.697      155.660       81.366        0.273      337.397        9.340      860.968
03/18/2014  18:40:00       90.171       63.968       72.478      126.453       78.579       66.683    15990.328     6174.611     4446.613        2.204        1.331      110.556       67.749        0.376      337.322        9.217      860.984
03/18/2014  18:41:00      250.429      106.825       58.275      175.922      124.717       86.840    30948.385    15554.303     7541.111        6.577        2.702      272.262       72.877        0.072      337.274        9.136      860.981
03/18/2014  18:42:00      227.147       54.024       14.311      151.847       89.407       71.408    23057.393     7993.697     5099.050        4.543        1.808      233.483       65.392        0.078      337.258        9.108      860.987
03/18/2014  18:43:00      267.115      154.508       81.515      130.938      111.569       88.475    17144.828    12447.563     7827.814        6.964        1.871      308.583       73.530        0.057      337.232        9.064      860.999
03/18/2014  18:44:00      243.967      131.700       90.539      130.339      106.095       98.403    16988.286    11256.228     9683.138        6.149        1.896      277.245       75.053        0.073      337.221        9.046      860.998
03/18/2014  18:45:00      122.287      109.862       93.822      124.063      105.801       90.955    15391.607    11193.752     8272.761        3.534        1.743      164.389       81.071        0.243      337.221        9.047      861.000
03/18/2014  18:46:00      128.570       83.335       51.111       89.114       61.263       73.730     7941.296     3753.133     5436.041        2.161        0.857      153.215       62.035        0.164      337.224        9.053      861.023
03/18/2014  18:47:00      140.187       91.221       28.634       78.436       59.389       60.799     6152.217     3527.090     3696.559        2.108        0.669      167.253       50.978        0.093      337.231        9.065      861.031
03/18/2014  18:48:00       79.502      118.907      106.643       96.233       93.510       83.777     9260.866     8744.189     7018.567        2.842        1.251      143.037       76.201        0.284      337.194        9.003      861.031
03/18/2014  18:49:00       23.448      141.265      132.509       67.649       72.936       79.252     4576.351     5319.733     6280.938        2.712        0.809      143.198       56.701        0.157      337.212        9.033      861.039
03/18/2014  18:50:00      166.959       95.568       49.415       92.248       57.990       60.958     8509.701     3362.804     3715.903        2.752        0.779      192.376       50.258        0.068      337.176        8.972      861.063
03/18/2014  18:51:00       73.396       79.053       81.094       71.854       67.972       59.320     5163.042     4620.155     3518.867        1.575        0.665      107.872       39.540        0.134      337.131        8.897      861.054
03/18/2014  18:52:00      114.643       42.462       42.037       90.848       79.153       51.797     8253.336     6265.161     2682.951        1.695        0.860      122.254       38.988        0.102      337.150        8.928      861.047
03/18/2014  18:53:00      174.722      125.843       82.608      143.659      102.258       73.443    20637.924    10456.704     5393.873        4.483        1.824      215.323       71.907        0.112      337.133        8.898      861.048
03/18/2014  18:54:00      216.212      152.424       93.042      134.122       91.658       62.796    17988.737     8401.233     3943.312        5.448        1.517      264.538       55.970        0.045      337.104        8.849      861.052
03/18/2014  18:55:00      225.110      128.500       52.781      118.319      107.749       76.736    13999.276    11609.883     5888.434        5.073        1.575      259.204       55.841        0.046      337.069        8.790      861.053
03/18/2014  18:56:00      187.255       92.390       54.631       73.607       90.660       71.035     5417.945     8219.323     5046.006        3.263        0.934      208.807       32.528        0.024      337.038        8.738      861.058
03/18/2014  18:57:00      202.790       90.441       39.865       98.090       65.269       64.031     9621.578     4260.045     4099.992        3.443        0.899      222.044       51.796        0.054      337.033        8.731      861.048
03/18/2014  18:58:00      162.530      103.516       37.033       71.967       52.998       44.102     5179.198     2808.783     1944.944        2.422        0.497      192.696       32.682        0.029      337.013        8.698      861.055
03/18/2014  18:59:00      215.202      138.437       47.304      104.547       78.378       68.940    10930.013     6143.134     4752.688        4.477        1.091      255.884       44.982        0.031      337.020        8.709      861.046
03/18/2014  19:00:00      125.789       88.650       48.798       80.364       71.208       62.605     6458.450     5070.548     3919.419        2.075        0.772      153.889       44.596        0.084      336.985        8.651      861.053
03/18/2014  19:01:00      167.180       90.664       58.668       85.898       74.074       54.252     7378.385     5486.904     2943.330        2.771        0.790      190.182       35.598        0.035      336.971        8.628      861.047
03/18/2014  19:02:00      159.687      116.760       76.772       98.206       72.251       67.628     9644.344     5220.172     4573.484        3.223        0.972      197.820       55.358        0.078      336.995        8.667      861.055
03/18/2014  19:03:00      212.103       56.768       42.127      170.702       76.874       82.340    29139.167     5909.597     6779.812        4.590        2.091      219.568       94.229        0.184      337.012        8.696      861.051
03/18/2014  19:04:00      114.865       82.404       71.361      116.607       74.088       66.479    13597.259     5488.967     4419.475        2.429        1.175      141.366       49.374        0.122      337.006        8.686      861.048
03/18/2014  19:05:00      117.424       49.567       55.409       81.966       61.991       49.305     6718.478     3842.837     2431.017        1.615        0.650      127.457       37.569        0.087      337.003        8.681      861.042
03/18/2014  19:06:00      162.932       83.808       29.724       69.640       51.297       48.497     4849.710     2631.400     2351.970        2.214        0.492      183.223       37.355        0.042      336.989        8.659      861.037
03/18/2014  19:07:00      107.643       82.870       51.370       60.871       58.361       51.912     3705.268     3406.049     2694.896        1.545        0.490      135.847       26.539        0.038      336.963        8.614      861.024
03/18/2014  19:08:00      132.449       43.744       50.650       65.411       55.262       49.083     4278.636     3053.843     2409.127        1.588        0.487      139.486       29.880        0.046      336.943        8.583      861.020
03/18/2014  19:09:00      103.498       64.858       42.686       76.538       70.605       62.577     5858.016     4984.998     3915.871        1.575        0.738      122.141       52.282        0.183      336.958        8.606      861.014
03/18/2014  19:10:00      186.819      118.554       75.389      109.265       88.834       78.372    11938.843     7891.542     6142.119        4.030        1.299      221.261       49.553        0.050      336.953        8.597      861.000
03/18/2014  19:11:00      185.144       89.098       76.932      112.337       95.225       72.216    12619.520     9067.724     5215.190        3.751        1.345      205.467       58.883        0.082      336.959        8.606      860.988
03/18/2014  19:12:00      200.111      123.191       58.096      100.194       63.004       55.812    10038.910     3969.522     3114.927        3.786        0.856      234.990       34.826        0.022      336.942        8.578      860.984
03/18/2014  19:13:00      119.719       66.171       66.621      111.308       62.995       53.187    12389.405     3968.343     2828.808        2.116        0.959      136.789       49.784        0.132      336.914        8.533      860.991
03/18/2014  19:14:00      203.737      140.267       36.367       99.555       63.526       74.382     9911.241     4035.547     5532.713        4.099        0.974      247.353       36.839        0.022      336.858        8.437      860.995
03/18/2014  19:15:00      187.788      114.382       49.839       67.523       58.563       55.623     4559.405     3429.662     3093.950        3.095        0.554      219.881       34.563        0.025      336.838        8.404      861.011
03/18/2014  19:16:00      120.116       82.716       40.970       84.397       56.294       56.468     7122.935     3169.037     3188.631        1.821        0.674      145.842       47.888        0.108      336.851        8.427      861.030
03/18/2014  19:17:00      121.223       87.334       51.506       67.352       47.993       56.096     4536.240     2303.334     3146.735        1.748        0.499      149.407       38.654        0.067      336.797        8.339      861.049
03/18/2014  19:18:00       74.313       45.193       54.814       69.057       52.468       49.871     4768.821     2752.934     2487.123        1.029        0.500       86.977       34.750        0.160      336.793        8.333      861.064
03/18/2014  19:19:00      111.226      101.252       76.418       84.573       55.130       49.164     7152.529     3039.278     2417.074        2.053        0.630      150.410       50.176        0.111      336.812        8.362      861.072
03/18/2014  19:20:00       90.904       62.719       42.563       65.236       48.352       45.357     4255.787     2337.960     2057.262        1.133        0.433      110.441       26.202        0.056      336.803        8.348      861.086
03/18/2014  19:21:00      141.563       77.783       58.205       66.666       61.127       52.829     4444.376     3736.479     2790.895        2.022        0.549      161.524       44.421        0.076      336.824        8.383      861.099
03/18/2014  19:22:00      121.010       67.044       20.019       97.473       59.898       43.726     9500.983     3587.808     1911.986        1.727        0.750      138.341       30.952        0.050      336.829        8.391      861.097
03/18/2014  19:23:00      131.957       70.304       30.098       60.359       37.802       33.102     3643.244     1428.992     1095.747        1.471        0.308      149.517       26.296        0.031      336.748        8.259      861.107
03/18/2014  19:24:00      238.821      121.621       48.339       84.906       56.780       48.724     7209.010     3223.925     2374.035        4.348        0.640      268.006       39.522        0.022      336.779        8.306      861.102
03/18/2014  19:25:00      153.806       95.053       47.290       69.837       51.005       56.899     4877.207     2601.527     3237.524        2.282        0.536      180.807       47.044        0.068      336.735        8.236      861.094
03/18/2014  19:26:00      152.066       62.906       44.775       93.124       78.362       51.291     8672.025     6140.590     2630.775        2.326        0.872      164.564       42.964        0.068      336.744        8.250      861.099
03/18/2014  19:27:00      210.310      117.768       35.010       86.551       56.895       53.710     7491.126     3237.081     2884.749        3.647        0.681      241.039       33.142        0.019      336.763        8.280      861.091
03/18/2014  19:28:00      139.219       44.251       37.503      104.643       89.149       58.611    10950.136     7947.536     3435.283        2.254        1.117      146.082       41.142        0.079      336.757        8.272      861.087
03/18/2014  19:29:00      167.372      102.074       39.780       93.685       83.078       58.193     8776.899     6902.020     3386.443        2.954        0.953      196.042       48.592        0.061      336.752        8.263      861.099
03/18/2014  19:30:00      241.045      138.655       66.227      122.912       92.033       50.722    15107.448     8470.155     2572.717        5.393        1.308      278.079       37.178        0.018      336.770        8.291      861.088
03/18/2014  19:31:00      113.518       33.932       53.377      103.255       78.467       62.494    10661.690     6157.041     3905.449        1.880        1.036      118.481       54.136        0.209      336.723        8.217      861.099
03/18/2014  19:32:00      180.347      121.844       48.904       78.927       77.290       47.851     6229.430     5973.696     2289.681        3.212        0.725      217.649       23.148        0.011      336.754        8.267      861.101
03/18/2014  19:33:00       75.317       63.804       62.400       66.746       53.577       46.064     4455.036     2870.482     2121.847        1.154        0.472       98.710       38.435        0.152      336.691        8.163      861.100
03/18/2014  19:34:00      120.102       81.808       33.795       78.795       48.268       44.492     6208.623     2329.765     1979.501        1.639        0.526      145.316       45.106        0.096      336.692        8.165      861.097
03/18/2014  19:35:00      146.975       59.885       25.382       67.998       54.243       49.759     4623.701     2942.252     2475.993        1.793        0.502      158.706       35.155        0.049      336.674        8.134      861.091
03/18/2014  19:36:00      141.313       54.724       25.032       73.703       54.698       37.070     5432.184     2991.818     1374.185        1.669        0.490      151.539       37.834        0.062      336.655        8.103      861.084
03/18/2014  19:37:00      137.685       52.288       21.723       38.643       47.227       39.225     1493.264     2230.354     1538.577        1.371        0.263      147.280       27.968        0.036      336.617        8.040      861.078
03/18/2014  19:38:00      147.298       72.254       43.882       70.931       58.533       56.171     5031.262     3426.112     3155.155        2.023        0.581      164.065       26.006        0.025      336.654        8.099      861.066
03/18/2014  19:39:00       74.313       29.118       24.195       77.606       56.893       42.550     6022.738     3236.769     1810.515        0.901        0.554       79.814       36.943        0.214      336.615        8.037      861.058
03/18/2014  19:40:00      123.738       35.564       19.488       81.659       51.511       40.673     6668.199     2653.357     1654.282        1.396        0.549      128.747       34.519        0.072      336.578        7.976      861.064
03/18/2014  19:41:00      125.562       54.294       14.638       58.707       37.479       34.544     3446.498     1404.681     1193.256        1.249        0.302      136.798       11.489        0.007      336.557        7.939      861.063
03/18/2014  19:42:00      169.411       93.933       26.600       61.804       45.379       43.249     3819.783     2059.223     1870.464        2.299        0.387      193.710       30.601        0.025      336.596        8.002      861.067
03/18/2014  19:43:00      109.090       73.235       24.881       86.527       47.659       54.501     7486.997     2271.367     2970.305        1.530        0.636      131.393       53.090        0.163      336.672        8.131      861.049
03/18/2014  19:44:00      139.235       75.492       52.864       66.579       56.114       57.671     4432.806     3148.799     3325.928        1.939        0.545      158.384       37.201        0.055      336.630        8.060      861.048
03/18/2014  19:45:00      163.335      105.512       37.279       84.034       48.310       54.366     7061.720     2333.897     2955.667        2.577        0.618      194.451       25.610        0.017      336.595        8.000      861.042
03/18/2014  19:46:00      177.040       69.002       45.634       73.541       66.628       56.618     5408.334     4439.237     3205.652        2.562        0.653      190.012       32.409        0.029      336.591        7.993      861.040
03/18/2014  19:47:00      185.062       53.731       30.073       81.401       78.386       59.686     6626.200     6144.293     3562.406        2.718        0.817      192.705       43.418        0.051      336.591        7.996      861.043
03/18/2014  19:48:00      122.419       44.004       29.193       69.725       62.281       51.300     4861.569     3878.947     2631.685        1.457        0.569      130.088       37.845        0.085      336.533        7.899      861.050
03/18/2014  19:49:00       96.011       42.324       38.497       73.393       50.838       37.573     5386.506     2584.457     1411.753        1.094        0.469      104.926       38.083        0.132      336.496        7.836      861.083
03/18/2014  19:50:00      156.020       78.548       39.232       74.639       49.462       42.767     5571.019     2446.452     1829.013        2.095        0.492      174.677       29.522        0.029      336.522        7.879      861.091
03/18/2014  19:51:00      148.016       77.309       29.423       54.407       56.169       38.906     2960.162     3154.902     1513.656        1.819        0.381      166.989       18.053        0.012      336.538        7.906      861.110
03/18/2014  19:52:00      142.542       72.699       42.056       49.028       37.142       37.382     2403.731     1379.525     1397.432        1.628        0.259      160.010       23.757        0.022      336.502        7.847      861.130
03/18/2014  19:53:00      115.482       74.455       18.863       71.618       53.101       41.577     5129.089     2819.702     1728.647        1.445        0.484      137.403       30.796        0.050      336.444        7.749      861.151
03/18/2014  19:54:00      181.243       84.123       32.072       95.893       63.251       39.109     9195.387     4000.705     1529.535        2.784        0.736      199.814       29.126        0.021      336.529        7.891      861.161
03/18/2014  19:55:00      136.632       82.190       20.826       62.061       54.888       42.180     3851.616     3012.699     1779.181        1.725        0.432      159.448       34.269        0.046      336.480        7.810      861.176
03/18/2014  19:56:00      169.976      101.163       29.703       45.808       45.870       37.285     2098.418     2104.020     1390.161        2.280        0.280      197.803       20.866        0.011      336.483        7.812      861.201
03/18/2014  19:57:00       94.344       41.704       23.431       61.734       37.675       35.963     3811.122     1419.434     1293.304        0.886        0.326      103.150       36.367        0.124      336.427        7.720      861.222
03/18/2014  19:58:00      142.222       74.644       21.803       41.582       42.956       32.489     1729.055     1845.222     1055.534        1.545        0.231      160.620       18.703        0.014      336.441        7.744      861.248
03/18/2014  19:59:00       67.774       57.138       -2.306       48.849       30.538       23.366     2386.238      932.583      545.976        0.586        0.193       88.646       24.513        0.076      336.381        7.645      861.263
03/18/2014  20:00:00       48.625       23.861       10.286       40.249       26.872       18.105     1619.946      722.086      327.787        0.285        0.133       54.164       11.653        0.046      336.290        7.491      861.274
03/18/2014  20:01:00       38.863       13.868        0.947       48.906       35.789       20.979     2391.752     1280.871      440.139        0.291        0.206       41.263       20.300        0.242      336.337        7.571      861.301
03/18/2014  20:02:00       64.347       38.105       10.826       34.413       24.053       23.488     1184.220      578.548      551.663        0.401        0.116       74.783       20.063        0.072      336.396        7.670      861.316
03/18/2014  20:03:00       62.591       64.813       20.070       46.204       36.820       28.181     2134.827     1355.693      794.148        0.640        0.214       90.102       27.620        0.094      336.447        7.756      861.340
03/18/2014  20:04:00       98.537       43.463       16.763       51.374       34.803       32.342     2639.247     1211.278     1046.026        0.839        0.245      107.697       19.833        0.034      336.389        7.657      861.369
03/18/2014  20:05:00       36.725       15.228       26.646       27.631       27.090       17.554      763.469      733.888      308.142        0.205        0.090       39.757       12.792        0.104      336.334        7.565      861.381
03/18/2014  20:06:00       56.379       33.220       18.062       19.870       16.983       17.820      394.798      288.432      317.549        0.280        0.050       65.438       15.159        0.054      336.376        7.636      861.393
03/18/2014  20:07:00       75.964       38.518        8.913       32.814       21.976       17.757     1076.759      482.949      315.328        0.460        0.094       85.171       16.161        0.036      336.420        7.709      861.412
03/18/2014  20:08:00       81.863        9.471        4.806       47.776       26.674       21.733     2282.504      711.509      472.307        0.514        0.173       82.409       25.344        0.095      336.457        7.771      861.420
03/18/2014  20:09:00       64.422       25.665       -2.187       36.422       27.754       21.674     1326.532      770.301      469.752        0.369        0.128       69.346       16.422        0.056      336.414        7.699      861.425
03/18/2014  20:10:00       86.610       55.678       19.168       37.041       32.245       28.944     1372.059     1039.765      837.760        0.711        0.162      102.963       13.449        0.017      336.310        7.526      861.454
03/18/2014  20:11:00       76.524       41.376       19.529       24.447       24.292       27.847      597.678      590.103      775.460        0.496        0.098       86.993       13.688        0.025      336.337        7.572      861.476
03/18/2014  20:12:00       81.744       28.501       11.962       34.667       25.936       26.674     1201.815      672.702      711.495        0.511        0.129       86.570       20.684        0.057      336.301        7.510      861.492
03/18/2014  20:13:00      118.767       50.188        4.700       31.847       24.330       22.461     1014.241      591.951      504.488        0.938        0.106      128.936        4.939        0.001      336.280        7.476      861.513
03/18/2014  20:14:00       89.066       40.351        7.143       37.867       31.439       23.338     1433.888      988.426      544.645        0.629        0.148       97.780       17.580        0.032      336.283        7.481      861.524
03/18/2014  20:15:00       41.125       19.563        1.600       23.276       15.872       18.802      541.787      251.915      353.508        0.161        0.057       45.541       10.843        0.057      336.197        7.336      861.539
03/18/2014  20:16:00       39.971       23.702       -4.853       20.321       22.002       10.750      412.951      484.096      115.558        0.160        0.051       46.470       10.342        0.050      336.301        7.511      861.547
03/18/2014  20:17:00       45.215       26.071        2.637       24.010       16.186       14.391      576.476      261.984      207.089        0.189        0.052       52.193        9.702        0.035      336.243        7.413      861.558
03/18/2014  20:18:00       69.940       17.556       18.133       63.492       33.722       22.838     4031.176     1137.196      521.592        0.561        0.284       72.110       22.087        0.094      336.268        7.455      861.567
03/18/2014  20:19:00      112.050       58.574       50.318       79.932       45.363       43.451     6389.085     2057.843     1887.947        1.442        0.517      126.436       25.372        0.040      336.372        7.627      861.580
03/18/2014  20:20:00       98.241       40.625       24.587       83.163       67.478       43.175     6916.020     4553.340     1864.092        1.262        0.667      106.309       13.996        0.017      336.324        7.548      861.609
03/18/2014  20:21:00       43.317       43.160       54.269       36.513       34.173       28.530     1333.234     1167.803      813.934        0.500        0.166       61.148       17.942        0.086      336.283        7.480      861.631
03/18/2014  20:22:00       27.656       30.214       60.804       34.118       34.299       18.378     1164.042     1176.414      337.766        0.403        0.134       40.960       18.008        0.193      336.209        7.357      861.649
03/18/2014  20:23:00       43.250       49.437       44.399       36.818       31.647       29.003     1355.569     1001.560      841.189        0.474        0.160       65.685       25.936        0.156      336.263        7.447      861.664
03/18/2014  20:24:00       93.681       31.439       33.532       49.187       40.005       33.510     2419.392     1600.417     1122.951        0.801        0.257       98.815       25.623        0.067      336.259        7.441      861.679
03/18/2014  20:25:00       63.757       40.150       25.366       44.068       44.260       29.642     1941.994     1958.990      878.644        0.555        0.239       75.345       26.863        0.127      336.268        7.456      861.694
03/18/2014  20:26:00       36.405       23.196        5.720       16.657       18.140       16.405      277.449      329.056      269.134        0.139        0.044       43.167       13.167        0.093      336.217        7.370      861.722
03/18/2014  20:27:00       19.632       32.476       -4.092       22.338       15.921       15.939      498.990      253.463      254.066        0.123        0.050       37.948        9.453        0.062      336.239        7.406      861.743
03/18/2014  20:28:00       16.787       11.568        4.638       13.492       13.267       12.999      182.030      176.023      168.976        0.048        0.026       20.387        8.507        0.174      336.173        7.297      861.768
03/18/2014  20:29:00       61.835      -14.979       13.045       27.975       22.339       20.983      782.599      499.044      440.302        0.297        0.086       63.623       20.012        0.099      336.198        7.339      861.788
03/18/2014  20:30:00       35.288        4.526       23.504       34.840       25.162       23.028     1213.828      633.124      530.284        0.210        0.119       35.577       20.306        0.326      336.228        7.387      861.809
03/18/2014  20:31:00        7.998       29.169       40.681       14.472       16.816       10.507      209.445      282.790      110.398        0.159        0.030       30.245        9.100        0.091      336.206        7.351      861.824
03/18/2014  20:32:00       16.692       16.106       38.471       16.280       10.989       10.054      265.044      120.761      101.074        0.125        0.024       23.195       10.576        0.208      336.164        7.281      861.835
03/18/2014  20:33:00       17.590      -15.345       15.016       24.555       45.154       24.383      602.963     2038.884      594.519        0.200        0.162       23.343       29.843        1.634      336.326        7.551      861.839
03/18/2014  20:34:00       57.400      -51.857       11.913       47.748       49.625       31.623     2279.826     2462.636     1000.038        0.593        0.287       77.355       36.390        0.221      336.519        7.875      861.841
03/18/2014  20:35:00        0.623      -38.682       20.984       48.558       69.452       38.830     2357.922     4823.516     1507.750        0.531        0.434       38.687       42.781        1.223      336.427        7.723      861.843
03/18/2014  20:36:00       51.408      -21.238       13.658       37.977       33.471       32.530     1442.235     1120.291     1058.218        0.345        0.181       55.622       22.091        0.158      336.371        7.628      861.851
03/18/2014  20:37:00       29.448        1.288       37.069       47.256       60.549       47.135     2233.141     3666.225     2221.693        0.518        0.406       29.476       51.769        3.085      336.382        7.646      861.867
03/18/2014  20:38:00       14.785      -19.801       30.682       23.052       56.957       40.391      531.387     3244.108     1631.443        0.348        0.270       24.712       44.920        3.304      336.371        7.628      861.889
03/18/2014  20:39:00       45.580      -62.366       -4.769       36.424       27.343       20.796     1326.711      747.632      432.493        0.425        0.125       77.246       20.097        0.068      336.466        7.786      861.910
03/18/2014  20:40:00        8.816      -34.231        8.641       18.628       19.398       16.003      347.021      376.296      256.094        0.115        0.049       35.348        7.259        0.042      336.464        7.784      861.934
03/18/2014  20:41:00       22.459       31.516       45.335       28.375       33.882       17.926      805.148     1148.018      321.347        0.291        0.114       38.700       13.435        0.121      336.275        7.469      861.972
03/18/2014  20:42:00       33.895        0.645       48.509       48.948       67.581       47.249     2395.897     4567.246     2232.511        0.635        0.460       33.901       51.628        2.319      336.277        7.470      862.001
03/18/2014  20:43:00       30.146       10.702       48.036       34.468       49.098       30.253     1188.039     2410.593      915.242        0.392        0.226       31.989       32.629        1.040      336.239        7.406      862.014
03/18/2014  20:44:00       41.399       46.846       65.914       39.715       40.996       26.835     1577.304     1680.702      720.109        0.611        0.199       62.518       12.985        0.043      336.209        7.356      862.029
03/18/2014  20:45:00       30.517       25.657       63.867       28.980       41.150       21.226      839.857     1693.318      450.532        0.433        0.149       39.869       21.521        0.291      336.140        7.240      862.055
03/18/2014  20:46:00       88.850       72.893       72.211       59.317       42.683       38.576     3518.489     1821.845     1488.114        1.262        0.341      114.924       36.387        0.100      336.171        7.293      862.070
03/18/2014  20:47:00       59.582       56.735       60.115       40.447       37.303       32.886     1635.959     1391.532     1081.458        0.724        0.205       82.273       17.344        0.044      336.076        7.135      862.075
03/18/2014  20:48:00       43.116       58.601       65.966       41.422       38.485       24.773     1715.764     1481.067      613.679        0.673        0.191       72.753       11.938        0.027      336.042        7.077      862.073
03/18/2014  20:49:00       76.892       47.555       72.412       54.208       71.901       50.031     2938.460     5169.739     2503.057        1.201        0.531       90.410       51.903        0.330      336.100        7.176      862.068
03/18/2014  20:50:00       70.865       69.660       66.996       57.797       49.853       41.313     3340.523     2485.332     1706.774        1.095        0.377       99.369       31.194        0.099      336.051        7.094      862.073
03/18/2014  20:51:00      126.214       45.089       25.534       71.060       48.281       41.127     5049.521     2331.072     1691.469        1.384        0.454      134.026       31.515        0.055      335.991        6.993      862.086
03/18/2014  20:52:00      105.136       66.529       40.480       48.933       49.663       45.673     2394.396     2466.458     2086.008        1.203        0.347      124.417       32.643        0.069      335.924        6.881      862.083
03/18/2014  20:53:00       62.529       72.211       69.726       49.505       40.107       34.026     2450.767     1608.555     1157.783        0.960        0.261       95.521       25.646        0.072      336.108        7.188      862.080
03/18/2014  20:54:00       79.101       40.584       47.329       48.746       37.275       30.798     2376.138     1389.395      948.506        0.743        0.236       88.905       20.040        0.051      336.035        7.065      862.086
03/18/2014  20:55:00      111.943       34.808       32.611       62.040       37.063       41.893     3848.988     1373.651     1754.989        1.089        0.349      117.230       32.907        0.079      335.981        6.975      862.090
03/18/2014  20:56:00       75.491       12.934       23.146       42.345       38.495       35.333     1793.124     1481.866     1248.404        0.546        0.226       76.591       23.582        0.095      335.903        6.848      862.086
03/18/2014  20:57:00       75.519       45.224       37.042       40.371       38.813       27.259     1629.805     1506.431      743.043        0.650        0.194       88.025       19.668        0.050      335.857        6.772      862.093
03/18/2014  20:58:00       79.473       34.665       21.301       42.416       31.857       31.251     1799.150     1014.852      976.604        0.588        0.190       86.704       29.149        0.113      335.847        6.754      862.105
03/18/2014  20:59:00      113.077       52.799       17.178       65.696       38.379       28.148     4315.914     1472.914      792.301        1.122        0.329      124.797       28.089        0.051      335.775        6.633      862.108
03/18/2014  21:00:00       73.515       57.295       42.206       34.625       37.451       35.369     1198.909     1402.588     1250.964        0.716        0.193       93.205       24.849        0.071      335.787        6.652      862.108
03/18/2014  21:01:00      100.931       25.488       15.187       47.304       38.284       31.713     2237.676     1465.627     1005.726        0.789        0.235      104.099       22.635        0.047      335.823        6.713      862.125
03/18/2014  21:02:00      111.303       62.034        4.910       24.691       18.606       19.192      609.670      346.179      368.319        0.879        0.066      127.423       12.164        0.009      335.713        6.531      862.128
03/18/2014  21:03:00      100.689       62.061       15.482       41.270       34.313       23.907     1703.251     1177.401      571.524        0.884        0.173      118.279       14.359        0.015      335.747        6.587      862.125
03/18/2014  21:04:00       78.856       49.447        8.640       41.937       30.092       26.055     1758.730      905.504      678.862        0.604        0.167       93.076       11.365        0.015      335.751        6.594      862.124
03/18/2014  21:05:00       95.065       51.300       13.712       27.656       23.893       14.865      764.858      570.870      220.958        0.671        0.078      108.024        6.139        0.003      335.787        6.653      862.135
03/18/2014  21:06:00       62.664       26.464       13.188       33.525       22.981       22.850     1123.938      528.123      522.140        0.349        0.109       68.023       17.886        0.069      335.797        6.671      862.138
03/18/2014  21:07:00       76.384       53.833       13.695       13.968       15.773       15.205      195.105      248.799      231.195        0.480        0.034       93.448        6.154        0.004      335.781        6.643      862.133
03/18/2014  21:08:00       84.750       50.796        4.302       18.509       17.000       13.180      342.600      289.012      173.715        0.529        0.040       98.807        8.318        0.007      335.773        6.631      862.131
03/18/2014  21:09:00       72.578       54.982       27.789       26.428       18.724       18.622      698.434      350.607      346.777        0.523        0.070       91.052       17.153        0.035      335.823        6.714      862.131
03/18/2014  21:10:00       85.479       49.855       21.125       25.902       22.560       24.176      670.928      508.964      584.491        0.600        0.088       98.956       15.392        0.024      335.818        6.704      862.121
03/18/2014  21:11:00       82.590       59.589       16.309       26.932       27.984       21.854      725.314      783.102      477.577        0.631        0.099      101.843       15.554        0.023      335.787        6.653      862.106
03/18/2014  21:12:00      104.008       32.689       13.647       38.551       41.201       29.184     1486.177     1697.559      851.687        0.805        0.202      109.024       20.904        0.037      335.775        6.634      862.105
03/18/2014  21:13:00       98.429       55.085       20.239       46.911       36.544       24.542     2200.655     1335.443      602.321        0.863        0.207      112.795       19.907        0.031      335.721        6.544      862.122
03/18/2014  21:14:00       41.002       22.051       27.592       26.733       22.186       17.372      714.678      492.226      301.783        0.222        0.075       46.555       14.986        0.104      335.625        6.385      862.125
03/18/2014  21:15:00       39.476       25.064       14.862       30.056       18.793       15.701      903.364      353.190      246.536        0.195        0.075       46.761        7.735        0.027      335.602        6.346      862.150
03/18/2014  21:16:00        1.728       -2.586       13.005       11.970       16.440       11.089      143.274      270.286      122.963        0.036        0.027        3.111        6.311        4.117      335.635        6.399      862.168
03/18/2014  21:17:00        4.021       -1.686        9.373       16.205        8.919       12.740      262.614       79.542      162.304        0.031        0.025        4.360       10.663        5.981      335.659        6.439      862.178
03/18/2014  21:18:00        9.333      -10.912        4.051        9.617       11.736       13.683       92.486      137.725      187.230        0.032        0.021       14.359        5.618        0.153      335.743        6.580      862.195
03/18/2014  21:19:00      -16.043      -15.091       -6.741       14.315       11.509        7.581      204.911      132.452       57.464        0.046        0.020       22.025        4.807        0.048      335.826        6.720      862.197
03/18/2014  21:20:00       -1.692      -24.346        2.409       26.938       15.642       11.458      725.660      244.684      131.280        0.085        0.055       24.404        6.487        0.071      335.824        6.715      862.201
03/18/2014  21:21:00        2.333       -4.531       16.447       14.943       22.040       13.316      223.281      485.763      177.329        0.059        0.044        5.096        8.066        2.505      335.761        6.610      862.198
03/18/2014  21:22:00       23.245      -58.539        5.028       32.349       42.478       28.817     1046.427     1804.339      830.416        0.384        0.184       62.985       24.441        0.151      335.975        6.967      862.213
03/18/2014  21:23:00       47.477      -78.018       11.722       55.346       71.535       38.124     3063.128     5117.284     1453.437        0.905        0.482       91.328       41.638        0.208      335.984        6.981      862.208
03/18/2014  21:24:00       42.903      -12.774       20.725       46.291       38.805       32.388     2142.818     1505.793     1048.991        0.356        0.235       44.764       22.556        0.254      335.818        6.704      862.209
03/18/2014  21:25:00       32.164      -21.850       47.277       53.767       91.120       50.587     2890.854     8302.900     2559.045        0.875        0.688       38.884       60.409        2.414      335.864        6.782      862.216
03/18/2014  21:26:00       77.011     -128.678      -12.129       58.835       94.542       41.831     3461.523     8938.252     1749.806        1.839        0.707      149.962       36.201        0.058      335.990        6.991      862.236
03/18/2014  21:27:00      100.932     -159.321      -16.563       78.633       59.776       39.097     6183.122     3573.172     1528.556        2.356        0.564      188.601       41.261        0.048      336.027        7.050      862.235
03/18/2014  21:28:00      151.685     -149.237      -28.987       47.796       45.780       29.990     2284.485     2095.842      899.427        2.570        0.264      212.791       25.448        0.014      335.960        6.939      862.239
03/18/2014  21:29:00      130.183     -161.726      -33.624       54.510       61.594       31.681     2971.289     3793.816     1003.684        2.600        0.388      207.612       13.866        0.004      335.953        6.927      862.243
03/18/2014  21:30:00       90.093     -106.842      -13.343       63.357       75.609       39.458     4014.118     5716.764     1556.960        1.550        0.564      139.757       34.824        0.062      335.896        6.833      862.244
03/18/2014  21:31:00       68.765      -85.080       15.393       62.219       71.196       48.935     3871.199     5068.800     2394.640        1.177        0.567      109.395       52.954        0.234      335.892        6.828      862.260
03/18/2014  21:32:00       90.948      -77.439        9.581       66.834       69.270       43.085     4466.741     4798.317     1856.284        1.274        0.556      119.450       49.269        0.170      335.848        6.755      862.272
03/18/2014  21:33:00       52.523     -112.598       14.910       47.654       60.045       41.160     2270.857     3605.454     1694.166        1.161        0.379      124.246       40.158        0.104      335.900        6.840      862.279
03/18/2014  21:34:00       34.988      -11.763       30.000       34.310       34.032       29.891     1177.150     1158.159      893.493        0.275        0.161       36.913       21.896        0.352      335.748        6.588      862.305
03/18/2014  21:35:00       58.530      -77.451        4.193       60.389       87.721       30.944     3646.856     7695.061      957.515        1.087        0.615       97.079       46.203        0.227      335.902        6.844      862.327
03/18/2014  21:36:00       77.787      -86.902        0.104       67.810       92.280       52.412     4598.251     8515.651     2747.035        1.473        0.793      116.631       56.768        0.237      335.866        6.785      862.335
03/18/2014  21:37:00       34.699       -4.617       33.583       45.357       68.790       42.702     2057.303     4732.127     1823.501        0.548        0.431       35.005       36.619        1.094      335.742        6.580      862.353
03/18/2014  21:38:00       34.006       56.951       77.856       45.550       44.721       34.072     2074.846     1999.926     1160.893        0.785        0.262       66.331       33.194        0.250      335.739        6.575      862.365
03/18/2014  21:39:00       35.180      -28.971       19.424       36.396       37.118       28.836     1324.685     1377.775      831.499        0.299        0.177       45.574       26.078        0.327      335.776        6.634      862.361
03/18/2014  21:40:00       26.743       -5.640       22.617       37.597       46.751       24.753     1413.545     2185.669      612.693        0.273        0.211       27.331       28.225        1.067      335.732        6.563      862.358
03/18/2014  21:41:00       36.088      -43.044       20.229       31.500       47.308       29.205      992.249     2238.063      852.920        0.382        0.204       56.171       30.742        0.300      335.765        6.617      862.357
03/18/2014  21:42:00       13.137       -2.901       37.520       19.844       35.150       21.300      393.801     1235.490      453.680        0.184        0.104       13.454       21.311        2.509      335.723        6.549      862.363
03/18/2014  21:43:00       13.389       18.181       40.835       23.390       30.431       16.960      547.113      926.065      287.630        0.197        0.088       22.579       16.946        0.563      335.656        6.435      862.357
03/18/2014  21:44:00        9.854       59.513       69.371       28.042       33.353       26.274      786.335     1112.417      690.332        0.552        0.129       60.323       25.177        0.174      335.626        6.386      862.364
03/18/2014  21:45:00       33.371       -3.617       39.919       38.591       56.993       30.726     1489.263     3248.216      944.076        0.420        0.284       33.567       37.700        1.261      335.675        6.467      862.364
03/18/2014  21:46:00       34.751       13.464       47.086       39.936       44.848       31.222     1594.882     2011.386      974.788        0.409        0.229       37.268       34.569        0.860      335.677        6.470      862.356
03/18/2014  21:47:00       28.304      -60.146       16.266       37.414       33.759       29.038     1399.799     1139.652      843.192        0.403        0.169       66.474       24.442        0.135      335.770        6.626      862.364
03/18/2014  21:48:00       24.636      -92.091       -4.840       50.118       46.120       35.009     2511.859     2127.089     1225.619        0.749        0.293       95.329       27.853        0.085      335.836        6.736      862.364
03/18/2014  21:49:00       41.803      -82.265       -3.279       46.082       66.741       37.739     2123.532     4454.392     1424.269        0.826        0.400       92.276       43.407        0.221      335.693        6.496      862.368
03/18/2014  21:50:00      123.636     -121.328      -23.654       39.625       42.431       27.031     1570.135     1800.422      730.654        1.733        0.205      173.224       26.741        0.024      335.684        6.482      862.380
03/18/2014  21:51:00       85.612      -75.314       -4.830       30.262       39.656       25.754      915.771     1572.576      663.266        0.809        0.158      114.024       19.224        0.028      335.682        6.479      862.380
03/18/2014  21:52:00       51.430      -61.308      -10.142       31.782       36.264       26.592     1010.124     1315.099      707.114        0.477        0.152       80.023       15.156        0.036      335.688        6.489      862.375
03/18/2014  21:53:00       32.223      -39.671       11.509       34.057       46.608       30.274     1159.870     2172.323      916.528        0.350        0.212       51.109       32.242        0.398      335.680        6.475      862.379
03/18/2014  21:54:00       52.303      -29.386       22.314       36.548       49.559       27.556     1335.725     2456.129      759.333        0.432        0.228       59.993       32.082        0.286      335.597        6.337      862.379
03/18/2014  21:55:00       73.700      -46.670       15.247       41.619       58.089       31.371     1732.165     3374.373      984.160        0.697        0.305       87.234       25.748        0.087      335.657        6.438      862.372
03/18/2014  21:56:00       36.338       25.380       12.759       24.262       29.530       24.776      588.648      872.025      613.832        0.210        0.104       44.323       19.465        0.193      335.452        6.096      862.370
03/18/2014  21:57:00       18.747       25.454       49.293       29.334       28.457       15.731      860.467      809.788      247.471        0.267        0.096       31.613        9.624        0.093      335.372        5.960      862.374
03/18/2014  21:58:00        4.691        8.780       39.026       16.313       22.309       15.434      266.114      497.679      238.208        0.131        0.050        9.955       10.664        1.148      335.471        6.125      862.385
03/18/2014  21:59:00       -2.390       16.026       41.319       20.674       18.184       13.616      427.428      330.654      185.395        0.146        0.047       16.203       12.564        0.601      335.401        6.008      862.379
03/18/2014  22:00:00       30.787       31.168       30.828       33.402       28.743       18.678     1115.694      826.149      348.868        0.258        0.115       43.810       10.930        0.062      335.463        6.112      862.373
03/18/2014  22:01:00       12.151       10.209       28.571       31.434       26.235       21.635      988.081      688.286      468.056        0.161        0.107       15.870       21.057        1.760      335.410        6.026      862.388
03/18/2014  22:02:00       33.725       14.531       20.777       23.249       13.302       16.703      540.530      176.951      279.005        0.139        0.050       36.722        9.375        0.065      335.347        5.919      862.389
03/18/2014  22:03:00       41.972       16.104       19.889       31.651       20.212       17.390     1001.755      408.545      302.401        0.206        0.086       44.956       12.811        0.081      335.388        5.989      862.390
03/18/2014  22:04:00        7.689        5.178       14.451       24.853       17.757       10.397      617.665      315.300      108.102        0.067        0.052        9.270       11.254        1.474      335.297        5.835      862.401
03/18/2014  22:05:00       -4.724        3.495       18.538        8.858       17.318       11.553       78.458      299.896      133.462        0.044        0.026        5.877        6.115        1.083      335.095        5.501      862.427
03/18/2014  22:06:00      -31.847      -10.632       -2.861       19.751       13.364       10.242      390.108      178.587      104.907        0.090        0.034       33.575       12.170        0.131      334.953        5.265      862.443
03/18/2014  22:07:00      -33.103       -7.649       -0.389       12.479       12.490        8.253      155.715      155.999       68.118        0.077        0.019       33.975        4.825        0.020      334.740        4.912      862.458
03/18/2014  22:08:00      -24.684      -10.340       -1.703        8.482       12.907        4.441       71.938      166.593       19.723        0.049        0.013       26.763        2.670        0.010      334.723        4.884      862.475
03/18/2014  22:09:00      -21.216        4.274       -3.086        8.409       10.622        6.256       70.715      112.817       39.141        0.035        0.011       21.642        4.359        0.041      334.898        5.175      862.488
03/18/2014  22:10:00        5.822       14.084       21.752       26.892       25.900       13.163      723.160      670.819      173.268        0.114        0.078       15.240       18.815        1.524      335.061        5.446      862.504
03/18/2014  22:11:00      -17.826      -16.987       -1.344       19.344       13.428       11.763      374.181      180.322      138.361        0.065        0.035       24.624        8.916        0.131      334.776        4.973      862.525
03/18/2014  22:12:00       20.280       13.405       16.303       26.176       14.485       14.322      685.177      209.820      205.116        0.098        0.055       24.310        9.916        0.166      335.124        5.549      862.523
03/18/2014  22:13:00      -10.205       -7.071        1.466        7.874        9.540       11.246       62.000       91.014      126.481        0.022        0.014       12.416        4.426        0.127      334.862        5.115      862.532
03/18/2014  22:14:00      -14.801        1.524        6.176       15.779        9.348        9.247      248.981       87.388       85.500        0.034        0.021       14.880        9.016        0.367      335.011        5.361      862.545
03/18/2014  22:15:00       -2.358       -4.745        5.823       15.667       11.334       11.649      245.442      128.458      135.696        0.029        0.025        5.299        6.260        1.396      334.946        5.253      862.561
03/18/2014  22:16:00      -30.931      -16.334        2.498       36.581       29.882       14.860     1338.185      892.947      220.812        0.184        0.123       34.979       11.602        0.110      334.711        4.865      862.578
03/18/2014  22:17:00      -49.658      -18.128      -14.686        9.668       11.105        6.882       93.479      123.327       47.358        0.164        0.013       52.864        3.674        0.005      334.510        4.532      862.594
03/18/2014  22:18:00      -40.287      -10.526      -16.258       11.548        8.513       10.766      133.367       72.466      115.909        0.116        0.016       41.639        6.963        0.028      334.583        4.651      862.605
03/18/2014  22:19:00      -38.766      -13.258      -16.811       10.936        9.170        7.175      119.588       84.098       51.479        0.111        0.013       40.970        5.381        0.017      334.465        4.455      862.608
03/18/2014  22:20:00      -44.174       -7.174       -7.145        8.379        8.283        6.045       70.215       68.600       36.537        0.111        0.009       44.753        2.197        0.002      334.416        4.375      862.628
03/18/2014  22:21:00      -17.411       12.090       -5.370       14.866       16.485        4.832      221.012      271.746       23.349        0.050        0.026       21.197        6.004        0.080      334.774        4.967      862.635
03/18/2014  22:22:00      -14.746       -3.499       -1.696       15.736       27.765       14.108      247.609      770.888      199.043        0.072        0.061       15.155       17.993        1.410      334.718        4.873      862.633
03/18/2014  22:23:00      -17.489      -11.513       -6.396       12.947       15.664        8.246      167.636      245.361       68.000        0.048        0.024       20.939        5.867        0.079      334.596        4.675      862.629
03/18/2014  22:24:00      -30.788       -7.969      -11.627       11.946       29.334        8.201      142.699      860.494       67.263        0.111        0.054       31.802        3.893        0.015      334.533        4.569      862.625
03/18/2014  22:25:00      -41.675      -13.819       -9.108       16.015       18.907        8.890      256.473      357.485       79.032        0.135        0.035       43.906        6.363        0.021      334.411        4.365      862.638
03/18/2014  22:26:00      -82.988      -22.743      -16.032       26.412       16.069       10.590      697.573      258.221      112.157        0.436        0.053       86.048       10.330        0.014      334.179        3.981      862.645
03/18/2014  22:27:00      -82.026      -11.092      -16.608       20.106       17.390       13.250      404.243      302.414      175.552        0.400        0.044       82.773       12.421        0.023      333.906        3.528      862.662
03/18/2014  22:28:00      -63.719       -6.925       -8.630       14.752       17.221        9.346      217.624      296.546       87.353        0.239        0.030       64.094        1.926        0.001      334.186        3.992      862.676
03/18/2014  22:29:00      -43.923        2.449       -9.041       11.874       11.697        8.872      140.981      136.817       78.715        0.119        0.018       43.991        8.061        0.034      334.629        4.729      862.687
03/18/2014  22:30:00      -72.852      -22.912       -6.675       17.217       15.686        9.001      296.424      246.046       81.015        0.325        0.031       76.370        5.519        0.005      334.118        3.880      862.700
03/18/2014  22:31:00      -38.619      -12.648      -13.760       17.234        9.352        7.092      296.997       87.463       50.295        0.114        0.022       40.638        4.846        0.014      334.317        4.212      862.704
03/18/2014  22:32:00       -9.793       -0.946       -4.501       12.176        6.923        5.522      148.247       47.923       30.490        0.017        0.011        9.839        3.184        0.105      334.661        4.780      862.714
03/18/2014  22:33:00      -44.032        4.694       -7.174       11.630       14.014        8.287      135.267      196.401       68.667        0.121        0.020       44.281        5.619        0.016      334.481        4.483      862.718
03/18/2014  22:34:00      -47.735      -11.431       -4.918        7.462       10.568        5.558       55.682      111.686       30.891        0.132        0.010       49.085        4.337        0.008      334.239        4.080      862.712
03/18/2014  22:35:00      -46.422      -14.825      -14.097        9.965       10.141        5.970       99.292      102.846       35.639        0.141        0.012       48.732        3.619        0.006      334.417        4.376      862.709
03/18/2014  22:36:00      -18.523       24.027       -0.900       17.149       22.659       12.569      294.088      513.447      157.980        0.094        0.048       30.338       12.702        0.175      334.740        4.912      862.720
03/18/2014  22:37:00      -15.637       33.511       -5.229       19.469       13.637        8.989      379.061      185.970       80.810        0.102        0.032       36.980        4.522        0.015      334.811        5.030      862.733
03/18/2014  22:38:00      -20.042       20.742       -1.793       26.185       20.576       10.417      685.648      423.368      108.514        0.103        0.061       28.843        9.020        0.098      334.656        4.773      862.745
03/18/2014  22:39:00      -30.501       21.927        3.272       14.861       19.511        9.211      220.856      380.696       84.844        0.105        0.034       37.565        6.338        0.028      334.437        4.410      862.749
03/18/2014  22:40:00      -54.424      -23.346       -3.706       19.260       17.469       11.474      370.952      305.156      131.651        0.216        0.040       59.220        7.417        0.016      334.006        3.694      862.753
03/18/2014  22:41:00      -38.468      -17.162       -3.604       11.114        8.448        6.518      123.528       71.361       42.482        0.101        0.012       42.122        3.250        0.006      333.962        3.621      862.761
03/18/2014  22:42:00      -27.087      -21.991       -3.906       14.664        8.356       11.156      215.045       69.824      124.460        0.082        0.020       34.889        8.049        0.053      334.134        3.906      862.776
03/18/2014  22:43:00      -21.901      -25.249       -5.955       11.652        7.810        7.490      135.771       60.992       56.107        0.070        0.013       33.424        5.115        0.023      334.243        4.088      862.793
03/18/2014  22:44:00      -33.994       -2.538       -9.888       16.692       18.891        8.836      278.627      356.860       78.075        0.099        0.036       34.089        3.862        0.013      334.143        3.922      862.802
03/18/2014  22:45:00      -20.767        0.098       -3.033       16.857       14.313       11.967      284.171      204.861      143.207        0.054        0.032       20.767       10.123        0.238      334.393        4.338      862.798
03/18/2014  22:46:00      -28.604       -2.173       -6.101       13.629       19.861        8.616      185.762      394.447       74.235        0.076        0.033       28.686        5.372        0.035      334.273        4.136      862.797
03/18/2014  22:47:00      -17.916       26.626        3.011       23.836       26.253       15.941      568.171      689.194      254.109        0.127        0.076       32.092       14.238        0.197      334.589        4.663      862.803
03/18/2014  22:48:00      -14.823        7.504        1.264       20.192       16.557       10.550      407.716      274.133      111.294        0.054        0.040       16.614        8.673        0.273      334.496        4.509      862.802
03/18/2014  22:49:00        6.792       18.155       -5.536        9.470       10.163       10.155       89.673      103.281      103.133        0.035        0.015       19.384        7.045        0.132      334.870        5.128      862.815
03/18/2014  22:50:00       -1.998        1.200       -5.339       17.148       26.288        9.744      294.038      691.052       94.946        0.056        0.054        2.331        7.360        9.970      334.793        5.001      862.820
03/18/2014  22:51:00      -14.195        1.202       -0.751       13.631       13.484        9.733      185.792      181.830       94.736        0.033        0.023       14.246        6.683        0.220      334.402        4.351      862.815
03/18/2014  22:52:00      -25.268       41.883      -10.194       21.164       32.328       15.136      447.930     1045.092      229.104        0.211        0.086       48.915       10.144        0.043      334.660        4.780      862.812
03/18/2014  22:53:00       -5.338       74.296       -8.958       15.993       11.918        7.684      255.769      142.029       59.049        0.304        0.023       74.488        6.451        0.008      335.023        5.382      862.810
03/18/2014  22:54:00      -12.630       69.948       -8.078       18.743       14.807        9.429      351.301      219.235       88.913        0.289        0.033       71.079        6.382        0.008      334.895        5.169      862.807
03/18/2014  22:55:00      -28.411       17.081      -13.117       29.064       38.306       12.945      844.701     1467.385      167.586        0.187        0.124       33.150       13.345        0.162      334.495        4.506      862.809
03/18/2014  22:56:00      -23.016      -28.147       -5.356       12.751       13.101       12.318      162.594      171.626      151.740        0.092        0.024       36.360        2.566        0.005      333.969        3.632      862.799
03/18/2014  22:57:00       17.659       19.025       -5.247       32.737       15.196        8.638     1071.699      230.930       74.608        0.104        0.069       25.958        5.253        0.041      334.801        5.015      862.785
03/18/2014  22:58:00      -11.825        3.414        4.939       24.811       23.230       11.987      615.579      539.612      143.685        0.074        0.065       12.308       13.337        1.174      334.403        4.353      862.777
03/18/2014  22:59:00       19.235       -5.508        2.116       25.860       23.984       15.691      668.761      575.223      246.210        0.095        0.075       20.008       13.576        0.460      334.405        4.357      862.777
03/18/2014  23:00:00      -49.855      -18.568        2.232       14.089       15.562       10.937      198.503      242.186      119.624        0.170        0.028       53.200        4.865        0.008      334.100        3.850      862.782
03/18/2014  23:01:00      -45.916      -11.577       -5.703        9.335        9.611        7.867       87.139       92.374       61.884        0.126        0.012       47.353        6.270        0.018      334.146        3.927      862.769
03/18/2014  23:02:00      -50.770      -10.023      -10.123       11.026        7.488        5.693      121.578       56.075       32.413        0.150        0.011       51.750        5.613        0.012      334.086        3.828      862.759
03/18/2014  23:03:00      -31.224      -29.585       -8.563       16.434       10.976       10.057      270.093      120.472      101.139        0.121        0.025       43.014       10.580        0.060      333.870        3.468      862.770
03/18/2014  23:04:00      -19.345      -45.741       -6.254       16.355       24.172       12.348      267.499      584.301      152.484        0.175        0.050       49.663        9.573        0.037      333.933        3.574      862.778
03/18/2014  23:05:00      -33.860      -45.973       -0.074       27.958       29.726       17.175      781.666      883.622      294.963        0.261        0.098       57.096       21.146        0.137      334.347        4.260      862.785
03/18/2014  23:06:00      -47.003      -22.785       -8.764       18.457       11.483        7.754      340.678      131.866       60.129        0.167        0.027       52.235        7.385        0.020      333.850        3.435      862.777
03/18/2014  23:07:00       -8.978       10.823        2.528       10.418       12.683        7.439      108.531      160.866       55.337        0.026        0.016       14.062        6.906        0.241      334.480        4.480      862.774
03/18/2014  23:08:00      -20.370      -21.231       -2.618       14.481       34.390       10.772      209.695     1182.697      116.032        0.119        0.075       29.422       14.677        0.249      334.330        4.232      862.770
03/18/2014  23:09:00      -22.971      -21.814        8.518       23.712       18.893       18.270      562.262      356.931      333.796        0.116        0.063       31.678       17.538        0.307      333.666        3.131      862.778
03/18/2014  23:10:00      -66.731      -30.908      -18.334       13.724       11.904       11.060      188.348      141.697      122.324        0.310        0.023       73.541        4.824        0.004      333.725        3.228      862.793
03/18/2014  23:11:00      -97.989      -25.960      -13.435       18.618       12.971        7.717      346.629      168.253       59.559        0.552        0.029      101.370        3.199        0.001      333.468        2.803      862.805
03/18/2014  23:12:00      -85.827       -8.421      -20.705       14.841       20.959       15.828      220.252      439.264      250.516        0.439        0.046       86.240        9.199        0.011      333.721        3.222      862.812
03/18/2014  23:13:00      -73.853       13.157      -15.809       15.220       13.143        8.137      231.656      172.737       66.215        0.317        0.024       75.016        4.050        0.003      333.776        3.313      862.824
03/18/2014  23:14:00      -52.522      -26.510      -14.183       11.199       14.003        9.517      125.414      196.097       90.571        0.204        0.021       58.833        5.144        0.008      333.809        3.367      862.840
03/18/2014  23:15:00      -67.781      -32.223      -16.454       17.227       13.466       13.392      296.772      181.325      179.338        0.328        0.033       75.051        9.557        0.016      333.779        3.318      862.847
03/18/2014  23:16:00      -66.671      -26.810      -16.597       18.549       10.737       11.258      344.050      115.292      126.740        0.301        0.029       71.859        9.598        0.018      333.657        3.115      862.837
03/18/2014  23:17:00      -63.280      -36.904      -14.199       17.716       15.780       14.319      313.847      249.024      205.036        0.317        0.038       73.255        4.022        0.003      333.522        2.891      862.836
03/18/2014  23:18:00      -74.512      -19.954      -14.719        8.847        9.072        8.905       78.264       82.306       79.304        0.320        0.012       77.138        3.987        0.003      333.470        2.804      862.830
03/18/2014  23:19:00      -70.104      -11.093      -14.495        9.074        7.403        7.504       82.329       54.799       56.313        0.272        0.010       70.977        3.718        0.003      333.601        3.022      862.821
03/18/2014  23:20:00      -48.718      -22.051       -4.074       13.081       12.955       11.668      171.125      167.834      136.134        0.168        0.024       53.476        6.001        0.013      333.688        3.167      862.823
03/18/2014  23:21:00      -30.545      -10.842      -10.685       18.171       10.867        8.251      330.193      118.082       68.076        0.084        0.026       32.412        3.785        0.014      333.924        3.558      862.832
03/18/2014  23:22:00      -46.373      -18.049       -6.411       12.676       10.062       10.504      160.692      101.248      110.328        0.144        0.019       49.762        6.250        0.016      333.795        3.345      862.823
03/18/2014  23:23:00      -42.214       -9.172       -4.783       10.493        9.621        7.374      110.093       92.570       54.381        0.107        0.013       43.199        2.950        0.005      333.952        3.605      862.815
03/18/2014  23:24:00      -27.511      -26.289      -12.007       12.138       11.756       10.927      147.336      138.194      119.395        0.100        0.020       38.052        6.896        0.033      333.955        3.610      862.813
03/18/2014  23:25:00      -29.405      -25.002       -9.613       13.800       14.376       11.473      190.438      206.676      131.629        0.106        0.026       38.597        6.781        0.031      333.758        3.283      862.797
03/18/2014  23:26:00      -33.153      -24.654       -8.969       16.411       11.560       10.887      269.316      133.641      118.534        0.115        0.026       41.315        8.627        0.044      333.601        3.022      862.786
03/18/2014  23:27:00      -31.770      -24.799       -5.644       14.606       12.904        9.480      213.330      166.516       89.877        0.106        0.023       40.303        5.014        0.015      333.508        2.869      862.770
03/18/2014  23:28:00      -33.833      -26.241       -9.666       15.274       11.626        9.264      233.283      135.157       85.813        0.119        0.023       42.816        1.229        0.001      333.750        3.271      862.754
03/18/2014  23:29:00      -46.583      -24.020       -8.073       10.138        9.626       10.168      102.788       92.666      103.383        0.156        0.015       52.412        5.004        0.009      333.488        2.837      862.757
03/18/2014  23:30:00      -31.495      -16.733       -1.256       12.510        9.851        6.502      156.501       97.043       42.274        0.078        0.015       35.664        6.001        0.028      334.042        3.754      862.764
03/18/2014  23:31:00      -13.499       -9.107       -0.909       15.023       11.804        7.637      225.704      139.331       58.317        0.034        0.021       16.284        3.260        0.040      334.162        3.954      862.776
03/18/2014  23:32:00      -32.601      -20.961      -10.543       12.995       11.650       10.215      168.859      135.724      104.339        0.101        0.020       38.758        7.366        0.036      333.727        3.232      862.791
03/18/2014  23:33:00      -35.042      -27.351      -13.418       12.720       10.751        6.373      161.793      115.589       40.611        0.124        0.016       44.453        2.989        0.005      333.727        3.231      862.809
03/18/2014  23:34:00      -30.488      -25.192      -12.441       16.520        9.519        8.525      272.898       90.611       72.676        0.108        0.022       39.549        6.020        0.023      333.669        3.136      862.811
03/18/2014  23:35:00      -59.433      -30.919      -12.239       16.266       14.234       13.440      264.569      202.603      180.639        0.264        0.032       66.994        7.727        0.013      333.385        2.665      862.804
03/18/2014  23:36:00      -61.104      -14.831      -12.392       20.740       18.363       15.138      430.164      337.214      229.170        0.255        0.050       62.878       14.254        0.051      333.367        2.636      862.810
03/18/2014  23:37:00      -60.632       -7.216      -17.604       10.706       17.740        8.457      114.615      314.710       71.519        0.227        0.025       61.060        9.731        0.025      333.435        2.748      862.801
03/18/2014  23:38:00      -55.603       -8.305        1.550       15.809       14.778       18.144      249.911      218.398      329.221        0.198        0.040       56.220       11.433        0.041      333.436        2.748      862.795
03/18/2014  23:39:00      -54.203       -6.013       -9.885       16.174       20.074       11.551      261.590      402.950      133.433        0.193        0.040       54.536       10.400        0.036      333.609        3.036      862.804
03/18/2014  23:40:00      -58.012      -16.578      -14.114       11.029       16.712        8.622      121.640      279.299       74.346        0.216        0.024       60.334        6.228        0.011      333.373        2.643      862.822
03/18/2014  23:41:00      -54.212      -10.472      -20.349       22.683       10.540       13.534      514.511      111.086      183.159        0.214        0.040       55.214       11.569        0.044      333.482        2.826      862.826
03/18/2014  23:42:00      -48.752       -8.695       -9.702       14.447       14.118       12.216      208.716      199.328      149.230        0.155        0.028       49.521        8.109        0.027      333.446        2.765      862.851
03/18/2014  23:43:00      -60.650      -13.554      -19.488       12.371       12.941       12.290      153.053      167.464      151.039        0.236        0.024       62.146        6.517        0.011      333.379        2.655      862.871
03/18/2014  23:44:00      -69.604      -16.296      -17.222       11.632       13.157        9.341      135.309      173.104       87.255        0.290        0.020       71.486        4.459        0.004      333.289        2.506      862.880
03/18/2014  23:45:00      -76.800       -7.367      -11.275       22.223       11.569       13.334      493.866      133.844      177.786        0.344        0.040       77.153        9.055        0.014      333.084        2.167      862.898
03/18/2014  23:46:00      -93.073       -9.847      -14.629       16.609       10.726       14.659      275.871      115.049      214.882        0.479        0.030       93.593        6.627        0.005      333.040        2.094      862.921
03/18/2014  23:47:00      -99.703      -22.067      -15.383       13.262       15.818       13.255      175.880      250.220      175.702        0.563        0.030      102.116        9.142        0.008      333.054        2.118      862.931
03/18/2014  23:48:00     -127.015       -5.344      -21.999       31.177       20.431       16.214      971.995      417.412      262.893        0.915        0.083      127.127        6.529        0.003      333.001        2.029      862.934
03/18/2014  23:49:00     -137.176       -3.694      -23.680       28.112       20.005       16.974      790.305      400.212      288.101        1.043        0.074      137.225       12.973        0.009      332.898        1.861      862.947
03/18/2014  23:50:00     -120.825       -7.065      -18.845       19.940       19.629       17.396      397.616      385.315      302.616        0.804        0.054      121.032        9.469        0.006      332.842        1.769      862.960
03/18/2014  23:51:00      -93.426      -29.186      -17.759       24.572       19.571       13.686      603.802      383.019      187.318        0.553        0.059       97.879        8.519        0.008      332.904        1.871      862.966
03/18/2014  23:52:00      -99.275      -27.435      -22.618       32.085       28.960       15.375     1029.467      838.672      236.379        0.661        0.105      102.996       15.805        0.024      332.922        1.899      862.978
03/18/2014  23:53:00      -97.673      -29.759      -15.527       22.135       26.560       17.603      489.964      705.423      309.865        0.609        0.075      102.105       10.364        0.010      332.990        2.013      863.003
03/18/2014  23:54:00     -100.231      -30.489      -25.581       25.206       22.996       17.578      635.337      528.832      308.982        0.655        0.074      104.765       12.240        0.014      333.067        2.139      863.017
03/18/2014  23:55:00     -111.656      -26.707      -21.914       35.033       26.580       20.031     1227.287      706.479      401.257        0.800        0.117      114.805       15.402        0.018      333.093        2.181      863.018
03/18/2014  23:56:00     -111.886      -33.995      -17.035       33.544       26.515       20.136     1125.223      703.032      405.439        0.810        0.112      116.936       15.957        0.019      332.961        1.965      863.033
03/18/2014  23:57:00      -76.082      -34.463       -6.525       23.729       25.075       17.087      563.085      628.758      291.974        0.425        0.074       83.524       10.763        0.017      332.944        1.936      863.046
03/18/2014  23:58:00      -86.537      -35.718      -13.599       23.984       23.587       12.500      575.229      556.344      156.261        0.512        0.064       93.618        7.639        0.007      333.019        2.060      863.060
03/18/2014  23:59:00      -67.414      -29.013       -8.510       27.178       22.138       21.031      738.636      490.079      442.286        0.356        0.084       73.392        9.010        0.015      333.128        2.239      863.075
